Wacker, Stefan (2026): Radiosonde measurements from station Lindenberg (2023-08) [dataset]. Meteorologisches Observatorium Lindenberg - Richard-Aßmann-Observatorium, PANGAEA, https://doi.org/10.1594/PANGAEA.991441
Always quote citation above when using data! You can download the citation in several formats below.
Published: 2026-02-12 • DOI registered: 2026-03-13
Other version:
Wacker, Stefan (2026): BSRN Station-to-archive file for station Lindenberg (2023-08) [dataset]. ftp://ftp.bsrn.awi.de/lin/lin0823.dat.gz
Project(s):
Coverage:
Latitude: 52.210000 * Longitude: 14.122000
Date/Time Start: 2023-08-01T00:00:00 * Date/Time End: 2023-08-31T18:00:00
Minimum ALTITUDE: -999 m * Maximum ALTITUDE: 37701 m
Event(s):
LIN (Lindenberg) * Latitude: 52.210000 * Longitude: 14.122000 * Date/Time: 1994-09-01T00:00:00 * Elevation: 125.0 m * Location: Germany * Method/Device: Monitoring station (MONS) * Comment: BSRN station no: 12; Surface type: cultivated; Topography type: hilly, rural; Horizon: doi:10.1594/PANGAEA.669521; Station scientist: Stefan Wacker (Stefan.Wacker@dwd.de)
Comment:
*C0006
Parameter(s):
| # | Name | Short Name | Unit | Principal Investigator | Method/Device | Comment |
|---|---|---|---|---|---|---|
| 1 | DATE/TIME | Date/Time | Wacker, Stefan | Geocode | ||
| 2 | ALTITUDE | Altitude | m | Wacker, Stefan | Geocode | |
| 3 | Pressure, at given altitude | PPPP | hPa | Wacker, Stefan | Radiosonde, Vaisala, RS41 | |
| 4 | Temperature, air | TTT | °C | Wacker, Stefan | Radiosonde, Vaisala, RS41 | |
| 5 | Dew/frost point | TdTdTd | °C | Wacker, Stefan | Radiosonde, Vaisala, RS41 | |
| 6 | Wind direction | dd | deg | Wacker, Stefan | Radiosonde, Vaisala, RS41 | |
| 7 | Wind speed | ff | m/s | Wacker, Stefan | Radiosonde, Vaisala, RS41 |
License:
Status:
Curation Level: Enhanced curation (CurationLevelC)
Size:
841485 data points
Data
| 1 Date/Time | 2 Altitude [m] | 3 PPPP [hPa] | 4 TTT [°C] | 5 TdTdTd [°C] | 6 dd [deg] | 7 ff [m/s] |
|---|---|---|---|---|---|---|
| 2023-08-01T00:00 | 112 | 991 | 17.8 | 13.5 | 200 | 4 |
| 2023-08-01T00:00 | 136 | 988 | 18.5 | 13.5 | 199 | 4 |
| 2023-08-01T00:00 | 166 | 984 | 18.1 | 13.4 | 200 | 5 |
| 2023-08-01T00:00 | 200 | 981 | 18.1 | 13.0 | 203 | 7 |
| 2023-08-01T00:00 | 229 | 977 | 18.1 | 12.9 | 207 | 9 |
| 2023-08-01T00:00 | 249 | 975 | 18.0 | 12.8 | 210 | 10 |
| 2023-08-01T00:00 | 279 | 972 | 18.3 | 12.6 | 214 | 11 |
| 2023-08-01T00:00 | 302 | 969 | 18.4 | 12.3 | 218 | 12 |
| 2023-08-01T00:00 | 330 | 966 | 18.4 | 12.2 | 222 | 12 |
| 2023-08-01T00:00 | 353 | 963 | 18.3 | 12.2 | 226 | 13 |
| 2023-08-01T00:00 | 375 | 961 | 18.1 | 12.1 | 229 | 13 |
| 2023-08-01T00:00 | 399 | 958 | 18.0 | 12.1 | 232 | 13 |
| 2023-08-01T00:00 | 421 | 955 | 17.9 | 12.0 | 234 | 14 |
| 2023-08-01T00:00 | 454 | 952 | 17.7 | 11.8 | 236 | 15 |
| 2023-08-01T00:00 | 478 | 949 | 17.5 | 11.8 | 238 | 15 |
| 2023-08-01T00:00 | 506 | 946 | 17.4 | 11.7 | 241 | 16 |
| 2023-08-01T00:00 | 528 | 944 | 17.3 | 11.7 | 243 | 17 |
| 2023-08-01T00:00 | 552 | 941 | 17.1 | 11.6 | 245 | 18 |
| 2023-08-01T00:00 | 574 | 939 | 17.0 | 11.5 | 246 | 18 |
| 2023-08-01T00:00 | 601 | 936 | 16.9 | 11.6 | 246 | 18 |
| 2023-08-01T00:00 | 625 | 933 | 16.7 | 11.7 | 246 | 18 |
| 2023-08-01T00:00 | 651 | 930 | 16.5 | 11.6 | 246 | 17 |
| 2023-08-01T00:00 | 674 | 928 | 16.3 | 11.6 | 246 | 17 |
| 2023-08-01T00:00 | 697 | 925 | 16.0 | 11.5 | 246 | 17 |
| 2023-08-01T00:00 | 718 | 923 | 15.8 | 11.5 | 246 | 17 |
| 2023-08-01T00:00 | 742 | 920 | 15.6 | 11.5 | 247 | 17 |
| 2023-08-01T00:00 | 767 | 918 | 15.4 | 11.4 | 247 | 16 |
| 2023-08-01T00:00 | 789 | 915 | 15.2 | 11.4 | 247 | 16 |
| 2023-08-01T00:00 | 814 | 912 | 15.0 | 11.4 | 248 | 16 |
| 2023-08-01T00:00 | 838 | 910 | 14.8 | 11.3 | 249 | 16 |
| 2023-08-01T00:00 | 874 | 906 | 14.7 | 11.0 | 249 | 16 |
| 2023-08-01T00:00 | 896 | 904 | 14.5 | 11.0 | 249 | 15 |
| 2023-08-01T00:00 | 920 | 901 | 14.3 | 10.8 | 248 | 15 |
| 2023-08-01T00:00 | 944 | 899 | 14.1 | 10.7 | 247 | 14 |
| 2023-08-01T00:00 | 970 | 896 | 13.9 | 10.5 | 245 | 14 |
| 2023-08-01T00:00 | 995 | 893 | 13.7 | 10.3 | 245 | 13 |
| 2023-08-01T00:00 | 1016 | 891 | 13.6 | 10.4 | 245 | 12 |
| 2023-08-01T00:00 | 1033 | 889 | 13.4 | 10.2 | 246 | 12 |
| 2023-08-01T00:00 | 1052 | 887 | 13.3 | 10.3 | 248 | 11 |
| 2023-08-01T00:00 | 1076 | 885 | 13.1 | 9.9 | 249 | 11 |
| 2023-08-01T00:00 | 1104 | 882 | 13.0 | 9.7 | 250 | 11 |
| 2023-08-01T00:00 | 1132 | 879 | 12.8 | 9.6 | 250 | 11 |
| 2023-08-01T00:00 | 1160 | 876 | 12.6 | 9.4 | 249 | 12 |
| 2023-08-01T00:00 | 1183 | 874 | 12.4 | 9.2 | 249 | 12 |
| 2023-08-01T00:00 | 1205 | 871 | 12.2 | 9.0 | 249 | 12 |
| 2023-08-01T00:00 | 1233 | 868 | 12.0 | 8.9 | 249 | 12 |
| 2023-08-01T00:00 | 1259 | 866 | 11.8 | 8.8 | 249 | 12 |
| 2023-08-01T00:00 | 1279 | 864 | 11.6 | 8.7 | 248 | 13 |
| 2023-08-01T00:00 | 1297 | 862 | 11.4 | 8.6 | 245 | 13 |
| 2023-08-01T00:00 | 1317 | 860 | 11.3 | 8.6 | 242 | 13 |
| 2023-08-01T00:00 | 1335 | 858 | 11.1 | 8.6 | 239 | 14 |
| 2023-08-01T00:00 | 1353 | 856 | 10.9 | 8.5 | 237 | 13 |
| 2023-08-01T00:00 | 1376 | 854 | 10.8 | 8.5 | 236 | 13 |
| 2023-08-01T00:00 | 1400 | 851 | 10.5 | 8.2 | 236 | 13 |
| 2023-08-01T00:00 | 1429 | 848 | 10.4 | 8.1 | 237 | 12 |
| 2023-08-01T00:00 | 1457 | 845 | 10.2 | 7.8 | 237 | 12 |
| 2023-08-01T00:00 | 1480 | 843 | 10.1 | 7.7 | 236 | 11 |
| 2023-08-01T00:00 | 1497 | 841 | 9.9 | 7.5 | 234 | 11 |
| 2023-08-01T00:00 | 1528 | 838 | 9.7 | 7.3 | 233 | 11 |
| 2023-08-01T00:00 | 1550 | 836 | 9.6 | 7.2 | 232 | 10 |
| 2023-08-01T00:00 | 1571 | 834 | 9.4 | 7.2 | 231 | 10 |
| 2023-08-01T00:00 | 1592 | 832 | 9.3 | 7.1 | 230 | 10 |
| 2023-08-01T00:00 | 1611 | 830 | 9.1 | 7.1 | 228 | 11 |
| 2023-08-01T00:00 | 1632 | 828 | 8.9 | 6.9 | 227 | 12 |
| 2023-08-01T00:00 | 1651 | 826 | 8.9 | 6.8 | 226 | 12 |
| 2023-08-01T00:00 | 1668 | 824 | 8.7 | 6.7 | 225 | 12 |
| 2023-08-01T00:00 | 1690 | 822 | 8.5 | 6.7 | 227 | 11 |
| 2023-08-01T00:00 | 1710 | 820 | 8.3 | 6.5 | 230 | 11 |
| 2023-08-01T00:00 | 1728 | 818 | 8.1 | 6.5 | 233 | 11 |
| 2023-08-01T00:00 | 1748 | 816 | 8.0 | 6.5 | 235 | 11 |
| 2023-08-01T00:00 | 1769 | 814 | 7.8 | 6.3 | 236 | 12 |
| 2023-08-01T00:00 | 1795 | 812 | 7.7 | 6.2 | 235 | 12 |
| 2023-08-01T00:00 | 1821 | 809 | 7.5 | 5.7 | 235 | 12 |
| 2023-08-01T00:00 | 1847 | 806 | 7.3 | 5.5 | 234 | 12 |
| 2023-08-01T00:00 | 1874 | 804 | 7.1 | 5.6 | 234 | 12 |
| 2023-08-01T00:00 | 1896 | 802 | 6.8 | 5.6 | 234 | 11 |
| 2023-08-01T00:00 | 1917 | 800 | 6.6 | 5.7 | 234 | 11 |
| 2023-08-01T00:00 | 1937 | 798 | 6.4 | 5.7 | 234 | 12 |
| 2023-08-01T00:00 | 1956 | 796 | 6.3 | 5.7 | 234 | 12 |
| 2023-08-01T00:00 | 1984 | 793 | 6.1 | 5.6 | 233 | 12 |
| 2023-08-01T00:00 | 2009 | 791 | 5.9 | 5.6 | 233 | 13 |
| 2023-08-01T00:00 | 2032 | 788 | 5.7 | 5.2 | 232 | 13 |
| 2023-08-01T00:00 | 2061 | 786 | 5.6 | 4.9 | 232 | 13 |
| 2023-08-01T00:00 | 2086 | 783 | 5.5 | 4.8 | 233 | 13 |
| 2023-08-01T00:00 | 2112 | 781 | 5.3 | 4.6 | 234 | 12 |
| 2023-08-01T00:00 | 2130 | 779 | 5.1 | 4.4 | 234 | 12 |
| 2023-08-01T00:00 | 2155 | 777 | 4.9 | 4.2 | 234 | 13 |
| 2023-08-01T00:00 | 2183 | 774 | 4.7 | 3.9 | 233 | 13 |
| 2023-08-01T00:00 | 2218 | 771 | 4.5 | 3.7 | 232 | 13 |
| 2023-08-01T00:00 | 2246 | 768 | 4.4 | 3.7 | 229 | 14 |
| 2023-08-01T00:00 | 2271 | 766 | 4.3 | 2.8 | 227 | 14 |
| 2023-08-01T00:00 | 2294 | 764 | 4.6 | 1.9 | 225 | 14 |
| 2023-08-01T00:00 | 2321 | 761 | 4.4 | 3.3 | 225 | 14 |
| 2023-08-01T00:00 | 2351 | 758 | 4.3 | 3.7 | 226 | 13 |
| 2023-08-01T00:00 | 2389 | 755 | 4.0 | 3.5 | 230 | 13 |
| 2023-08-01T00:00 | 2419 | 752 | 3.8 | 3.4 | 235 | 13 |
| 2023-08-01T00:00 | 2441 | 750 | 3.6 | 2.9 | 239 | 13 |
| 2023-08-01T00:00 | 2464 | 748 | 3.5 | 2.8 | 242 | 13 |
| 2023-08-01T00:00 | 2493 | 745 | 3.3 | 1.9 | 242 | 13 |
| 2023-08-01T00:00 | 2523 | 743 | 3.3 | 0.4 | 240 | 12 |
| 2023-08-01T00:00 | 2552 | 740 | 4.1 | -4.1 | 237 | 12 |
| 2023-08-01T00:00 | 2583 | 737 | 4.6 | -4.7 | 234 | 13 |
| 2023-08-01T00:00 | 2616 | 734 | 4.6 | 232 | 13 | |
| 2023-08-01T00:00 | 2646 | 731 | 4.4 | -4.8 | 232 | 14 |
| 2023-08-01T00:00 | 2672 | 729 | 4.1 | -4.9 | 232 | 14 |
| 2023-08-01T00:00 | 2697 | 727 | 3.9 | -4.7 | 232 | 15 |
| 2023-08-01T00:00 | 2726 | 724 | 3.7 | -4.4 | 232 | 15 |
| 2023-08-01T00:00 | 2755 | 722 | 3.5 | -4.3 | 232 | 15 |
| 2023-08-01T00:00 | 2782 | 719 | 3.3 | -4.3 | 233 | 15 |
| 2023-08-01T00:00 | 2811 | 717 | 3.0 | -4.4 | 233 | 15 |
| 2023-08-01T00:00 | 2842 | 714 | 2.7 | -4.2 | 233 | 15 |
| 2023-08-01T00:00 | 2874 | 711 | 2.4 | -4.3 | 233 | 15 |
| 2023-08-01T00:00 | 2907 | 708 | 2.1 | -4.3 | 232 | 16 |
| 2023-08-01T00:00 | 2943 | 705 | 1.8 | -3.9 | 232 | 16 |
| 2023-08-01T00:00 | 2983 | 702 | 1.4 | -4.5 | 232 | 16 |
| 2023-08-01T00:00 | 3016 | 699 | 1.0 | -4.5 | 232 | 16 |
| 2023-08-01T00:00 | 3053 | 696 | 0.7 | -4.6 | 231 | 16 |
| 2023-08-01T00:00 | 3092 | 692 | 0.3 | -4.4 | 231 | 16 |
| 2023-08-01T00:00 | 3125 | 689 | 0.0 | -4.6 | 231 | 16 |
| 2023-08-01T00:00 | 3157 | 687 | -0.4 | -4.6 | 230 | 16 |
| 2023-08-01T00:00 | 3186 | 684 | -0.7 | -4.3 | 229 | 16 |
| 2023-08-01T00:00 | 3214 | 682 | -1.0 | -4.3 | 229 | 16 |
| 2023-08-01T00:00 | 3245 | 679 | -1.4 | -4.4 | 228 | 16 |
| 2023-08-01T00:00 | 3274 | 676 | -1.7 | -4.5 | 227 | 16 |
| 2023-08-01T00:00 | 3307 | 674 | -2.0 | -4.5 | 227 | 16 |
| 2023-08-01T00:00 | 3337 | 671 | -2.3 | -4.7 | 227 | 16 |
| 2023-08-01T00:00 | 3364 | 669 | -2.5 | -4.7 | 228 | 15 |
| 2023-08-01T00:00 | 3392 | 667 | -2.8 | -4.8 | 230 | 16 |
| 2023-08-01T00:00 | 3417 | 664 | -3.0 | -4.9 | 231 | 16 |
| 2023-08-01T00:00 | 3443 | 662 | -3.3 | -5.0 | 231 | 17 |
| 2023-08-01T00:00 | 3462 | 660 | -3.5 | -5.1 | 230 | 18 |
| 2023-08-01T00:00 | 3493 | 658 | -3.7 | -5.2 | 228 | 19 |
| 2023-08-01T00:00 | 3515 | 656 | -3.9 | -5.3 | 226 | 20 |
| 2023-08-01T00:00 | 3532 | 655 | -4.1 | -5.3 | 224 | 21 |
| 2023-08-01T00:00 | 3550 | 653 | -4.1 | -4.8 | 223 | 22 |
| 2023-08-01T00:00 | 3572 | 652 | -3.9 | -4.7 | 223 | 22 |
| 2023-08-01T00:00 | 3591 | 650 | -3.6 | 224 | 23 | |
| 2023-08-01T00:00 | 3612 | 648 | -2.8 | -3.4 | 226 | 23 |
| 2023-08-01T00:00 | 3633 | 647 | -2.4 | -2.9 | 228 | 24 |
| 2023-08-01T00:00 | 3652 | 645 | -2.4 | -2.9 | 230 | 24 |
| 2023-08-01T00:00 | 3676 | 643 | -2.5 | -3.0 | 231 | 23 |
| 2023-08-01T00:00 | 3700 | 641 | -2.6 | -3.1 | 231 | 23 |
| 2023-08-01T00:00 | 3725 | 639 | -2.8 | -3.2 | 232 | 23 |
| 2023-08-01T00:00 | 3747 | 637 | -2.8 | -3.2 | 233 | 23 |
| 2023-08-01T00:00 | 3774 | 635 | -2.8 | -3.2 | 235 | 24 |
| 2023-08-01T00:00 | 3800 | 633 | -2.9 | -3.4 | 237 | 24 |
| 2023-08-01T00:00 | 3823 | 631 | -3.0 | -3.4 | 239 | 24 |
| 2023-08-01T00:00 | 3846 | 630 | -3.1 | -3.5 | 240 | 24 |
| 2023-08-01T00:00 | 3865 | 628 | -3.1 | -3.6 | 241 | 24 |
| 2023-08-01T00:00 | 3886 | 626 | -3.2 | -3.7 | 242 | 24 |
| 2023-08-01T00:00 | 3909 | 624 | -3.3 | -3.8 | 243 | 23 |
| 2023-08-01T00:00 | 3935 | 622 | -3.6 | 244 | 23 | |
| 2023-08-01T00:00 | 3961 | 620 | -3.7 | -4.1 | 246 | 22 |
| 2023-08-01T00:00 | 3987 | 618 | -3.5 | -3.9 | 247 | 22 |
| 2023-08-01T00:00 | 4008 | 617 | -3.5 | -4.0 | 248 | 21 |
| 2023-08-01T00:00 | 4031 | 615 | -3.6 | -4.0 | 248 | 21 |
| 2023-08-01T00:00 | 4053 | 613 | -3.7 | -4.1 | 248 | 21 |
| 2023-08-01T00:00 | 4073 | 612 | -3.8 | -4.2 | 247 | 21 |
| 2023-08-01T00:00 | 4092 | 610 | -3.9 | -4.3 | 247 | 20 |
| 2023-08-01T00:00 | 4114 | 609 | -3.9 | -4.4 | 246 | 20 |
| 2023-08-01T00:00 | 4136 | 607 | -4.1 | -4.7 | 245 | 20 |
| 2023-08-01T00:00 | 4159 | 605 | -4.2 | -4.7 | 245 | 20 |
| 2023-08-01T00:00 | 4182 | 603 | -4.2 | -4.8 | 245 | 19 |
| 2023-08-01T00:00 | 4204 | 602 | -4.3 | -4.9 | 246 | 19 |
| 2023-08-01T00:00 | 4233 | 600 | -4.4 | -5.0 | 248 | 19 |
| 2023-08-01T00:00 | 4254 | 598 | -4.6 | -5.2 | 250 | 19 |
| 2023-08-01T00:00 | 4277 | 596 | -4.8 | -5.3 | 251 | 20 |
| 2023-08-01T00:00 | 4303 | 594 | -4.9 | -5.4 | 252 | 20 |
| 2023-08-01T00:00 | 4327 | 592 | -5.0 | -5.6 | 252 | 21 |
| 2023-08-01T00:00 | 4351 | 591 | -5.1 | -5.6 | 251 | 21 |
| 2023-08-01T00:00 | 4374 | 589 | -5.2 | -5.8 | 249 | 21 |
| 2023-08-01T00:00 | 4397 | 587 | -5.3 | -6.0 | 248 | 22 |
| 2023-08-01T00:00 | 4421 | 585 | -5.4 | -6.1 | 248 | 22 |
| 2023-08-01T00:00 | 4448 | 583 | -5.5 | -6.1 | 248 | 22 |
| 2023-08-01T00:00 | 4475 | 581 | -5.6 | -6.2 | 249 | 22 |
| 2023-08-01T00:00 | 4500 | 579 | -5.8 | -6.5 | 250 | 22 |
| 2023-08-01T00:00 | 4526 | 577 | -5.9 | -6.6 | 250 | 23 |
| 2023-08-01T00:00 | 4555 | 575 | -6.1 | -6.8 | 251 | 23 |
| 2023-08-01T00:00 | 4579 | 574 | -6.3 | -7.0 | 251 | 23 |
| 2023-08-01T00:00 | 4600 | 572 | -6.4 | -7.1 | 251 | 23 |
| 2023-08-01T00:00 | 4623 | 570 | -6.5 | -7.2 | 251 | 23 |
| 2023-08-01T00:00 | 4645 | 569 | -6.7 | -7.4 | 251 | 23 |
| 2023-08-01T00:00 | 4668 | 567 | -6.8 | -7.4 | 251 | 23 |
| 2023-08-01T00:00 | 4695 | 565 | -7.0 | -7.6 | 251 | 23 |
| 2023-08-01T00:00 | 4721 | 563 | -7.1 | -7.7 | 252 | 23 |
| 2023-08-01T00:00 | 4752 | 561 | -7.3 | -7.9 | 253 | 23 |
| 2023-08-01T00:00 | 4780 | 559 | -7.5 | -8.1 | 254 | 24 |
| 2023-08-01T00:00 | 4809 | 557 | -7.6 | -8.3 | 254 | 24 |
| 2023-08-01T00:00 | 4843 | 555 | -7.9 | -8.6 | 254 | 23 |
| 2023-08-01T00:00 | 4864 | 553 | -8.0 | -8.6 | 253 | 23 |
| 2023-08-01T00:00 | 4893 | 551 | -8.2 | -8.8 | 252 | 23 |
| 2023-08-01T00:00 | 4919 | 549 | -8.4 | -9.1 | 252 | 23 |
| 2023-08-01T00:00 | 4945 | 547 | -8.5 | -9.1 | 252 | 23 |
| 2023-08-01T00:00 | 4972 | 545 | -8.7 | -9.4 | 252 | 23 |
| 2023-08-01T00:00 | 5002 | 543 | -8.8 | -9.4 | 252 | 23 |
| 2023-08-01T00:00 | 5029 | 541 | -9.0 | -9.7 | 252 | 23 |
| 2023-08-01T00:00 | 5058 | 539 | -9.2 | -9.9 | 253 | 23 |
| 2023-08-01T00:00 | 5083 | 538 | -9.4 | -10.0 | 253 | 23 |
| 2023-08-01T00:00 | 5113 | 536 | -9.5 | -10.1 | 253 | 23 |
| 2023-08-01T00:00 | 5144 | 533 | -9.7 | -10.3 | 253 | 23 |
| 2023-08-01T00:00 | 5171 | 532 | -9.9 | -10.4 | 253 | 23 |
| 2023-08-01T00:00 | 5200 | 530 | -10.0 | -10.5 | 254 | 22 |
| 2023-08-01T00:00 | 5229 | 528 | -10.2 | -10.8 | 253 | 22 |
| 2023-08-01T00:00 | 5257 | 526 | -10.4 | -11.1 | 253 | 22 |
| 2023-08-01T00:00 | 5286 | 524 | -10.5 | 253 | 22 | |
| 2023-08-01T00:00 | 5316 | 522 | -10.7 | -11.3 | 253 | 21 |
| 2023-08-01T00:00 | 5343 | 520 | -10.9 | -11.5 | 253 | 21 |
| 2023-08-01T00:00 | 5368 | 518 | -11.0 | -11.7 | 253 | 21 |
| 2023-08-01T00:00 | 5395 | 516 | -11.2 | -12.0 | 254 | 21 |
| 2023-08-01T00:00 | 5429 | 514 | -11.4 | -12.2 | 254 | 21 |
| 2023-08-01T00:00 | 5458 | 512 | -11.6 | -12.3 | 254 | 22 |
| 2023-08-01T00:00 | 5484 | 510 | -11.7 | -12.4 | 254 | 22 |
| 2023-08-01T00:00 | 5514 | 508 | -11.9 | -12.6 | 254 | 23 |
| 2023-08-01T00:00 | 5538 | 507 | -12.1 | -12.8 | 254 | 23 |
| 2023-08-01T00:00 | 5564 | 505 | -12.2 | -12.9 | 254 | 23 |
| 2023-08-01T00:00 | 5588 | 503 | -12.4 | -13.0 | 254 | 23 |
| 2023-08-01T00:00 | 5615 | 502 | -12.6 | -13.2 | 254 | 23 |
| 2023-08-01T00:00 | 5641 | 500 | -12.8 | -13.5 | 254 | 23 |
| 2023-08-01T00:00 | 5670 | 498 | -12.9 | -13.6 | 253 | 23 |
| 2023-08-01T00:00 | 5700 | 496 | -13.1 | -13.8 | 252 | 23 |
| 2023-08-01T00:00 | 5724 | 495 | -13.3 | -14.1 | 251 | 23 |
| 2023-08-01T00:00 | 5751 | 493 | -13.4 | -14.2 | 250 | 23 |
| 2023-08-01T00:00 | 5775 | 491 | -13.6 | -14.4 | 250 | 23 |
| 2023-08-01T00:00 | 5806 | 489 | -13.8 | -14.6 | 250 | 23 |
| 2023-08-01T00:00 | 5832 | 488 | -14.0 | -14.8 | 250 | 23 |
| 2023-08-01T00:00 | 5862 | 486 | -14.1 | -14.9 | 251 | 23 |
| 2023-08-01T00:00 | 5892 | 484 | -14.3 | -15.1 | 251 | 23 |
| 2023-08-01T00:00 | 5916 | 482 | -14.5 | -15.3 | 251 | 23 |
| 2023-08-01T00:00 | 5941 | 481 | -14.6 | -15.4 | 250 | 23 |
| 2023-08-01T00:00 | 5968 | 479 | -14.8 | -15.7 | 249 | 23 |
| 2023-08-01T00:00 | 5990 | 477 | -14.9 | -15.8 | 249 | 24 |
| 2023-08-01T00:00 | 6017 | 476 | -15.1 | -16.0 | 248 | 24 |
| 2023-08-01T00:00 | 6054 | 474 | -15.3 | -16.3 | 249 | 23 |
| 2023-08-01T00:00 | 6083 | 472 | -15.5 | -16.6 | 249 | 23 |
| 2023-08-01T00:00 | 6110 | 470 | -15.7 | -16.7 | 250 | 24 |
| 2023-08-01T00:00 | 6139 | 468 | -15.8 | -16.9 | 251 | 24 |
| 2023-08-01T00:00 | 6168 | 466 | -16.0 | -17.1 | 252 | 24 |
| 2023-08-01T00:00 | 6202 | 464 | -16.2 | -17.3 | 253 | 24 |
| 2023-08-01T00:00 | 6226 | 463 | -16.3 | -17.6 | 253 | 23 |
| 2023-08-01T00:00 | 6255 | 461 | -16.5 | -17.6 | 253 | 23 |
| 2023-08-01T00:00 | 6289 | 459 | -16.8 | -18.0 | 253 | 23 |
| 2023-08-01T00:00 | 6314 | 457 | -17.0 | -18.2 | 253 | 22 |
| 2023-08-01T00:00 | 6336 | 456 | -17.1 | -18.3 | 253 | 22 |
| 2023-08-01T00:00 | 6362 | 455 | -17.3 | -18.5 | 253 | 22 |
| 2023-08-01T00:00 | 6389 | 453 | -17.5 | -18.7 | 252 | 22 |
| 2023-08-01T00:00 | 6414 | 451 | -17.7 | -19.0 | 251 | 23 |
| 2023-08-01T00:00 | 6441 | 450 | -17.8 | -19.2 | 250 | 23 |
| 2023-08-01T00:00 | 6469 | 448 | -18.0 | -19.3 | 249 | 22 |
| 2023-08-01T00:00 | 6496 | 446 | -18.1 | -19.5 | 248 | 22 |
| 2023-08-01T00:00 | 6523 | 445 | -18.3 | -19.8 | 248 | 22 |
| 2023-08-01T00:00 | 6555 | 443 | -18.3 | -19.7 | 248 | 23 |
| 2023-08-01T00:00 | 6583 | 441 | -18.5 | -19.9 | 250 | 23 |
| 2023-08-01T00:00 | 6608 | 440 | -18.6 | -20.0 | 252 | 23 |
| 2023-08-01T00:00 | 6639 | 438 | -18.7 | -20.2 | 253 | 23 |
| 2023-08-01T00:00 | 6669 | 436 | -18.8 | -20.4 | 255 | 23 |
| 2023-08-01T00:00 | 6692 | 435 | -18.9 | -20.4 | 256 | 23 |
| 2023-08-01T00:00 | 6717 | 433 | -18.9 | -20.4 | 256 | 23 |
| 2023-08-01T00:00 | 6743 | 432 | -19.1 | -20.7 | 256 | 23 |
| 2023-08-01T00:00 | 6765 | 431 | -19.3 | -20.9 | 256 | 23 |
| 2023-08-01T00:00 | 6790 | 429 | -19.4 | -21.0 | 256 | 23 |
| 2023-08-01T00:00 | 6819 | 428 | -19.6 | -21.2 | 256 | 23 |
| 2023-08-01T00:00 | 6844 | 426 | -19.8 | -21.4 | 256 | 23 |
| 2023-08-01T00:00 | 6871 | 425 | -19.9 | -21.5 | 256 | 23 |
| 2023-08-01T00:00 | 6902 | 423 | -20.1 | -21.7 | 256 | 23 |
| 2023-08-01T00:00 | 6935 | 421 | -20.3 | -22.1 | 256 | 23 |
| 2023-08-01T00:00 | 6953 | 420 | -20.5 | -22.1 | 256 | 23 |
| 2023-08-01T00:00 | 6985 | 418 | -20.7 | -22.4 | 256 | 23 |
| 2023-08-01T00:00 | 7013 | 416 | -20.8 | -22.5 | 256 | 23 |
| 2023-08-01T00:00 | 7051 | 415 | -21.1 | -22.9 | 255 | 23 |
| 2023-08-01T00:00 | 7072 | 413 | -21.3 | -23.0 | 255 | 23 |
| 2023-08-01T00:00 | 7105 | 411 | -21.5 | -23.2 | 255 | 24 |
| 2023-08-01T00:00 | 7131 | 410 | -21.7 | -23.5 | 254 | 24 |
| 2023-08-01T00:00 | 7161 | 408 | -21.9 | -23.7 | 253 | 24 |
| 2023-08-01T00:00 | 7188 | 407 | -22.1 | -24.0 | 253 | 24 |
| 2023-08-01T00:00 | 7212 | 405 | -22.3 | -24.1 | 252 | 24 |
| 2023-08-01T00:00 | 7242 | 404 | -22.5 | -24.3 | 252 | 24 |
| 2023-08-01T00:00 | 7275 | 402 | -22.7 | -24.5 | 253 | 24 |
| 2023-08-01T00:00 | 7304 | 400 | -22.9 | -24.8 | 254 | 24 |
| 2023-08-01T00:00 | 7338 | 399 | -23.2 | -25.1 | 255 | 24 |
| 2023-08-01T00:00 | 7366 | 397 | -23.4 | -25.2 | 256 | 24 |
| 2023-08-01T00:00 | 7397 | 395 | -23.6 | -25.5 | 257 | 23 |
| 2023-08-01T00:00 | 7427 | 394 | -23.8 | -25.7 | 257 | 23 |
| 2023-08-01T00:00 | 7457 | 392 | -24.1 | -25.9 | 257 | 23 |
| 2023-08-01T00:00 | 7486 | 390 | -24.2 | -26.0 | 256 | 23 |
| 2023-08-01T00:00 | 7518 | 389 | -24.5 | -26.3 | 256 | 23 |
| 2023-08-01T00:00 | 7559 | 387 | -24.8 | -26.7 | 256 | 23 |
| 2023-08-01T00:00 | 7583 | 385 | -24.9 | -26.7 | 256 | 23 |
| 2023-08-01T00:00 | 7606 | 384 | -25.1 | -26.9 | 257 | 23 |
| 2023-08-01T00:00 | 7639 | 382 | -25.3 | -27.1 | 258 | 23 |
| 2023-08-01T00:00 | 7670 | 381 | -25.5 | -27.3 | 259 | 24 |
| 2023-08-01T00:00 | 7703 | 379 | -25.8 | -27.8 | 260 | 25 |
| 2023-08-01T00:00 | 7728 | 378 | -25.9 | -27.8 | 261 | 26 |
| 2023-08-01T00:00 | 7763 | 376 | -26.2 | -28.0 | 261 | 26 |
| 2023-08-01T00:00 | 7799 | 374 | -26.4 | -28.3 | 261 | 26 |
| 2023-08-01T00:00 | 7822 | 373 | -26.6 | -28.6 | 261 | 26 |
| 2023-08-01T00:00 | 7856 | 371 | -26.8 | -28.8 | 260 | 26 |
| 2023-08-01T00:00 | 7892 | 369 | -27.1 | -29.1 | 260 | 26 |
| 2023-08-01T00:00 | 7922 | 368 | -27.3 | -29.2 | 260 | 25 |
| 2023-08-01T00:00 | 7960 | 366 | -27.6 | -29.6 | 260 | 25 |
| 2023-08-01T00:00 | 7985 | 364 | -27.8 | -29.8 | 260 | 24 |
| 2023-08-01T00:00 | 8012 | 363 | -28.0 | -30.0 | 260 | 24 |
| 2023-08-01T00:00 | 8041 | 362 | -28.3 | -30.3 | 260 | 24 |
| 2023-08-01T00:00 | 8075 | 360 | -28.6 | -30.7 | 259 | 24 |
| 2023-08-01T00:00 | 8104 | 359 | -28.8 | -31.0 | 258 | 24 |
| 2023-08-01T00:00 | 8129 | 357 | -29.0 | -31.1 | 257 | 24 |
| 2023-08-01T00:00 | 8165 | 355 | -29.2 | -31.4 | 257 | 24 |
| 2023-08-01T00:00 | 8203 | 354 | -29.6 | -32.0 | 257 | 24 |
| 2023-08-01T00:00 | 8226 | 352 | -29.7 | -32.0 | 258 | 24 |
| 2023-08-01T00:00 | 8255 | 351 | -30.0 | -32.2 | 259 | 25 |
| 2023-08-01T00:00 | 8282 | 350 | -30.2 | -32.4 | 260 | 25 |
| 2023-08-01T00:00 | 8313 | 348 | -30.5 | -32.8 | 261 | 26 |
| 2023-08-01T00:00 | 8353 | 346 | -30.8 | -33.2 | 261 | 26 |
| 2023-08-01T00:00 | 8384 | 345 | -31.0 | -33.3 | 261 | 26 |
| 2023-08-01T00:00 | 8421 | 343 | -31.3 | -33.6 | 261 | 26 |
| 2023-08-01T00:00 | 8462 | 341 | -31.7 | -34.1 | 261 | 26 |
| 2023-08-01T00:00 | 8487 | 340 | -31.9 | -34.3 | 261 | 26 |
| 2023-08-01T00:00 | 8509 | 339 | -32.1 | -34.4 | 261 | 26 |
| 2023-08-01T00:00 | 8531 | 338 | -32.3 | -34.5 | 261 | 27 |
| 2023-08-01T00:00 | 8554 | 336 | -32.4 | -34.7 | 261 | 27 |
| 2023-08-01T00:00 | 8579 | 335 | -32.7 | -35.0 | 261 | 27 |
| 2023-08-01T00:00 | 8606 | 334 | -32.9 | -35.2 | 261 | 27 |
| 2023-08-01T00:00 | 8645 | 332 | -33.2 | -35.5 | 260 | 27 |
| 2023-08-01T00:00 | 8677 | 331 | -33.5 | -36.0 | 260 | 27 |
| 2023-08-01T00:00 | 8698 | 330 | -33.7 | -36.0 | 260 | 27 |
| 2023-08-01T00:00 | 8725 | 328 | -33.9 | -36.1 | 261 | 28 |
| 2023-08-01T00:00 | 8759 | 327 | -34.2 | -36.3 | 262 | 28 |
| 2023-08-01T00:00 | 8795 | 325 | -34.5 | -37.0 | 262 | 29 |
| 2023-08-01T00:00 | 8819 | 324 | -34.7 | -37.0 | 263 | 29 |
| 2023-08-01T00:00 | 8852 | 323 | -35.0 | -37.2 | 264 | 29 |
| 2023-08-01T00:00 | 8889 | 321 | -35.3 | -37.5 | 264 | 28 |
| 2023-08-01T00:00 | 8925 | 319 | -35.6 | -38.2 | 264 | 28 |
| 2023-08-01T00:00 | 8948 | 318 | -35.8 | -38.2 | 263 | 28 |
| 2023-08-01T00:00 | 8973 | 317 | -36.0 | -38.2 | 262 | 28 |
| 2023-08-01T00:00 | 9000 | 316 | -36.3 | 261 | 28 | |
| 2023-08-01T00:00 | 9026 | 315 | -36.5 | -38.6 | 261 | 28 |
| 2023-08-01T00:00 | 9053 | 313 | -36.7 | -38.9 | 260 | 28 |
| 2023-08-01T00:00 | 9083 | 312 | -37.0 | -39.3 | 260 | 28 |
| 2023-08-01T00:00 | 9117 | 310 | -37.3 | -39.7 | 261 | 28 |
| 2023-08-01T00:00 | 9154 | 309 | -37.6 | -40.0 | 261 | 27 |
| 2023-08-01T00:00 | 9177 | 308 | -37.8 | -40.4 | 261 | 27 |
| 2023-08-01T00:00 | 9195 | 307 | -38.0 | -40.6 | 262 | 27 |
| 2023-08-01T00:00 | 9218 | 306 | -38.1 | -40.8 | 262 | 27 |
| 2023-08-01T00:00 | 9239 | 305 | -38.3 | -40.9 | 263 | 27 |
| 2023-08-01T00:00 | 9264 | 304 | -38.5 | -41.2 | 264 | 27 |
| 2023-08-01T00:00 | 9293 | 303 | -38.8 | -41.7 | 264 | 28 |
| 2023-08-01T00:00 | 9327 | 301 | -39.1 | -42.3 | 264 | 28 |
| 2023-08-01T00:00 | 9352 | 300 | -39.3 | -42.5 | 264 | 29 |
| 2023-08-01T00:00 | 9369 | 299 | -39.5 | -42.5 | 264 | 29 |
| 2023-08-01T00:00 | 9390 | 298 | -39.7 | -42.7 | 264 | 29 |
| 2023-08-01T00:00 | 9411 | 297 | -39.9 | -43.1 | 264 | 29 |
| 2023-08-01T00:00 | 9433 | 297 | -40.1 | -43.2 | 264 | 29 |
| 2023-08-01T00:00 | 9454 | 296 | -40.3 | -43.4 | 264 | 29 |
| 2023-08-01T00:00 | 9476 | 295 | -40.5 | -43.6 | 265 | 29 |
| 2023-08-01T00:00 | 9502 | 293 | -40.7 | -43.7 | 265 | 30 |
| 2023-08-01T00:00 | 9529 | 292 | -40.9 | -43.9 | 265 | 30 |
| 2023-08-01T00:00 | 9559 | 291 | -41.2 | -44.1 | 265 | 30 |
| 2023-08-01T00:00 | 9583 | 290 | -41.4 | -44.3 | 266 | 30 |
| 2023-08-01T00:00 | 9621 | 289 | -41.7 | -44.9 | 266 | 31 |
| 2023-08-01T00:00 | 9643 | 287 | -41.9 | -45.2 | 266 | 31 |
| 2023-08-01T00:00 | 9663 | 287 | -42.1 | -45.0 | 267 | 31 |
| 2023-08-01T00:00 | 9687 | 285 | -42.3 | -44.9 | 267 | 31 |
| 2023-08-01T00:00 | 9725 | 284 | -42.6 | -45.1 | 267 | 31 |
| 2023-08-01T00:00 | 9748 | 283 | -42.9 | -45.7 | 268 | 32 |
| 2023-08-01T00:00 | 9767 | 282 | -43.0 | -45.6 | 268 | 32 |
| 2023-08-01T00:00 | 9786 | 281 | -43.2 | -46.0 | 268 | 32 |
| 2023-08-01T00:00 | 9805 | 281 | -43.3 | -46.5 | 269 | 32 |
| 2023-08-01T00:00 | 9826 | 280 | -43.5 | -46.9 | 269 | 33 |
| 2023-08-01T00:00 | 9846 | 279 | -43.7 | -47.2 | 269 | 33 |
| 2023-08-01T00:00 | 9865 | 278 | -43.8 | -47.3 | 269 | 33 |
| 2023-08-01T00:00 | 9885 | 277 | -44.0 | 269 | 33 | |
| 2023-08-01T00:00 | 9904 | 276 | -44.2 | -47.4 | 270 | 33 |
| 2023-08-01T00:00 | 9925 | 276 | -44.4 | -47.5 | 270 | 33 |
| 2023-08-01T00:00 | 9946 | 275 | -44.6 | -47.8 | 270 | 33 |
| 2023-08-01T00:00 | 9964 | 274 | -44.7 | -47.9 | 270 | 33 |
| 2023-08-01T00:00 | 9982 | 273 | -44.9 | -48.1 | 270 | 33 |
| 2023-08-01T00:00 | 10002 | 272 | -45.1 | -48.3 | 271 | 33 |
| 2023-08-01T00:00 | 10023 | 272 | -45.3 | -48.5 | 271 | 33 |
| 2023-08-01T00:00 | 10047 | 271 | -45.5 | -48.6 | 271 | 33 |
| 2023-08-01T00:00 | 10067 | 270 | -45.7 | -48.9 | 271 | 33 |
| 2023-08-01T00:00 | 10088 | 269 | -45.8 | -49.2 | 271 | 33 |
| 2023-08-01T00:00 | 10112 | 268 | -46.0 | -49.4 | 271 | 33 |
| 2023-08-01T00:00 | 10134 | 267 | -46.2 | -49.7 | 271 | 33 |
| 2023-08-01T00:00 | 10156 | 266 | -46.4 | -50.2 | 271 | 33 |
| 2023-08-01T00:00 | 10182 | 265 | -46.7 | -50.3 | 271 | 33 |
| 2023-08-01T00:00 | 10212 | 264 | -47.0 | -50.5 | 271 | 33 |
| 2023-08-01T00:00 | 10241 | 263 | -47.2 | -50.8 | 271 | 33 |
| 2023-08-01T00:00 | 10263 | 262 | -47.4 | -51.0 | 272 | 33 |
| 2023-08-01T00:00 | 10286 | 261 | -47.7 | -51.2 | 272 | 33 |
| 2023-08-01T00:00 | 10310 | 260 | -47.9 | -51.3 | 272 | 34 |
| 2023-08-01T00:00 | 10336 | 259 | -48.1 | -51.6 | 272 | 34 |
| 2023-08-01T00:00 | 10361 | 258 | -48.3 | -51.9 | 272 | 34 |
| 2023-08-01T00:00 | 10387 | 257 | -48.5 | -52.2 | 272 | 34 |
| 2023-08-01T00:00 | 10415 | 256 | -48.8 | -52.5 | 271 | 34 |
| 2023-08-01T00:00 | 10443 | 255 | -49.1 | -52.8 | 271 | 34 |
| 2023-08-01T00:00 | 10468 | 254 | -49.3 | -53.0 | 271 | 34 |
| 2023-08-01T00:00 | 10499 | 253 | -49.6 | -53.1 | 270 | 34 |
| 2023-08-01T00:00 | 10534 | 251 | -49.9 | -53.4 | 270 | 35 |
| 2023-08-01T00:00 | 10564 | 250 | -50.2 | -53.9 | 270 | 35 |
| 2023-08-01T00:00 | 10585 | 249 | -50.4 | -54.4 | 271 | 35 |
| 2023-08-01T00:00 | 10607 | 249 | -50.6 | -54.4 | 271 | 35 |
| 2023-08-01T00:00 | 10638 | 247 | -50.9 | -54.7 | 271 | 35 |
| 2023-08-01T00:00 | 10668 | 246 | -51.2 | -55.4 | 271 | 35 |
| 2023-08-01T00:00 | 10686 | 246 | -51.4 | -55.9 | 271 | 35 |
| 2023-08-01T00:00 | 10709 | 245 | -51.6 | -56.1 | 271 | 35 |
| 2023-08-01T00:00 | 10733 | 244 | -51.8 | -56.1 | 271 | 36 |
| 2023-08-01T00:00 | 10760 | 243 | -52.0 | -56.2 | 271 | 36 |
| 2023-08-01T00:00 | 10795 | 242 | -52.3 | -56.4 | 271 | 36 |
| 2023-08-01T00:00 | 10814 | 241 | -52.5 | -56.7 | 272 | 36 |
| 2023-08-01T00:00 | 10836 | 240 | -52.7 | -56.9 | 273 | 36 |
| 2023-08-01T00:00 | 10867 | 239 | -53.0 | -57.2 | 274 | 36 |
| 2023-08-01T00:00 | 10898 | 238 | -53.2 | -57.3 | 275 | 37 |
| 2023-08-01T00:00 | 10918 | 237 | -53.3 | -57.5 | 276 | 37 |
| 2023-08-01T00:00 | 10941 | 236 | -53.5 | -57.7 | 276 | 38 |
| 2023-08-01T00:00 | 10973 | 235 | -53.7 | -57.9 | 276 | 39 |
| 2023-08-01T00:00 | 11009 | 234 | -53.9 | -58.1 | 276 | 40 |
| 2023-08-01T00:00 | 11044 | 232 | -54.1 | -58.4 | 277 | 40 |
| 2023-08-01T00:00 | 11072 | 231 | -54.3 | -58.6 | 277 | 41 |
| 2023-08-01T00:00 | 11095 | 231 | -54.5 | -58.7 | 278 | 42 |
| 2023-08-01T00:00 | 11115 | 230 | -54.6 | -58.7 | 278 | 42 |
| 2023-08-01T00:00 | 11138 | 229 | -54.7 | -58.8 | 278 | 43 |
| 2023-08-01T00:00 | 11166 | 228 | -54.9 | -59.0 | 278 | 44 |
| 2023-08-01T00:00 | 11197 | 227 | -55.1 | -59.3 | 278 | 44 |
| 2023-08-01T00:00 | 11220 | 226 | -55.3 | -59.6 | 278 | 44 |
| 2023-08-01T00:00 | 11243 | 225 | -55.5 | -59.7 | 277 | 44 |
| 2023-08-01T00:00 | 11268 | 224 | -55.7 | -59.9 | 277 | 44 |
| 2023-08-01T00:00 | 11291 | 224 | -55.9 | -60.0 | 277 | 45 |
| 2023-08-01T00:00 | 11310 | 223 | -56.1 | -60.2 | 276 | 45 |
| 2023-08-01T00:00 | 11332 | 222 | -56.3 | -60.4 | 276 | 45 |
| 2023-08-01T00:00 | 11353 | 221 | -56.4 | -60.5 | 276 | 45 |
| 2023-08-01T00:00 | 11376 | 221 | -56.6 | -60.5 | 276 | 45 |
| 2023-08-01T00:00 | 11397 | 220 | -56.7 | -60.1 | 277 | 45 |
| 2023-08-01T00:00 | 11419 | 219 | -56.8 | -59.6 | 277 | 46 |
| 2023-08-01T00:00 | 11441 | 218 | -56.9 | -59.3 | 277 | 46 |
| 2023-08-01T00:00 | 11459 | 218 | -57.0 | -59.3 | 277 | 46 |
| 2023-08-01T00:00 | 11482 | 217 | -57.2 | -59.4 | 278 | 46 |
| 2023-08-01T00:00 | 11502 | 216 | -57.3 | -59.6 | 278 | 46 |
| 2023-08-01T00:00 | 11525 | 215 | -57.5 | -60.1 | 278 | 47 |
| 2023-08-01T00:00 | 11545 | 215 | -57.7 | -60.5 | 278 | 47 |
| 2023-08-01T00:00 | 11567 | 214 | -57.8 | -60.5 | 277 | 47 |
| 2023-08-01T00:00 | 11586 | 213 | -57.9 | -60.5 | 277 | 48 |
| 2023-08-01T00:00 | 11606 | 213 | -57.9 | -60.6 | 277 | 47 |
| 2023-08-01T00:00 | 11626 | 212 | -58.0 | -60.8 | 277 | 47 |
| 2023-08-01T00:00 | 11648 | 211 | -58.1 | -60.8 | 277 | 47 |
| 2023-08-01T00:00 | 11668 | 211 | -58.2 | -60.4 | 277 | 47 |
| 2023-08-01T00:00 | 11688 | 210 | -58.4 | -60.2 | 276 | 47 |
| 2023-08-01T00:00 | 11710 | 209 | -58.5 | -60.1 | 276 | 47 |
| 2023-08-01T00:00 | 11730 | 209 | -58.6 | -60.1 | 276 | 47 |
| 2023-08-01T00:00 | 11749 | 208 | -58.6 | -60.3 | 276 | 47 |
| 2023-08-01T00:00 | 11769 | 207 | -58.7 | -60.9 | 277 | 46 |
| 2023-08-01T00:00 | 11792 | 207 | -58.6 | -62.0 | 278 | 46 |
| 2023-08-01T00:00 | 11812 | 206 | -58.5 | -64.0 | 279 | 45 |
| 2023-08-01T00:00 | 11833 | 205 | -58.2 | -66.4 | 281 | 44 |
| 2023-08-01T00:00 | 11857 | 204 | -58.1 | 283 | 43 | |
| 2023-08-01T00:00 | 11888 | 203 | -57.0 | -69.9 | 284 | 42 |
| 2023-08-01T00:00 | 11912 | 203 | -56.7 | -70.7 | 285 | 40 |
| 2023-08-01T00:00 | 11945 | 201 | -56.6 | -71.1 | 285 | 38 |
| 2023-08-01T00:00 | 11985 | 200 | -56.4 | -71.4 | 285 | 36 |
| 2023-08-01T00:00 | 12019 | 199 | -56.4 | -71.8 | 284 | 34 |
| 2023-08-01T00:00 | 12059 | 198 | -55.9 | -72.1 | 283 | 32 |
| 2023-08-01T00:00 | 12087 | 197 | -55.3 | -72.0 | 281 | 30 |
| 2023-08-01T00:00 | 12112 | 196 | -55.3 | -72.2 | 278 | 29 |
| 2023-08-01T00:00 | 12143 | 195 | -55.3 | -72.2 | 276 | 28 |
| 2023-08-01T00:00 | 12165 | 195 | -55.0 | -72.1 | 273 | 27 |
| 2023-08-01T00:00 | 12190 | 194 | -54.8 | -72.0 | 272 | 26 |
| 2023-08-01T00:00 | 12211 | 193 | -54.8 | -71.9 | 271 | 25 |
| 2023-08-01T00:00 | 12250 | 192 | -54.8 | -71.9 | 271 | 25 |
| 2023-08-01T00:00 | 12276 | 191 | -54.8 | -72.2 | 271 | 24 |
| 2023-08-01T00:00 | 12293 | 191 | -54.7 | -72.4 | 270 | 23 |
| 2023-08-01T00:00 | 12311 | 190 | -54.6 | -72.6 | 268 | 23 |
| 2023-08-01T00:00 | 12327 | 190 | -54.4 | -73.0 | 266 | 23 |
| 2023-08-01T00:00 | 12346 | 189 | -54.1 | -73.5 | 265 | 23 |
| 2023-08-01T00:00 | 12366 | 189 | -53.8 | -74.4 | 265 | 23 |
| 2023-08-01T00:00 | 12385 | 188 | -53.5 | -74.9 | 265 | 24 |
| 2023-08-01T00:00 | 12407 | 188 | -53.1 | -74.6 | 266 | 24 |
| 2023-08-01T00:00 | 12426 | 187 | -52.8 | -74.2 | 266 | 24 |
| 2023-08-01T00:00 | 12446 | 186 | -52.7 | -74.2 | 267 | 24 |
| 2023-08-01T00:00 | 12465 | 186 | -52.7 | -74.5 | 268 | 24 |
| 2023-08-01T00:00 | 12483 | 185 | -52.5 | -74.8 | 269 | 24 |
| 2023-08-01T00:00 | 12503 | 185 | -52.3 | -74.9 | 270 | 23 |
| 2023-08-01T00:00 | 12522 | 184 | -52.4 | -75.3 | 270 | 23 |
| 2023-08-01T00:00 | 12541 | 184 | -52.3 | -75.2 | 270 | 23 |
| 2023-08-01T00:00 | 12560 | 183 | -52.2 | -75.1 | 271 | 22 |
| 2023-08-01T00:00 | 12580 | 182 | -52.2 | -75.5 | 272 | 22 |
| 2023-08-01T00:00 | 12608 | 182 | -52.2 | -76.2 | 273 | 21 |
| 2023-08-01T00:00 | 12640 | 181 | -51.3 | -76.2 | 273 | 20 |
| 2023-08-01T00:00 | 12662 | 180 | -50.9 | -76.1 | 272 | 20 |
| 2023-08-01T00:00 | 12682 | 180 | -50.9 | -76.1 | 271 | 19 |
| 2023-08-01T00:00 | 12702 | 179 | -50.9 | -76.4 | 269 | 19 |
| 2023-08-01T00:00 | 12721 | 179 | -50.9 | -76.6 | 268 | 19 |
| 2023-08-01T00:00 | 12743 | 178 | -50.7 | -76.7 | 267 | 19 |
| 2023-08-01T00:00 | 12762 | 177 | -50.8 | -77.0 | 266 | 19 |
| 2023-08-01T00:00 | 12782 | 177 | -50.9 | -76.8 | 265 | 19 |
| 2023-08-01T00:00 | 12802 | 176 | -51.0 | -76.9 | 264 | 19 |
| 2023-08-01T00:00 | 12823 | 176 | -51.1 | -77.2 | 263 | 19 |
| 2023-08-01T00:00 | 12843 | 175 | -51.2 | -77.3 | 262 | 19 |
| 2023-08-01T00:00 | 12866 | 175 | -51.4 | -77.7 | 261 | 20 |
| 2023-08-01T00:00 | 12883 | 174 | -51.5 | -77.8 | 261 | 20 |
| 2023-08-01T00:00 | 12904 | 174 | -51.5 | -77.8 | 261 | 20 |
| 2023-08-01T00:00 | 12922 | 173 | -51.6 | -77.9 | 261 | 21 |
| 2023-08-01T00:00 | 12941 | 173 | -51.6 | -78.1 | 261 | 21 |
| 2023-08-01T00:00 | 12962 | 172 | -51.7 | -78.5 | 262 | 20 |
| 2023-08-01T00:00 | 12982 | 172 | -51.5 | -78.6 | 263 | 20 |
| 2023-08-01T00:00 | 13001 | 171 | -51.1 | -78.6 | 264 | 20 |
| 2023-08-01T00:00 | 13021 | 171 | -50.5 | -78.5 | 265 | 20 |
| 2023-08-01T00:00 | 13040 | 170 | -50.4 | -78.4 | 266 | 20 |
| 2023-08-01T00:00 | 13062 | 170 | -50.4 | -78.7 | 268 | 20 |
| 2023-08-01T00:00 | 13079 | 169 | -50.3 | -78.7 | 269 | 21 |
| 2023-08-01T00:00 | 13098 | 169 | -50.3 | -79.0 | 270 | 21 |
| 2023-08-01T00:00 | 13121 | 168 | -50.1 | -78.9 | 272 | 21 |
| 2023-08-01T00:00 | 13138 | 168 | -50.0 | -78.8 | 273 | 21 |
| 2023-08-01T00:00 | 13158 | 167 | -49.9 | -79.1 | 274 | 21 |
| 2023-08-01T00:00 | 13177 | 167 | -49.7 | -78.9 | 274 | 20 |
| 2023-08-01T00:00 | 13195 | 166 | -49.6 | -78.8 | 274 | 20 |
| 2023-08-01T00:00 | 13216 | 166 | -49.6 | -78.8 | 274 | 19 |
| 2023-08-01T00:00 | 13236 | 165 | -49.5 | -78.8 | 274 | 19 |
| 2023-08-01T00:00 | 13255 | 165 | -49.6 | -78.8 | 273 | 18 |
| 2023-08-01T00:00 | 13274 | 164 | -49.5 | -78.8 | 272 | 18 |
| 2023-08-01T00:00 | 13298 | 164 | -49.6 | -78.8 | 271 | 18 |
| 2023-08-01T00:00 | 13316 | 163 | -49.7 | -78.9 | 270 | 17 |
| 2023-08-01T00:00 | 13338 | 162 | -49.9 | -79.1 | 269 | 17 |
| 2023-08-01T00:00 | 13358 | 162 | -50.1 | -79.2 | 268 | 17 |
| 2023-08-01T00:00 | 13378 | 161 | -50.3 | -79.4 | 267 | 17 |
| 2023-08-01T00:00 | 13396 | 161 | -50.4 | -79.5 | 266 | 17 |
| 2023-08-01T00:00 | 13416 | 161 | -50.6 | -79.2 | 267 | 17 |
| 2023-08-01T00:00 | 13436 | 160 | -50.6 | -79.2 | 267 | 18 |
| 2023-08-01T00:00 | 13455 | 160 | -50.5 | -79.5 | 267 | 18 |
| 2023-08-01T00:00 | 13477 | 159 | -50.4 | -79.5 | 268 | 18 |
| 2023-08-01T00:00 | 13496 | 159 | -50.2 | -79.3 | 268 | 18 |
| 2023-08-01T00:00 | 13516 | 158 | -50.2 | -79.7 | 267 | 18 |
| 2023-08-01T00:00 | 13541 | 158 | -50.2 | -79.7 | 267 | 18 |
| 2023-08-01T00:00 | 13559 | 157 | -50.0 | -79.5 | 266 | 17 |
| 2023-08-01T00:00 | 13580 | 157 | -49.7 | -79.7 | 265 | 17 |
| 2023-08-01T00:00 | 13600 | 156 | -49.9 | -79.9 | 264 | 17 |
| 2023-08-01T00:00 | 13621 | 156 | -50.0 | -80.0 | 262 | 17 |
| 2023-08-01T00:00 | 13641 | 155 | -49.9 | -79.9 | 261 | 17 |
| 2023-08-01T00:00 | 13660 | 155 | -50.0 | -79.5 | 260 | 17 |
| 2023-08-01T00:00 | 13680 | 154 | -50.0 | -79.5 | 259 | 17 |
| 2023-08-01T00:00 | 13698 | 154 | -50.1 | -79.6 | 259 | 17 |
| 2023-08-01T00:00 | 13718 | 153 | -50.3 | -79.8 | 258 | 18 |
| 2023-08-01T00:00 | 13737 | 153 | -50.3 | -79.8 | 259 | 18 |
| 2023-08-01T00:00 | 13756 | 152 | -50.4 | -79.8 | 259 | 19 |
| 2023-08-01T00:00 | 13775 | 152 | -50.5 | -79.9 | 259 | 19 |
| 2023-08-01T00:00 | 13794 | 152 | -50.4 | -80.3 | 260 | 19 |
| 2023-08-01T00:00 | 13811 | 151 | -50.4 | -80.3 | 260 | 19 |
| 2023-08-01T00:00 | 13831 | 151 | -50.1 | -80.0 | 260 | 19 |
| 2023-08-01T00:00 | 13849 | 150 | -50.1 | -80.0 | 261 | 18 |
| 2023-08-01T00:00 | 13867 | 150 | -50.1 | -80.0 | 261 | 18 |
| 2023-08-01T00:00 | 13887 | 149 | -49.8 | -79.8 | 262 | 18 |
| 2023-08-01T00:00 | 13906 | 149 | -49.7 | -79.7 | 263 | 17 |
| 2023-08-01T00:00 | 13924 | 149 | -49.7 | -79.7 | 265 | 17 |
| 2023-08-01T00:00 | 13944 | 148 | -49.8 | -79.8 | 266 | 17 |
| 2023-08-01T00:00 | 13965 | 148 | -49.9 | -79.9 | 267 | 17 |
| 2023-08-01T00:00 | 13984 | 147 | -50.1 | -80.0 | 268 | 17 |
| 2023-08-01T00:00 | 14005 | 147 | -50.1 | -79.6 | 269 | 17 |
| 2023-08-01T00:00 | 14024 | 146 | -50.0 | -79.5 | 269 | 17 |
| 2023-08-01T00:00 | 14042 | 146 | -50.0 | -80.0 | 269 | 17 |
| 2023-08-01T00:00 | 14064 | 145 | -50.0 | -80.0 | 268 | 17 |
| 2023-08-01T00:00 | 14082 | 145 | -50.0 | -80.0 | 268 | 17 |
| 2023-08-01T00:00 | 14102 | 145 | -50.1 | -80.0 | 268 | 17 |
| 2023-08-01T00:00 | 14122 | 144 | -50.1 | -80.0 | 268 | 16 |
| 2023-08-01T00:00 | 14140 | 144 | -50.0 | -80.0 | 268 | 16 |
| 2023-08-01T00:00 | 14159 | 143 | -49.8 | -79.8 | 268 | 15 |
| 2023-08-01T00:00 | 14178 | 143 | -49.7 | -79.7 | 267 | 15 |
| 2023-08-01T00:00 | 14199 | 142 | -49.8 | -79.8 | 266 | 15 |
| 2023-08-01T00:00 | 14220 | 142 | -49.9 | -79.9 | 265 | 14 |
| 2023-08-01T00:00 | 14240 | 142 | -50.0 | -80.0 | 264 | 14 |
| 2023-08-01T00:00 | 14259 | 141 | -50.1 | -80.0 | 263 | 15 |
| 2023-08-01T00:00 | 14276 | 141 | -50.1 | -80.0 | 263 | 15 |
| 2023-08-01T00:00 | 14297 | 140 | -50.2 | -80.1 | 263 | 15 |
| 2023-08-01T00:00 | 14315 | 140 | -50.0 | -80.0 | 263 | 16 |
| 2023-08-01T00:00 | 14333 | 139 | -50.0 | -80.0 | 263 | 16 |
| 2023-08-01T00:00 | 14355 | 139 | -50.1 | -80.0 | 264 | 16 |
| 2023-08-01T00:00 | 14374 | 139 | -50.2 | -80.1 | 264 | 16 |
| 2023-08-01T00:00 | 14393 | 138 | -50.1 | -80.0 | 265 | 16 |
| 2023-08-01T00:00 | 14412 | 138 | -50.1 | -80.0 | 266 | 16 |
| 2023-08-01T00:00 | 14432 | 137 | -50.3 | -80.2 | 266 | 17 |
| 2023-08-01T00:00 | 14455 | 137 | -50.4 | -80.3 | 266 | 17 |
| 2023-08-01T00:00 | 14474 | 137 | -50.6 | -80.4 | 267 | 17 |
| 2023-08-01T00:00 | 14495 | 136 | -50.6 | -80.4 | 267 | 17 |
| 2023-08-01T00:00 | 14516 | 136 | -50.7 | -80.5 | 268 | 17 |
| 2023-08-01T00:00 | 14533 | 135 | -50.7 | -80.5 | 270 | 17 |
| 2023-08-01T00:00 | 14555 | 135 | -50.8 | -80.6 | 272 | 17 |
| 2023-08-01T00:00 | 14579 | 134 | -50.7 | -80.5 | 274 | 16 |
| 2023-08-01T00:00 | 14597 | 134 | -50.6 | -80.4 | 275 | 16 |
| 2023-08-01T00:00 | 14615 | 134 | -50.5 | -80.8 | 275 | 15 |
| 2023-08-01T00:00 | 14635 | 133 | -50.4 | -80.7 | 275 | 15 |
| 2023-08-01T00:00 | 14654 | 133 | -50.6 | -80.9 | 274 | 14 |
| 2023-08-01T00:00 | 14673 | 132 | -50.6 | -80.9 | 272 | 14 |
| 2023-08-01T00:00 | 14694 | 132 | -50.6 | -80.9 | 271 | 13 |
| 2023-08-01T00:00 | 14712 | 132 | -50.5 | -80.8 | 269 | 13 |
| 2023-08-01T00:00 | 14732 | 131 | -50.4 | -80.7 | 267 | 12 |
| 2023-08-01T00:00 | 14754 | 131 | -50.3 | -80.6 | 265 | 12 |
| 2023-08-01T00:00 | 14773 | 130 | -50.2 | -81.0 | 264 | 12 |
| 2023-08-01T00:00 | 14794 | 130 | -50.3 | -81.1 | 264 | 12 |
| 2023-08-01T00:00 | 14815 | 130 | -50.1 | -81.0 | 265 | 12 |
| 2023-08-01T00:00 | 14836 | 129 | -50.0 | -80.9 | 265 | 12 |
| 2023-08-01T00:00 | 14855 | 129 | -50.1 | -81.0 | 266 | 12 |
| 2023-08-01T00:00 | 14874 | 128 | -50.0 | -80.9 | 266 | 12 |
| 2023-08-01T00:00 | 14896 | 128 | -50.0 | -80.9 | 266 | 12 |
| 2023-08-01T00:00 | 14917 | 128 | -50.1 | -81.0 | 266 | 12 |
| 2023-08-01T00:00 | 14938 | 127 | -50.0 | -80.9 | 265 | 11 |
| 2023-08-01T00:00 | 14959 | 127 | -49.8 | -80.8 | 265 | 11 |
| 2023-08-01T00:00 | 14981 | 126 | -49.9 | -80.8 | 265 | 11 |
| 2023-08-01T00:00 | 15000 | 126 | -50.0 | -80.9 | 265 | 11 |
| 2023-08-01T00:00 | 15018 | 126 | -50.1 | -81.0 | 266 | 12 |
| 2023-08-01T00:00 | 15039 | 125 | -50.2 | -81.0 | 267 | 12 |
| 2023-08-01T00:00 | 15061 | 125 | -50.1 | -81.0 | 268 | 12 |
| 2023-08-01T00:00 | 15082 | 124 | -50.0 | -80.9 | 269 | 12 |
| 2023-08-01T00:00 | 15104 | 124 | -50.1 | -81.0 | 270 | 12 |
| 2023-08-01T00:00 | 15125 | 124 | -50.1 | -81.0 | 270 | 12 |
| 2023-08-01T00:00 | 15145 | 123 | -50.1 | -81.0 | 270 | 12 |
| 2023-08-01T00:00 | 15164 | 123 | -50.1 | -81.0 | 270 | 12 |
| 2023-08-01T00:00 | 15186 | 122 | -50.2 | -81.0 | 270 | 12 |
| 2023-08-01T00:00 | 15206 | 122 | -50.0 | -81.4 | 270 | 13 |
| 2023-08-01T00:00 | 15228 | 122 | -49.9 | -81.3 | 270 | 13 |
| 2023-08-01T00:00 | 15249 | 121 | -49.9 | -81.3 | 269 | 13 |
| 2023-08-01T00:00 | 15270 | 121 | -49.7 | -81.2 | 268 | 12 |
| 2023-08-01T00:00 | 15290 | 121 | -49.6 | -81.1 | 267 | 12 |
| 2023-08-01T00:00 | 15309 | 120 | -49.5 | -81.1 | 267 | 12 |
| 2023-08-01T00:00 | 15328 | 120 | -49.7 | -81.2 | 266 | 12 |
| 2023-08-01T00:00 | 15350 | 119 | -49.8 | -81.3 | 267 | 11 |
| 2023-08-01T00:00 | 15368 | 119 | -49.9 | -81.3 | 269 | 11 |
| 2023-08-01T00:00 | 15390 | 119 | -49.9 | -81.3 | 271 | 11 |
| 2023-08-01T00:00 | 15410 | 118 | -49.7 | -81.2 | 273 | 11 |
| 2023-08-01T00:00 | 15428 | 118 | -49.7 | -81.2 | 274 | 10 |
| 2023-08-01T00:00 | 15449 | 118 | -49.7 | -81.8 | 275 | 10 |
| 2023-08-01T00:00 | 15470 | 117 | -49.7 | -81.8 | 276 | 9 |
| 2023-08-01T00:00 | 15488 | 117 | -49.6 | -81.7 | 276 | 9 |
| 2023-08-01T00:00 | 15507 | 117 | -49.6 | -81.7 | 277 | 9 |
| 2023-08-01T00:00 | 15525 | 116 | -49.6 | -81.7 | 278 | 8 |
| 2023-08-01T00:00 | 15547 | 116 | -49.7 | -81.8 | 280 | 8 |
| 2023-08-01T00:00 | 15563 | 116 | -49.7 | -81.2 | 282 | 8 |
| 2023-08-01T00:00 | 15583 | 115 | -49.8 | -81.3 | 283 | 8 |
| 2023-08-01T00:00 | 15603 | 115 | -49.9 | -81.3 | 283 | 7 |
| 2023-08-01T00:00 | 15625 | 115 | -50.0 | -81.4 | 282 | 7 |
| 2023-08-01T00:00 | 15642 | 114 | -50.0 | -82.0 | 280 | 6 |
| 2023-08-01T00:00 | 15664 | 114 | -50.0 | -82.0 | 276 | 6 |
| 2023-08-01T00:00 | 15682 | 113 | -49.8 | -81.8 | 271 | 6 |
| 2023-08-01T00:00 | 15701 | 113 | -49.9 | -81.9 | 267 | 6 |
| 2023-08-01T00:00 | 15719 | 113 | -50.0 | -82.0 | 262 | 6 |
| 2023-08-01T00:00 | 15739 | 113 | -50.1 | -82.1 | 258 | 6 |
| 2023-08-01T00:00 | 15758 | 112 | -50.2 | -82.1 | 254 | 6 |
| 2023-08-01T00:00 | 15777 | 112 | -50.2 | 251 | 6 | |
| 2023-08-01T00:00 | 15796 | 112 | -50.3 | -81.6 | 249 | 6 |
| 2023-08-01T00:00 | 15816 | 111 | -50.4 | -81.7 | 248 | 6 |
| 2023-08-01T00:00 | 15836 | 111 | -50.5 | -81.8 | 248 | 7 |
| 2023-08-01T00:00 | 15856 | 111 | -50.6 | -81.9 | 249 | 7 |
| 2023-08-01T00:00 | 15874 | 110 | -50.6 | -81.9 | 249 | 7 |
| 2023-08-01T00:00 | 15895 | 110 | -50.6 | -81.9 | 248 | 7 |
| 2023-08-01T00:00 | 15915 | 110 | -50.6 | -82.4 | 246 | 7 |
| 2023-08-01T00:00 | 15935 | 109 | -50.6 | -82.4 | 244 | 7 |
| 2023-08-01T00:00 | 15954 | 109 | -50.5 | 242 | 7 | |
| 2023-08-01T00:00 | 15975 | 108 | -50.5 | 242 | 7 | |
| 2023-08-01T00:00 | 15996 | 108 | -50.3 | -82.2 | 242 | 8 |
| 2023-08-01T00:00 | 16015 | 108 | -50.2 | -82.1 | 243 | 8 |
| 2023-08-01T00:00 | 16037 | 107 | -50.4 | -82.3 | 245 | 9 |
| 2023-08-01T00:00 | 16057 | 107 | -50.6 | -82.4 | 247 | 9 |
| 2023-08-01T00:00 | 16077 | 107 | -50.7 | -82.5 | 249 | 10 |
| 2023-08-01T00:00 | 16095 | 106 | -50.7 | 251 | 10 | |
| 2023-08-01T00:00 | 16119 | 106 | -50.7 | 254 | 10 | |
| 2023-08-01T00:00 | 16139 | 106 | -50.7 | 257 | 10 | |
| 2023-08-01T00:00 | 16159 | 105 | -50.8 | -82.6 | 260 | 10 |
| 2023-08-01T00:00 | 16179 | 105 | -50.7 | -82.5 | 263 | 10 |
| 2023-08-01T00:00 | 16200 | 105 | -50.6 | -82.4 | 265 | 9 |
| 2023-08-01T00:00 | 16226 | 104 | -50.4 | -82.3 | 266 | 9 |
| 2023-08-01T00:00 | 16247 | 104 | -50.5 | 266 | 9 | |
| 2023-08-01T00:00 | 16269 | 104 | -50.5 | 266 | 9 | |
| 2023-08-01T00:00 | 16292 | 103 | -50.4 | -82.3 | 265 | 9 |
| 2023-08-01T00:00 | 16311 | 103 | -50.5 | 264 | 9 | |
| 2023-08-01T00:00 | 16334 | 103 | -50.6 | -82.4 | 263 | 9 |
| 2023-08-01T00:00 | 16357 | 102 | -50.6 | -82.4 | 263 | 9 |
| 2023-08-01T00:00 | 16380 | 102 | -50.6 | -82.4 | 263 | 9 |
| 2023-08-01T00:00 | 16402 | 102 | -50.6 | -82.4 | 263 | 9 |
| 2023-08-01T00:00 | 16421 | 101 | -50.6 | -82.4 | 263 | 8 |
| 2023-08-01T00:00 | 16443 | 101 | -50.6 | -82.4 | 264 | 8 |
| 2023-08-01T00:00 | 16469 | 101 | -50.6 | -82.4 | 265 | 8 |
| 2023-08-01T00:00 | 16488 | 100 | -50.6 | -82.4 | 265 | 7 |
| 2023-08-01T00:00 | 16512 | 100 | -50.7 | -82.5 | 265 | 7 |
| 2023-08-01T00:00 | 16530 | 100 | -50.7 | -82.5 | 263 | 6 |
| 2023-08-01T00:00 | 16554 | 99 | -50.7 | -82.5 | 261 | 7 |
| 2023-08-01T00:00 | 16571 | 99 | -50.8 | -82.6 | 260 | 7 |
| 2023-08-01T00:00 | 16595 | 99 | -50.9 | -82.1 | 258 | 7 |
| 2023-08-01T00:00 | 16617 | 98 | -50.9 | -82.1 | 258 | 7 |
| 2023-08-01T00:00 | 16639 | 98 | -51.0 | -82.2 | 258 | 8 |
| 2023-08-01T00:00 | 16661 | 98 | -51.1 | -82.2 | 258 | 8 |
| 2023-08-01T00:00 | 16684 | 97 | -51.2 | -82.3 | 258 | 8 |
| 2023-08-01T00:00 | 16704 | 97 | -51.3 | -82.9 | 257 | 8 |
| 2023-08-01T00:00 | 16728 | 97 | -51.3 | -82.9 | 256 | 8 |
| 2023-08-01T00:00 | 16747 | 96 | -51.4 | -83.0 | 254 | 8 |
| 2023-08-01T00:00 | 16773 | 96 | -51.1 | -82.8 | 251 | 8 |
| 2023-08-01T00:00 | 16797 | 96 | -50.9 | -82.7 | 247 | 7 |
| 2023-08-01T00:00 | 16820 | 95 | -51.0 | -82.7 | 243 | 7 |
| 2023-08-01T00:00 | 16838 | 95 | -51.1 | -82.8 | 240 | 7 |
| 2023-08-01T00:00 | 16862 | 95 | -51.3 | -82.9 | 238 | 8 |
| 2023-08-01T00:00 | 16885 | 94 | -51.3 | -82.9 | 237 | 8 |
| 2023-08-01T00:00 | 16906 | 94 | -51.3 | -82.4 | 237 | 8 |
| 2023-08-01T00:00 | 16928 | 94 | -51.4 | -82.5 | 239 | 8 |
| 2023-08-01T00:00 | 16950 | 93 | -51.4 | -82.5 | 242 | 8 |
| 2023-08-01T00:00 | 16973 | 93 | -51.6 | -82.6 | 246 | 8 |
| 2023-08-01T00:00 | 16995 | 93 | -51.7 | -82.7 | 250 | 8 |
| 2023-08-01T00:00 | 17016 | 92 | -51.8 | -82.8 | 254 | 9 |
| 2023-08-01T00:00 | 17040 | 92 | -51.9 | -82.8 | 257 | 9 |
| 2023-08-01T00:00 | 17062 | 92 | -51.9 | -83.4 | 259 | 9 |
| 2023-08-01T00:00 | 17084 | 91 | -51.6 | -83.2 | 260 | 9 |
| 2023-08-01T00:00 | 17108 | 91 | -51.6 | -83.2 | 261 | 9 |
| 2023-08-01T00:00 | 17132 | 91 | -51.5 | -83.1 | 260 | 8 |
| 2023-08-01T00:00 | 17152 | 91 | -51.2 | -82.9 | 259 | 8 |
| 2023-08-01T00:00 | 17177 | 90 | -50.9 | -82.7 | 256 | 8 |
| 2023-08-01T00:00 | 17199 | 90 | -50.9 | -82.7 | 253 | 7 |
| 2023-08-01T00:00 | 17222 | 90 | -51.0 | -82.7 | 250 | 7 |
| 2023-08-01T00:00 | 17245 | 89 | -51.1 | -82.8 | 248 | 7 |
| 2023-08-01T00:00 | 17266 | 89 | -51.2 | -82.9 | 245 | 6 |
| 2023-08-01T00:00 | 17286 | 89 | -51.2 | -82.9 | 242 | 6 |
| 2023-08-01T00:00 | 17307 | 88 | -51.3 | -82.9 | 238 | 5 |
| 2023-08-01T00:00 | 17328 | 88 | -51.5 | -83.1 | 236 | 5 |
| 2023-08-01T00:00 | 17350 | 88 | -51.6 | -83.2 | 236 | 5 |
| 2023-08-01T00:00 | 17369 | 88 | -51.8 | -83.3 | 239 | 5 |
| 2023-08-01T00:00 | 17391 | 87 | -51.8 | -83.3 | 243 | 6 |
| 2023-08-01T00:00 | 17416 | 87 | -51.8 | -83.3 | 247 | 6 |
| 2023-08-01T00:00 | 17436 | 87 | -51.8 | -83.3 | 250 | 7 |
| 2023-08-01T00:00 | 17455 | 86 | -51.8 | -83.3 | 253 | 7 |
| 2023-08-01T00:00 | 17477 | 86 | -51.9 | -83.4 | 255 | 7 |
| 2023-08-01T00:00 | 17498 | 86 | -51.9 | -83.4 | 258 | 8 |
| 2023-08-01T00:00 | 17518 | 86 | -51.7 | -83.2 | 261 | 8 |
| 2023-08-01T00:00 | 17540 | 85 | -51.6 | -83.2 | 265 | 8 |
| 2023-08-01T00:00 | 17560 | 85 | -51.7 | -83.2 | 268 | 9 |
| 2023-08-01T00:00 | 17584 | 85 | -51.8 | -83.3 | 271 | 9 |
| 2023-08-01T00:00 | 17604 | 84 | -51.9 | -83.4 | 273 | 9 |
| 2023-08-01T00:00 | 17625 | 84 | -51.8 | -83.3 | 275 | 9 |
| 2023-08-01T00:00 | 17652 | 84 | -51.5 | -83.1 | 276 | 8 |
| 2023-08-01T00:00 | 17676 | 84 | -50.9 | -83.3 | 277 | 8 |
| 2023-08-01T00:00 | 17692 | 83 | -50.7 | -83.1 | 278 | 7 |
| 2023-08-01T00:00 | 17717 | 83 | -50.8 | -83.2 | 278 | 7 |
| 2023-08-01T00:00 | 17736 | 83 | -50.6 | -83.1 | 278 | 6 |
| 2023-08-01T00:00 | 17762 | 82 | -50.6 | -83.1 | 278 | 6 |
| 2023-08-01T00:00 | 17781 | 82 | -50.8 | -82.6 | 278 | 6 |
| 2023-08-01T00:00 | 17800 | 82 | -51.0 | -82.7 | 278 | 6 |
| 2023-08-01T00:00 | 17825 | 82 | -51.1 | -82.8 | 277 | 6 |
| 2023-08-01T00:00 | 17844 | 81 | -51.2 | -82.9 | 277 | 6 |
| 2023-08-01T00:00 | 17868 | 81 | -51.3 | -82.9 | 276 | 6 |
| 2023-08-01T00:00 | 17887 | 81 | -51.4 | -83.0 | 275 | 7 |
| 2023-08-01T00:00 | 17913 | 81 | -51.5 | -83.1 | 274 | 7 |
| 2023-08-01T00:00 | 17933 | 80 | -51.5 | -83.1 | 274 | 7 |
| 2023-08-01T00:00 | 17953 | 80 | -51.5 | -83.1 | 274 | 7 |
| 2023-08-01T00:00 | 17973 | 80 | -51.5 | -83.1 | 274 | 6 |
| 2023-08-01T00:00 | 17997 | 79 | -51.4 | -83.0 | 274 | 6 |
| 2023-08-01T00:00 | 18022 | 79 | -51.5 | -83.1 | 273 | 6 |
| 2023-08-01T00:00 | 18045 | 79 | -51.5 | -83.1 | 273 | 6 |
| 2023-08-01T00:00 | 18066 | 79 | -51.6 | -83.2 | 273 | 6 |
| 2023-08-01T00:00 | 18090 | 78 | -51.1 | -83.4 | 275 | 6 |
| 2023-08-01T00:00 | 18110 | 78 | -51.1 | -83.4 | 278 | 5 |
| 2023-08-01T00:00 | 18131 | 78 | -50.7 | -83.1 | 281 | 5 |
| 2023-08-01T00:00 | 18153 | 78 | -50.3 | -82.8 | 283 | 4 |
| 2023-08-01T00:00 | 18176 | 77 | -50.0 | -83.3 | 285 | 4 |
| 2023-08-01T00:00 | 18199 | 77 | -49.9 | -83.2 | 286 | 3 |
| 2023-08-01T00:00 | 18217 | 77 | -49.4 | -82.9 | 284 | 2 |
| 2023-08-01T00:00 | 18240 | 77 | -49.1 | -82.7 | 281 | 2 |
| 2023-08-01T00:00 | 18264 | 76 | -49.0 | -82.6 | 274 | 2 |
| 2023-08-01T00:00 | 18285 | 76 | -49.2 | -82.7 | 266 | 2 |
| 2023-08-01T00:00 | 18312 | 76 | -49.4 | -82.2 | 259 | 2 |
| 2023-08-01T00:00 | 18331 | 76 | -49.4 | -82.2 | 254 | 2 |
| 2023-08-01T00:00 | 18353 | 75 | -49.5 | -82.3 | 252 | 2 |
| 2023-08-01T00:00 | 18376 | 75 | -49.5 | -82.3 | 253 | 3 |
| 2023-08-01T00:00 | 18395 | 75 | -49.7 | -82.4 | 256 | 3 |
| 2023-08-01T00:00 | 18419 | 75 | -49.8 | -82.5 | 257 | 3 |
| 2023-08-01T00:00 | 18441 | 74 | -50.0 | -82.6 | 257 | 3 |
| 2023-08-01T00:00 | 18464 | 74 | -50.2 | -82.8 | 255 | 3 |
| 2023-08-01T00:00 | 18489 | 74 | -50.4 | -82.3 | 252 | 3 |
| 2023-08-01T00:00 | 18509 | 74 | -50.6 | -82.4 | 245 | 3 |
| 2023-08-01T00:00 | 18530 | 73 | -50.5 | 237 | 3 | |
| 2023-08-01T00:00 | 18553 | 73 | -50.5 | 225 | 3 | |
| 2023-08-01T00:00 | 18580 | 73 | -50.5 | -83.0 | 214 | 3 |
| 2023-08-01T00:00 | 18601 | 72 | -50.7 | -82.5 | 204 | 3 |
| 2023-08-01T00:00 | 18622 | 72 | -50.8 | -82.6 | 197 | 3 |
| 2023-08-01T00:00 | 18647 | 72 | -50.8 | -82.6 | 193 | 3 |
| 2023-08-01T00:00 | 18669 | 72 | -51.0 | -82.7 | 191 | 4 |
| 2023-08-01T00:00 | 18690 | 71 | -51.3 | -82.9 | 190 | 4 |
| 2023-08-01T00:00 | 18712 | 71 | -51.5 | -83.1 | 190 | 4 |
| 2023-08-01T00:00 | 18734 | 71 | -51.6 | -83.2 | 191 | 5 |
| 2023-08-01T00:00 | 18759 | 71 | -51.8 | -83.3 | 193 | 5 |
| 2023-08-01T00:00 | 18780 | 71 | -52.0 | -83.5 | 196 | 5 |
| 2023-08-01T00:00 | 18803 | 70 | -52.2 | -83.6 | 199 | 6 |
| 2023-08-01T00:00 | 18826 | 70 | -52.2 | -83.6 | 202 | 6 |
| 2023-08-01T00:00 | 18849 | 70 | -52.4 | -83.2 | 205 | 6 |
| 2023-08-01T00:00 | 18869 | 70 | -52.6 | -83.9 | 209 | 7 |
| 2023-08-01T00:00 | 18890 | 69 | -52.6 | -83.9 | 214 | 7 |
| 2023-08-01T00:00 | 18914 | 69 | -52.5 | -83.8 | 218 | 7 |
| 2023-08-01T00:00 | 18935 | 69 | -52.3 | -83.7 | 222 | 7 |
| 2023-08-01T00:00 | 18956 | 69 | -52.3 | -83.7 | 225 | 6 |
| 2023-08-01T00:00 | 18978 | 68 | -52.2 | -83.6 | 227 | 6 |
| 2023-08-01T00:00 | 19000 | 68 | -52.1 | -83.5 | 228 | 5 |
| 2023-08-01T00:00 | 19026 | 68 | -51.8 | -83.9 | 229 | 5 |
| 2023-08-01T00:00 | 19046 | 68 | -51.3 | -83.6 | 230 | 4 |
| 2023-08-01T00:00 | 19068 | 67 | -51.3 | -83.6 | 232 | 4 |
| 2023-08-01T00:00 | 19087 | 67 | -51.2 | -83.5 | 235 | 4 |
| 2023-08-01T00:00 | 19117 | 67 | -51.4 | -83.6 | 238 | 3 |
| 2023-08-01T00:00 | 19137 | 67 | -51.5 | -83.7 | 240 | 3 |
| 2023-08-01T00:00 | 19158 | 67 | -51.4 | -83.6 | 242 | 3 |
| 2023-08-01T00:00 | 19181 | 66 | -51.4 | -83.6 | 244 | 3 |
| 2023-08-01T00:00 | 19205 | 66 | -51.4 | -83.6 | 245 | 3 |
| 2023-08-01T00:00 | 19224 | 66 | -51.3 | -82.9 | 247 | 2 |
| 2023-08-01T00:00 | 19246 | 66 | -51.4 | -83.0 | 248 | 2 |
| 2023-08-01T00:00 | 19268 | 65 | -51.5 | -83.1 | 247 | 1 |
| 2023-08-01T00:00 | 19293 | 65 | -51.4 | -83.0 | 243 | 1 |
| 2023-08-01T00:00 | 19314 | 65 | -51.4 | -83.0 | 225 | 1 |
| 2023-08-01T00:00 | 19336 | 65 | -51.6 | -83.2 | 172 | 0 |
| 2023-08-01T00:00 | 19358 | 65 | -51.7 | -83.2 | 136 | 1 |
| 2023-08-01T00:00 | 19379 | 64 | -51.6 | -83.2 | 125 | 1 |
| 2023-08-01T00:00 | 19402 | 64 | -51.6 | -83.2 | 123 | 1 |
| 2023-08-01T00:00 | 19429 | 64 | -51.6 | -83.8 | 125 | 1 |
| 2023-08-01T00:00 | 19448 | 64 | -51.2 | -83.5 | 131 | 1 |
| 2023-08-01T00:00 | 19470 | 63 | -50.9 | -83.3 | 139 | 1 |
| 2023-08-01T00:00 | 19493 | 63 | -50.8 | -83.2 | 143 | 1 |
| 2023-08-01T00:00 | 19516 | 63 | -51.0 | -83.3 | 142 | 1 |
| 2023-08-01T00:00 | 19538 | 63 | -51.1 | -83.4 | 135 | 2 |
| 2023-08-01T00:00 | 19558 | 63 | -51.2 | -83.5 | 128 | 2 |
| 2023-08-01T00:00 | 19585 | 62 | -51.0 | -83.3 | 126 | 2 |
| 2023-08-01T00:00 | 19609 | 62 | -51.0 | -83.3 | 127 | 3 |
| 2023-08-01T00:00 | 19628 | 62 | -50.7 | -83.1 | 132 | 3 |
| 2023-08-01T00:00 | 19651 | 62 | -50.6 | -83.1 | 137 | 3 |
| 2023-08-01T00:00 | 19674 | 61 | -50.7 | -83.1 | 143 | 3 |
| 2023-08-01T00:00 | 19695 | 61 | -50.9 | -83.3 | 150 | 4 |
| 2023-08-01T00:00 | 19716 | 61 | -51.0 | -83.3 | 157 | 4 |
| 2023-08-01T00:00 | 19738 | 61 | -51.1 | -83.4 | 166 | 4 |
| 2023-08-01T00:00 | 19764 | 61 | -51.2 | -82.9 | 175 | 4 |
| 2023-08-01T00:00 | 19785 | 60 | -51.4 | -83.0 | 183 | 4 |
| 2023-08-01T00:00 | 19809 | 60 | -51.5 | -83.1 | 191 | 4 |
| 2023-08-01T00:00 | 19832 | 60 | -51.6 | -83.2 | 196 | 5 |
| 2023-08-01T00:00 | 19854 | 60 | -51.7 | -83.9 | 201 | 5 |
| 2023-08-01T00:00 | 19875 | 60 | -51.5 | -83.7 | 204 | 5 |
| 2023-08-01T00:00 | 19898 | 59 | -51.4 | -83.6 | 206 | 5 |
| 2023-08-01T00:00 | 19919 | 59 | -51.4 | -83.6 | 207 | 5 |
| 2023-08-01T00:00 | 19937 | 59 | -51.3 | -83.6 | 209 | 5 |
| 2023-08-01T00:00 | 19962 | 59 | -50.9 | -83.3 | 211 | 5 |
| 2023-08-01T00:00 | 19981 | 59 | -50.7 | -83.1 | 213 | 4 |
| 2023-08-01T00:00 | 20000 | 58 | -50.7 | -83.1 | 215 | 4 |
| 2023-08-01T00:00 | 20021 | 58 | -50.6 | -83.1 | 218 | 3 |
| 2023-08-01T00:00 | 20045 | 58 | -50.7 | -83.1 | 221 | 3 |
| 2023-08-01T00:00 | 20068 | 58 | -50.8 | -83.2 | 224 | 3 |
| 2023-08-01T00:00 | 20090 | 58 | -50.7 | -83.1 | 228 | 2 |
| 2023-08-01T00:00 | 20113 | 57 | -50.7 | -83.1 | 231 | 2 |
| 2023-08-01T00:00 | 20137 | 57 | -50.3 | -82.8 | 232 | 1 |
| 2023-08-01T00:00 | 20158 | 57 | -50.2 | -82.8 | 229 | 1 |
| 2023-08-01T00:00 | 20177 | 57 | -50.2 | -82.8 | 216 | 0 |
| 2023-08-01T00:00 | 20201 | 57 | -50.3 | -82.8 | 179 | 0 |
| 2023-08-01T00:00 | 20221 | 57 | -50.4 | -82.9 | 121 | 0 |
| 2023-08-01T00:00 | 20240 | 56 | -50.4 | -82.9 | 104 | 0 |
| 2023-08-01T00:00 | 20262 | 56 | -50.5 | -83.0 | 109 | 1 |
| 2023-08-01T00:00 | 20284 | 56 | -50.5 | -83.0 | 122 | 1 |
| 2023-08-01T00:00 | 20305 | 56 | -50.4 | -82.9 | 136 | 1 |
| 2023-08-01T00:00 | 20326 | 56 | -50.4 | -82.9 | 148 | 2 |
| 2023-08-01T00:00 | 20348 | 55 | -50.4 | -82.9 | 157 | 2 |
| 2023-08-01T00:00 | 20366 | 55 | -50.5 | -83.0 | 166 | 3 |
| 2023-08-01T00:00 | 20390 | 55 | -50.5 | -83.0 | 175 | 3 |
| 2023-08-01T00:00 | 20408 | 55 | -50.6 | -83.1 | 187 | 3 |
| 2023-08-01T00:00 | 20432 | 55 | -50.4 | -82.9 | 203 | 2 |
| 2023-08-01T00:00 | 20451 | 55 | -50.2 | -83.5 | 222 | 2 |
| 2023-08-01T00:00 | 20472 | 54 | -50.0 | -83.3 | 238 | 2 |
| 2023-08-01T00:00 | 20498 | 54 | -49.9 | -83.2 | 246 | 3 |
| 2023-08-01T00:00 | 20519 | 54 | -49.8 | -83.2 | 247 | 3 |
| 2023-08-01T00:00 | 20541 | 54 | -49.7 | -83.1 | 239 | 2 |
| 2023-08-01T00:00 | 20559 | 54 | -49.2 | -82.7 | 224 | 2 |
| 2023-08-01T00:00 | 20582 | 53 | -49.1 | -82.7 | 207 | 3 |
| 2023-08-01T00:00 | 20602 | 53 | -49.3 | -82.8 | 194 | 3 |
| 2023-08-01T00:00 | 20627 | 53 | -49.4 | -82.9 | 188 | 3 |
| 2023-08-01T00:00 | 20644 | 53 | -49.5 | -82.9 | 186 | 4 |
| 2023-08-01T00:00 | 20669 | 53 | -49.5 | -82.9 | 188 | 4 |
| 2023-08-01T00:00 | 20693 | 53 | -49.3 | -82.8 | 191 | 4 |
| 2023-08-01T00:00 | 20714 | 52 | -49.2 | -82.7 | 196 | 5 |
| 2023-08-01T00:00 | 20736 | 52 | -49.2 | -82.7 | 200 | 5 |
| 2023-08-01T00:00 | 20759 | 52 | -49.4 | -82.9 | 205 | 5 |
| 2023-08-01T00:00 | 20782 | 52 | -49.6 | -83.0 | 210 | 5 |
| 2023-08-01T00:00 | 20804 | 52 | -49.7 | -83.1 | 216 | 6 |
| 2023-08-01T00:00 | 20825 | 51 | -49.7 | -83.1 | 221 | 5 |
| 2023-08-01T00:00 | 20849 | 51 | -49.7 | -83.1 | 226 | 5 |
| 2023-08-01T00:00 | 20875 | 51 | -49.7 | -83.1 | 230 | 4 |
| 2023-08-01T00:00 | 20894 | 51 | -49.5 | -82.9 | 234 | 3 |
| 2023-08-01T00:00 | 20920 | 51 | -49.5 | -82.9 | 238 | 2 |
| 2023-08-01T00:00 | 20946 | 51 | -49.5 | -82.9 | 249 | 1 |
| 2023-08-01T00:00 | 20968 | 50 | -49.4 | -82.9 | 295 | 1 |
| 2023-08-01T00:00 | 20989 | 50 | -49.3 | -82.8 | 357 | 1 |
| 2023-08-01T00:00 | 21011 | 50 | -49.3 | -82.8 | 12 | 2 |
| 2023-08-01T00:00 | 21038 | 50 | -49.4 | -82.9 | 19 | 2 |
| 2023-08-01T00:00 | 21063 | 50 | -49.3 | -82.8 | 25 | 2 |
| 2023-08-01T00:00 | 21082 | 50 | -49.4 | -82.9 | 32 | 3 |
| 2023-08-01T00:00 | 21105 | 49 | -49.4 | -82.9 | 42 | 3 |
| 2023-08-01T00:00 | 21126 | 49 | -49.4 | -82.9 | 55 | 2 |
| 2023-08-01T00:00 | 21157 | 49 | -49.5 | -82.9 | 69 | 2 |
| 2023-08-01T00:00 | 21180 | 49 | -49.4 | -82.9 | 85 | 2 |
| 2023-08-01T00:00 | 21197 | 49 | -49.5 | -82.9 | 102 | 2 |
| 2023-08-01T00:00 | 21224 | 48 | -49.7 | -83.1 | 118 | 2 |
| 2023-08-01T00:00 | 21248 | 48 | -49.7 | -82.4 | 134 | 2 |
| 2023-08-01T00:00 | 21275 | 48 | -49.8 | -82.5 | 149 | 3 |
| 2023-08-01T00:00 | 21300 | 48 | -49.9 | -82.5 | 164 | 3 |
| 2023-08-01T00:00 | 21322 | 48 | -50.0 | -82.6 | 177 | 3 |
| 2023-08-01T00:00 | 21347 | 48 | -50.1 | -82.7 | 189 | 4 |
| 2023-08-01T00:00 | 21368 | 47 | -50.1 | -82.7 | 200 | 4 |
| 2023-08-01T00:00 | 21388 | 47 | -50.2 | -82.8 | 208 | 4 |
| 2023-08-01T00:00 | 21419 | 47 | -50.3 | -82.8 | 214 | 5 |
| 2023-08-01T00:00 | 21436 | 47 | -50.4 | -82.9 | 220 | 5 |
| 2023-08-01T00:00 | 21463 | 47 | -50.2 | -83.5 | 226 | 5 |
| 2023-08-01T00:00 | 21485 | 47 | -50.1 | -83.4 | 232 | 4 |
| 2023-08-01T00:00 | 21507 | 46 | -49.9 | -83.2 | 238 | 4 |
| 2023-08-01T00:00 | 21531 | 46 | -49.8 | -83.2 | 243 | 4 |
| 2023-08-01T00:00 | 21555 | 46 | -49.7 | -83.1 | 248 | 3 |
| 2023-08-01T00:00 | 21581 | 46 | -49.6 | -83.0 | 252 | 3 |
| 2023-08-01T00:00 | 21603 | 46 | -49.6 | -83.0 | 256 | 3 |
| 2023-08-01T00:00 | 21629 | 46 | -49.5 | -82.9 | 260 | 2 |
| 2023-08-01T00:00 | 21651 | 45 | -49.4 | -82.9 | 266 | 2 |
| 2023-08-01T00:00 | 21670 | 45 | -49.2 | -82.7 | 273 | 2 |
| 2023-08-01T00:00 | 21697 | 45 | -49.2 | -82.7 | 280 | 2 |
| 2023-08-01T00:00 | 21721 | 45 | -49.2 | -82.7 | 287 | 2 |
| 2023-08-01T00:00 | 21741 | 45 | -49.3 | -82.8 | 293 | 2 |
| 2023-08-01T00:00 | 21763 | 45 | -49.5 | -82.9 | 299 | 2 |
| 2023-08-01T00:00 | 21785 | 44 | -49.5 | -82.9 | 306 | 2 |
| 2023-08-01T00:00 | 21810 | 44 | -49.6 | -83.0 | 314 | 2 |
| 2023-08-01T00:00 | 21835 | 44 | -49.6 | -83.0 | 323 | 2 |
| 2023-08-01T00:00 | 21856 | 44 | -49.7 | -83.1 | 334 | 2 |
| 2023-08-01T00:00 | 21880 | 44 | -49.8 | -83.2 | 345 | 2 |
| 2023-08-01T00:00 | 21901 | 44 | -49.9 | -83.2 | 356 | 2 |
| 2023-08-01T00:00 | 21924 | 44 | -49.8 | -83.2 | 4 | 2 |
| 2023-08-01T00:00 | 21944 | 43 | -49.7 | -83.1 | 9 | 2 |
| 2023-08-01T00:00 | 21967 | 43 | -49.7 | -83.1 | 11 | 2 |
| 2023-08-01T00:00 | 21992 | 43 | -49.8 | -83.2 | 13 | 3 |
| 2023-08-01T00:00 | 22014 | 43 | -49.8 | -83.2 | 16 | 3 |
| 2023-08-01T00:00 | 22036 | 43 | -49.8 | -83.2 | 18 | 4 |
| 2023-08-01T00:00 | 22057 | 43 | -49.7 | -83.1 | 21 | 4 |
| 2023-08-01T00:00 | 22079 | 43 | -49.8 | -83.2 | 24 | 5 |
| 2023-08-01T00:00 | 22108 | 42 | -49.7 | -83.1 | 27 | 5 |
| 2023-08-01T00:00 | 22131 | 42 | -49.6 | -83.0 | 30 | 5 |
| 2023-08-01T00:00 | 22155 | 42 | -49.5 | -82.9 | 34 | 6 |
| 2023-08-01T00:00 | 22174 | 42 | -49.5 | -82.9 | 39 | 6 |
| 2023-08-01T00:00 | 22193 | 42 | -49.5 | -82.9 | 44 | 6 |
| 2023-08-01T00:00 | 22220 | 42 | -49.4 | -82.9 | 50 | 6 |
| 2023-08-01T00:00 | 22240 | 41 | -49.2 | -82.7 | 57 | 6 |
| 2023-08-01T00:00 | 22265 | 41 | -49.1 | -82.7 | 65 | 6 |
| 2023-08-01T00:00 | 22284 | 41 | -49.1 | -82.7 | 72 | 6 |
| 2023-08-01T00:00 | 22311 | 41 | -49.3 | -82.8 | 78 | 6 |
| 2023-08-01T00:00 | 22332 | 41 | -49.4 | -82.9 | 85 | 7 |
| 2023-08-01T00:00 | 22354 | 41 | -49.5 | -82.9 | 91 | 7 |
| 2023-08-01T00:00 | 22381 | 41 | -49.7 | -83.1 | 97 | 7 |
| 2023-08-01T00:00 | 22402 | 41 | -49.8 | -83.2 | 103 | 7 |
| 2023-08-01T00:00 | 22426 | 40 | -49.9 | -83.2 | 109 | 7 |
| 2023-08-01T00:00 | 22446 | 40 | -50.0 | -83.3 | 115 | 7 |
| 2023-08-01T00:00 | 22465 | 40 | -49.9 | -83.2 | 119 | 7 |
| 2023-08-01T00:00 | 22493 | 40 | -49.9 | -83.2 | 123 | 6 |
| 2023-08-01T00:00 | 22514 | 40 | -49.8 | -83.2 | 125 | 6 |
| 2023-08-01T00:00 | 22538 | 40 | -49.8 | -83.2 | 126 | 6 |
| 2023-08-01T00:00 | 22559 | 40 | -49.9 | -83.2 | 126 | 5 |
| 2023-08-01T00:00 | 22584 | 39 | -50.1 | -83.4 | 125 | 5 |
| 2023-08-01T00:00 | 22607 | 39 | -50.1 | -83.4 | 123 | 5 |
| 2023-08-01T00:00 | 22625 | 39 | -50.2 | -83.5 | 118 | 4 |
| 2023-08-01T00:00 | 22648 | 39 | -50.2 | -83.5 | 112 | 4 |
| 2023-08-01T00:00 | 22675 | 39 | -50.3 | -83.5 | 104 | 4 |
| 2023-08-01T00:00 | 22700 | 39 | -50.3 | -83.5 | 97 | 4 |
| 2023-08-01T00:00 | 22722 | 39 | -50.2 | -83.5 | 89 | 4 |
| 2023-08-01T00:00 | 22745 | 38 | -50.1 | -83.4 | 82 | 4 |
| 2023-08-01T00:00 | 22771 | 38 | -50.1 | -83.4 | 75 | 4 |
| 2023-08-01T00:00 | 22795 | 38 | -50.2 | -83.5 | 68 | 4 |
| 2023-08-01T00:00 | 22823 | 38 | -50.3 | -83.5 | 62 | 4 |
| 2023-08-01T00:00 | 22844 | 38 | -50.4 | -83.6 | 59 | 4 |
| 2023-08-01T00:00 | 22870 | 38 | -50.4 | -83.6 | 60 | 5 |
| 2023-08-01T00:00 | 22888 | 38 | -50.5 | -83.7 | 63 | 5 |
| 2023-08-01T00:00 | 22911 | 37 | -50.4 | -83.6 | 67 | 5 |
| 2023-08-01T00:00 | 22938 | 37 | -50.2 | -83.5 | 73 | 5 |
| 2023-08-01T00:00 | 22964 | 37 | -50.1 | -83.4 | 79 | 5 |
| 2023-08-01T00:00 | 22988 | 37 | -50.0 | -83.3 | 87 | 5 |
| 2023-08-01T00:00 | 23010 | 37 | -50.1 | -83.4 | 94 | 5 |
| 2023-08-01T00:00 | 23038 | 37 | -50.3 | -83.5 | 100 | 4 |
| 2023-08-01T00:00 | 23062 | 37 | -50.3 | -83.5 | 104 | 4 |
| 2023-08-01T00:00 | 23087 | 36 | -50.3 | -83.5 | 103 | 4 |
| 2023-08-01T00:00 | 23112 | 36 | -50.3 | -83.5 | 98 | 4 |
| 2023-08-01T00:00 | 23138 | 36 | -50.1 | -83.4 | 90 | 4 |
| 2023-08-01T00:00 | 23160 | 36 | -50.0 | -83.3 | 81 | 4 |
| 2023-08-01T00:00 | 23185 | 36 | -50.0 | -83.3 | 74 | 4 |
| 2023-08-01T00:00 | 23204 | 36 | -50.0 | -83.3 | 71 | 4 |
| 2023-08-01T00:00 | 23233 | 36 | -49.9 | -83.2 | 71 | 5 |
| 2023-08-01T00:00 | 23264 | 36 | -49.8 | -83.2 | 74 | 5 |
| 2023-08-01T00:00 | 23287 | 35 | -49.7 | -83.1 | 77 | 5 |
| 2023-08-01T00:00 | 23308 | 35 | -49.7 | -83.1 | 81 | 6 |
| 2023-08-01T00:00 | 23328 | 35 | -49.6 | -83.0 | 83 | 6 |
| 2023-08-01T00:00 | 23359 | 35 | -49.7 | -83.1 | 83 | 6 |
| 2023-08-01T00:00 | 23386 | 35 | -49.8 | -83.2 | 81 | 6 |
| 2023-08-01T00:00 | 23409 | 35 | -49.9 | -83.2 | 76 | 6 |
| 2023-08-01T00:00 | 23437 | 35 | -49.9 | -83.2 | 71 | 6 |
| 2023-08-01T00:00 | 23460 | 34 | -49.8 | -83.2 | 65 | 6 |
| 2023-08-01T00:00 | 23482 | 34 | -49.7 | -83.1 | 60 | 6 |
| 2023-08-01T00:00 | 23508 | 34 | -49.7 | -83.1 | 56 | 6 |
| 2023-08-01T00:00 | 23527 | 34 | -49.7 | -83.1 | 54 | 6 |
| 2023-08-01T00:00 | 23552 | 34 | -49.8 | -83.2 | 53 | 6 |
| 2023-08-01T00:00 | 23578 | 34 | -49.9 | -83.2 | 54 | 6 |
| 2023-08-01T00:00 | 23606 | 34 | -50.1 | -83.4 | 56 | 6 |
| 2023-08-01T00:00 | 23628 | 34 | -49.9 | -83.2 | 60 | 6 |
| 2023-08-01T00:00 | 23658 | 33 | -49.8 | -83.2 | 64 | 6 |
| 2023-08-01T00:00 | 23677 | 33 | -49.9 | -83.2 | 68 | 7 |
| 2023-08-01T00:00 | 23708 | 33 | -50.0 | -83.3 | 72 | 7 |
| 2023-08-01T00:00 | 23729 | 33 | -50.0 | -83.3 | 76 | 8 |
| 2023-08-01T00:00 | 23763 | 33 | -50.0 | -83.3 | 80 | 8 |
| 2023-08-01T00:00 | 23778 | 33 | -49.9 | -83.2 | 83 | 9 |
| 2023-08-01T00:00 | 23801 | 33 | -50.0 | -83.3 | 86 | 9 |
| 2023-08-01T00:00 | 23823 | 33 | -50.0 | -83.3 | 88 | 9 |
| 2023-08-01T00:00 | 23851 | 32 | -50.1 | -83.4 | 88 | 9 |
| 2023-08-01T00:00 | 23872 | 32 | -50.2 | -83.5 | 88 | 9 |
| 2023-08-01T00:00 | 23893 | 32 | -50.1 | -83.4 | 86 | 9 |
| 2023-08-01T00:00 | 23922 | 32 | -50.0 | -83.3 | 84 | 9 |
| 2023-08-01T00:00 | 23947 | 32 | -50.0 | -83.3 | 82 | 9 |
| 2023-08-01T00:00 | 23975 | 32 | -50.0 | -83.3 | 81 | 9 |
| 2023-08-01T00:00 | 23995 | 32 | -49.9 | -83.2 | 81 | 8 |
| 2023-08-01T00:00 | 24021 | 32 | -50.0 | -83.3 | 82 | 8 |
| 2023-08-01T00:00 | 24045 | 31 | -49.9 | -83.2 | 84 | 8 |
| 2023-08-01T00:00 | 24068 | 31 | -49.9 | -83.2 | 86 | 7 |
| 2023-08-01T00:00 | 24093 | 31 | -49.9 | -83.2 | 88 | 7 |
| 2023-08-01T00:00 | 24114 | 31 | -49.9 | -83.2 | 90 | 8 |
| 2023-08-01T00:00 | 24137 | 31 | -49.9 | -83.2 | 93 | 8 |
| 2023-08-01T00:00 | 24161 | 31 | -49.9 | -83.2 | 95 | 8 |
| 2023-08-01T00:00 | 24187 | 31 | -49.9 | -83.2 | 97 | 8 |
| 2023-08-01T00:00 | 24211 | 31 | -49.9 | -83.2 | 99 | 9 |
| 2023-08-01T00:00 | 24234 | 31 | -49.9 | -83.2 | 101 | 9 |
| 2023-08-01T00:00 | 24263 | 30 | -50.0 | -83.3 | 101 | 9 |
| 2023-08-01T00:00 | 24287 | 30 | -50.0 | -83.3 | 101 | 8 |
| 2023-08-01T00:00 | 24301 | 30 | -50.1 | -83.4 | 100 | 8 |
| 2023-08-01T00:00 | 24327 | 30 | -49.9 | -83.2 | 98 | 8 |
| 2023-08-01T00:00 | 24359 | 30 | -49.7 | -83.9 | 95 | 8 |
| 2023-08-01T00:00 | 24369 | 30 | -49.7 | -83.9 | 92 | 8 |
| 2023-08-01T00:00 | 24401 | 30 | -49.6 | -83.8 | 90 | 9 |
| 2023-08-01T00:00 | 24422 | 30 | -49.6 | -83.8 | 90 | 9 |
| 2023-08-01T00:00 | 24444 | 30 | -49.6 | -83.8 | 90 | 10 |
| 2023-08-01T00:00 | 24472 | 30 | -49.5 | -83.7 | 91 | 10 |
| 2023-08-01T00:00 | 24499 | 29 | -49.5 | -83.7 | 93 | 11 |
| 2023-08-01T00:00 | 24519 | 29 | -49.4 | -83.7 | 94 | 11 |
| 2023-08-01T00:00 | 24544 | 29 | -49.4 | -83.7 | 95 | 10 |
| 2023-08-01T00:00 | 24563 | 29 | -49.4 | -83.7 | 95 | 9 |
| 2023-08-01T00:00 | 24590 | 29 | -49.3 | -83.6 | 94 | 9 |
| 2023-08-01T00:00 | 24615 | 29 | -49.4 | -83.7 | 92 | 8 |
| 2023-08-01T00:00 | 24637 | 29 | -49.5 | -83.7 | 90 | 7 |
| 2023-08-01T00:00 | 24658 | 29 | -49.4 | -83.7 | 89 | 7 |
| 2023-08-01T00:00 | 24686 | 29 | -49.5 | -83.7 | 89 | 6 |
| 2023-08-01T00:00 | 24702 | 28 | -49.6 | -83.8 | 91 | 6 |
| 2023-08-01T00:00 | 24739 | 28 | -49.6 | -83.8 | 93 | 7 |
| 2023-08-01T00:00 | 24764 | 28 | -49.4 | -83.7 | 96 | 7 |
| 2023-08-01T00:00 | 24787 | 28 | -49.5 | -82.9 | 99 | 7 |
| 2023-08-01T00:00 | 24813 | 28 | -49.6 | -83.0 | 101 | 8 |
| 2023-08-01T00:00 | 24830 | 28 | -49.7 | -83.1 | 104 | 9 |
| 2023-08-01T00:00 | 24860 | 28 | -49.8 | -83.2 | 106 | 9 |
| 2023-08-01T00:00 | 24883 | 28 | -49.9 | -83.2 | 109 | 10 |
| 2023-08-01T00:00 | 24907 | 28 | -49.9 | -83.2 | 112 | 10 |
| 2023-08-01T00:00 | 24936 | 27 | -49.9 | -83.2 | 115 | 11 |
| 2023-08-01T00:00 | 24960 | 27 | -49.9 | -84.0 | 118 | 11 |
| 2023-08-01T00:00 | 24986 | 27 | -49.7 | -83.9 | 120 | 11 |
| 2023-08-01T00:00 | 25009 | 27 | -49.6 | -83.8 | 123 | 10 |
| 2023-08-01T00:00 | 25039 | 27 | -49.6 | -83.8 | 124 | 10 |
| 2023-08-01T00:00 | 25058 | 27 | -49.7 | -83.9 | 125 | 10 |
| 2023-08-01T00:00 | 25088 | 27 | -49.8 | -84.0 | 125 | 9 |
| 2023-08-01T00:00 | 25114 | 27 | -49.8 | -84.0 | 126 | 9 |
| 2023-08-01T00:00 | 25137 | 27 | -49.8 | -84.0 | 128 | 10 |
| 2023-08-01T00:00 | 25168 | 27 | -49.7 | -83.9 | 130 | 10 |
| 2023-08-01T00:00 | 25190 | 26 | -49.6 | -83.8 | 132 | 9 |
| 2023-08-01T00:00 | 25216 | 26 | -49.7 | -83.9 | 133 | 9 |
| 2023-08-01T00:00 | 25239 | 26 | -49.8 | -84.0 | 134 | 8 |
| 2023-08-01T00:00 | 25270 | 26 | -49.7 | -83.9 | 133 | 8 |
| 2023-08-01T00:00 | 25294 | 26 | -49.6 | -83.8 | 130 | 7 |
| 2023-08-01T00:00 | 25320 | 26 | -49.7 | -83.9 | 125 | 6 |
| 2023-08-01T00:00 | 25344 | 26 | -49.7 | -83.9 | 118 | 6 |
| 2023-08-01T00:00 | 25371 | 26 | -49.5 | -83.7 | 109 | 5 |
| 2023-08-01T00:00 | 25397 | 26 | -49.0 | -83.4 | 100 | 6 |
| 2023-08-01T00:00 | 25428 | 26 | -48.8 | -83.2 | 94 | 6 |
| 2023-08-01T00:00 | 25448 | 25 | -48.7 | -83.2 | 92 | 6 |
| 2023-08-01T00:00 | 25473 | 25 | -48.7 | -83.2 | 92 | 7 |
| 2023-08-01T00:00 | 25497 | 25 | -48.6 | -83.1 | 96 | 7 |
| 2023-08-01T00:00 | 25529 | 25 | -48.5 | -83.0 | 100 | 7 |
| 2023-08-01T00:00 | 25548 | 25 | -48.5 | -83.0 | 105 | 8 |
| 2023-08-01T00:00 | 25574 | 25 | -48.4 | -82.9 | 108 | 8 |
| 2023-08-01T00:00 | 25604 | 25 | -48.4 | -83.8 | 109 | 8 |
| 2023-08-01T00:00 | 25624 | 25 | -48.3 | -83.8 | 107 | 8 |
| 2023-08-01T00:00 | 25654 | 25 | -48.0 | -83.6 | 103 | 8 |
| 2023-08-01T00:00 | 25685 | 25 | -47.4 | -83.1 | 97 | 7 |
| 2023-08-01T00:00 | 25704 | 24 | -47.1 | -82.9 | 91 | 7 |
| 2023-08-01T00:00 | 25730 | 24 | -46.9 | -82.8 | 87 | 7 |
| 2023-08-01T00:00 | 25759 | 24 | -46.9 | -82.8 | 85 | 7 |
| 2023-08-01T00:00 | 25782 | 24 | -46.7 | -82.6 | 86 | 7 |
| 2023-08-01T00:00 | 25808 | 24 | -46.3 | -82.4 | 89 | 7 |
| 2023-08-01T00:00 | 25828 | 24 | -46.3 | -82.4 | 93 | 7 |
| 2023-08-01T00:00 | 25860 | 24 | -46.3 | -82.4 | 97 | 7 |
| 2023-08-01T00:00 | 25887 | 24 | -46.4 | -82.4 | 102 | 7 |
| 2023-08-01T00:00 | 25907 | 24 | -46.5 | -82.5 | 106 | 7 |
| 2023-08-01T00:00 | 25935 | 24 | -46.6 | -82.6 | 111 | 7 |
| 2023-08-01T00:00 | 25964 | 24 | -46.7 | -82.6 | 114 | 7 |
| 2023-08-01T00:00 | 25988 | 23 | -46.8 | -82.7 | 117 | 8 |
| 2023-08-01T00:00 | 26010 | 23 | -46.8 | -82.7 | 119 | 8 |
| 2023-08-01T00:00 | 26041 | 23 | -46.6 | -82.6 | 119 | 7 |
| 2023-08-01T00:00 | 26064 | 23 | -46.4 | -82.4 | 119 | 7 |
| 2023-08-01T00:00 | 26085 | 23 | -46.4 | -82.4 | 119 | 7 |
| 2023-08-01T00:00 | 26114 | 23 | -46.3 | -82.4 | 119 | 7 |
| 2023-08-01T00:00 | 26139 | 23 | -46.4 | -82.4 | 120 | 7 |
| 2023-08-01T00:00 | 26159 | 23 | -46.4 | -82.4 | 123 | 7 |
| 2023-08-01T00:00 | 26182 | 23 | -46.5 | -82.5 | 126 | 7 |
| 2023-08-01T00:00 | 26201 | 23 | -46.3 | -82.4 | 128 | 7 |
| 2023-08-01T00:00 | 26233 | 23 | -46.3 | -82.4 | 130 | 7 |
| 2023-08-01T00:00 | 26261 | 23 | -46.2 | -82.3 | 130 | 6 |
| 2023-08-01T00:00 | 26280 | 22 | -46.2 | -82.3 | 127 | 6 |
| 2023-08-01T00:00 | 26307 | 22 | -46.1 | -82.2 | 124 | 6 |
| 2023-08-01T00:00 | 26328 | 22 | -46.1 | -82.2 | 118 | 6 |
| 2023-08-01T00:00 | 26358 | 22 | -46.1 | -82.2 | 112 | 6 |
| 2023-08-01T00:00 | 26376 | 22 | -46.0 | -82.1 | 106 | 6 |
| 2023-08-01T00:00 | 26408 | 22 | -46.0 | -82.1 | 101 | 6 |
| 2023-08-01T00:00 | 26430 | 22 | -46.1 | -82.2 | 97 | 6 |
| 2023-08-01T00:00 | 26454 | 22 | -46.2 | -82.3 | 95 | 6 |
| 2023-08-01T00:00 | 26476 | 22 | -46.3 | -82.4 | 94 | 7 |
| 2023-08-01T00:00 | 26511 | 22 | -46.3 | -82.4 | 94 | 7 |
| 2023-08-01T00:00 | 26528 | 22 | -46.3 | -82.4 | 93 | 8 |
| 2023-08-01T00:00 | 26557 | 22 | -46.4 | -82.4 | 92 | 8 |
| 2023-08-01T00:00 | 26583 | 21 | -46.3 | -82.4 | 89 | 9 |
| 2023-08-01T00:00 | 26613 | 21 | -46.0 | -82.1 | 87 | 9 |
| 2023-08-01T00:00 | 26626 | 21 | -45.9 | -82.1 | 85 | 9 |
| 2023-08-01T00:00 | 26657 | 21 | -45.7 | -81.9 | 83 | 9 |
| 2023-08-01T00:00 | 26679 | 21 | -45.7 | -81.9 | 83 | 9 |
| 2023-08-01T00:00 | 26713 | 21 | -45.7 | -81.9 | 83 | 9 |
| 2023-08-01T00:00 | 26739 | 21 | -45.7 | -81.9 | 84 | 9 |
| 2023-08-01T00:00 | 26757 | 21 | -45.9 | -82.1 | 84 | 10 |
| 2023-08-01T00:00 | 26784 | 21 | -45.9 | -82.1 | 84 | 10 |
| 2023-08-01T00:00 | 26804 | 21 | -46.0 | -82.1 | 85 | 10 |
| 2023-08-01T00:00 | 26833 | 21 | -46.0 | -82.1 | 86 | 10 |
| 2023-08-01T00:00 | 26858 | 21 | -46.1 | -82.2 | 88 | 11 |
| 2023-08-01T00:00 | 26879 | 20 | -46.1 | -82.2 | 90 | 11 |
| 2023-08-01T00:00 | 26912 | 20 | -46.3 | -82.4 | 93 | 11 |
| 2023-08-01T00:00 | 26932 | 20 | -46.5 | -82.5 | 95 | 11 |
| 2023-08-01T00:00 | 26961 | 20 | -46.6 | -82.6 | 98 | 12 |
| 2023-08-01T00:00 | 26980 | 20 | -46.7 | -82.6 | 99 | 12 |
| 2023-08-01T00:00 | 27013 | 20 | -46.8 | -82.7 | 100 | 12 |
| 2023-08-01T00:00 | 27041 | 20 | -46.8 | -82.7 | 101 | 12 |
| 2023-08-01T00:00 | 27066 | 20 | -46.8 | -82.7 | 102 | 12 |
| 2023-08-01T00:00 | 27090 | 20 | -46.7 | -82.6 | 102 | 11 |
| 2023-08-01T00:00 | 27121 | 20 | -46.5 | -82.5 | 103 | 11 |
| 2023-08-01T00:00 | 27144 | 20 | -46.3 | -82.4 | 103 | 10 |
| 2023-08-01T00:00 | 27159 | 20 | -46.2 | -82.3 | 103 | 10 |
| 2023-08-01T00:00 | 27187 | 20 | -46.1 | -82.2 | 103 | 9 |
| 2023-08-01T00:00 | 27218 | 19 | -46.1 | -82.2 | 103 | 9 |
| 2023-08-01T00:00 | 27246 | 19 | -46.3 | -82.4 | 102 | 9 |
| 2023-08-01T00:00 | 27273 | 19 | -46.1 | -82.2 | 102 | 9 |
| 2023-08-01T00:00 | 27298 | 19 | -46.0 | -82.1 | 103 | 8 |
| 2023-08-01T00:00 | 27327 | 19 | -46.0 | -82.1 | 104 | 8 |
| 2023-08-01T00:00 | 27362 | 19 | -45.8 | -82.0 | 105 | 8 |
| 2023-08-01T00:00 | 27372 | 19 | -45.8 | -82.0 | 107 | 7 |
| 2023-08-01T00:00 | 27405 | 19 | -45.7 | -81.9 | 108 | 7 |
| 2023-08-01T00:00 | 27423 | 19 | -45.6 | -82.9 | 110 | 6 |
| 2023-08-01T00:00 | 27457 | 19 | -45.5 | -82.9 | 111 | 6 |
| 2023-08-01T00:00 | 27481 | 19 | -45.4 | -82.8 | 112 | 5 |
| 2023-08-01T00:00 | 27512 | 19 | -45.2 | -82.7 | 111 | 5 |
| 2023-08-01T00:00 | 27551 | 19 | -45.1 | -82.6 | 108 | 5 |
| 2023-08-01T00:00 | 27558 | 18 | -45.0 | -82.5 | 101 | 5 |
| 2023-08-01T00:00 | 27592 | 18 | -44.7 | -82.3 | 92 | 5 |
| 2023-08-01T00:00 | 27618 | 18 | -44.4 | -82.1 | 84 | 6 |
| 2023-08-01T00:00 | 27649 | 18 | -44.2 | -82.0 | 79 | 7 |
| 2023-08-01T00:00 | 27681 | 18 | -44.0 | -81.8 | 75 | 8 |
| 2023-08-01T00:00 | 27698 | 18 | -43.8 | -81.7 | 73 | 8 |
| 2023-08-01T00:00 | 27723 | 18 | -43.5 | -81.5 | 72 | 8 |
| 2023-08-01T00:00 | 27755 | 18 | -43.5 | -81.5 | 71 | 8 |
| 2023-08-01T00:00 | 27782 | 18 | -43.5 | -81.5 | 71 | 8 |
| 2023-08-01T00:00 | 27813 | 18 | -43.7 | -81.6 | 71 | 8 |
| 2023-08-01T00:00 | 27825 | 18 | -43.8 | -81.7 | 70 | 7 |
| 2023-08-01T00:00 | 27860 | 18 | -43.9 | -81.8 | 70 | 7 |
| 2023-08-01T00:00 | 27892 | 18 | -44.0 | -81.8 | 69 | 7 |
| 2023-08-01T00:00 | 27910 | 18 | -44.1 | -81.9 | 70 | 7 |
| 2023-08-01T00:00 | 27948 | 17 | -44.2 | -82.0 | 71 | 8 |
| 2023-08-01T00:00 | 27956 | 17 | -44.2 | -82.0 | 74 | 8 |
| 2023-08-01T00:00 | 27993 | 17 | -44.2 | -82.0 | 78 | 8 |
| 2023-08-01T00:00 | 28022 | 17 | -44.2 | -82.0 | 83 | 9 |
| 2023-08-01T00:00 | 28059 | 17 | -44.2 | -82.0 | 87 | 9 |
| 2023-08-01T00:00 | 28075 | 17 | -44.3 | -82.0 | 91 | 9 |
| 2023-08-01T00:00 | 28107 | 17 | -44.4 | -82.1 | 94 | 9 |
| 2023-08-01T00:00 | 28131 | 17 | -44.5 | -82.2 | 96 | 9 |
| 2023-08-01T00:00 | 28156 | 17 | -44.6 | -82.2 | 97 | 9 |
| 2023-08-01T00:00 | 28183 | 17 | -44.7 | -82.3 | 96 | 9 |
| 2023-08-01T00:00 | 28206 | 17 | -44.6 | -82.2 | 94 | 9 |
| 2023-08-01T00:00 | 28227 | 17 | -44.5 | -82.2 | 92 | 10 |
| 2023-08-01T00:00 | 28260 | 17 | -44.6 | -82.2 | 90 | 10 |
| 2023-08-01T00:00 | 28274 | 17 | -44.5 | -82.2 | 88 | 10 |
| 2023-08-01T00:00 | 28309 | 17 | -44.5 | -82.2 | 87 | 11 |
| 2023-08-01T00:00 | 28326 | 17 | -44.5 | -82.2 | 87 | 11 |
| 2023-08-01T00:00 | 28352 | 16 | -44.4 | -82.1 | 88 | 12 |
| 2023-08-01T00:00 | 28379 | 16 | -44.3 | -82.0 | 89 | 12 |
| 2023-08-01T00:00 | 28411 | 16 | -44.1 | -81.9 | 90 | 12 |
| 2023-08-01T00:00 | 28438 | 16 | -44.0 | -81.8 | 92 | 12 |
| 2023-08-01T00:00 | 28449 | 16 | -44.1 | -81.9 | 94 | 12 |
| 2023-08-01T00:00 | 28484 | 16 | -44.0 | -81.8 | 96 | 12 |
| 2023-08-01T00:00 | 28504 | 16 | -44.2 | -82.0 | 97 | 12 |
| 2023-08-01T00:00 | 28539 | 16 | -44.1 | -81.9 | 98 | 12 |
| 2023-08-01T00:00 | 28552 | 16 | -44.2 | -82.0 | 99 | 12 |
| 2023-08-01T00:00 | 28591 | 16 | -44.2 | -82.0 | 100 | 12 |
| 2023-08-01T00:00 | 28607 | 16 | -44.2 | -82.0 | 100 | 11 |
| 2023-08-01T00:00 | 28637 | 16 | -44.3 | -82.0 | 100 | 11 |
| 2023-08-01T00:00 | 28673 | 16 | -44.1 | -81.9 | 100 | 10 |
| 2023-08-01T00:00 | 28686 | 16 | -44.0 | -81.8 | 99 | 10 |
| 2023-08-01T00:00 | 28713 | 16 | -43.9 | -81.8 | 98 | 9 |
| 2023-08-01T00:00 | 28741 | 16 | -43.8 | -81.7 | 97 | 9 |
| 2023-08-01T00:00 | 28769 | 15 | -43.7 | -81.6 | 95 | 8 |
| 2023-08-01T00:00 | 28794 | 15 | -43.6 | -81.5 | 94 | 8 |
| 2023-08-01T00:00 | 28817 | 15 | -43.7 | -81.6 | 92 | 8 |
| 2023-08-01T00:00 | 28838 | 15 | -43.7 | -81.6 | 91 | 9 |
| 2023-08-01T00:00 | 28872 | 15 | -43.7 | -81.6 | 89 | 9 |
| 2023-08-01T00:00 | 28891 | 15 | -43.7 | -81.6 | 87 | 9 |
| 2023-08-01T00:00 | 28926 | 15 | -43.8 | -81.7 | 85 | 9 |
| 2023-08-01T00:00 | 28959 | 15 | -43.7 | -81.6 | 84 | 10 |
| 2023-08-01T00:00 | 28968 | 15 | -43.6 | -81.5 | 82 | 10 |
| 2023-08-01T00:00 | 28995 | 15 | -43.7 | -81.6 | 82 | 11 |
| 2023-08-01T00:00 | 29026 | 15 | -43.7 | -81.6 | 82 | 11 |
| 2023-08-01T00:00 | 29051 | 15 | -43.7 | -81.6 | 84 | 11 |
| 2023-08-01T00:00 | 29081 | 15 | -43.7 | -81.6 | 87 | 12 |
| 2023-08-01T00:00 | 29112 | 15 | -43.6 | -81.5 | 91 | 12 |
| 2023-08-01T00:00 | 29144 | 15 | -43.4 | -81.4 | 95 | 12 |
| 2023-08-01T00:00 | 29170 | 15 | -43.3 | -81.3 | 99 | 12 |
| 2023-08-01T00:00 | 29193 | 15 | -43.2 | -81.3 | 101 | 13 |
| 2023-08-01T00:00 | 29218 | 14 | -43.1 | -81.2 | 102 | 13 |
| 2023-08-01T00:00 | 29242 | 14 | -43.0 | -81.1 | 102 | 14 |
| 2023-08-01T00:00 | 29263 | 14 | -43.0 | -81.1 | 102 | 14 |
| 2023-08-01T00:00 | 29283 | 14 | -43.1 | -81.2 | 101 | 14 |
| 2023-08-01T00:00 | 29322 | 14 | -43.1 | -81.2 | 100 | 14 |
| 2023-08-01T00:00 | 29349 | 14 | -43.1 | -81.2 | 100 | 13 |
| 2023-08-01T00:00 | 29377 | 14 | -43.1 | -81.2 | 100 | 13 |
| 2023-08-01T00:00 | 29407 | 14 | -43.2 | -81.3 | 101 | 12 |
| 2023-08-01T00:00 | 29424 | 14 | -43.2 | -81.3 | 103 | 12 |
| 2023-08-01T00:00 | 29442 | 14 | -43.2 | -81.3 | 104 | 12 |
| 2023-08-01T00:00 | 29467 | 14 | -43.2 | -81.3 | 105 | 12 |
| 2023-08-01T00:00 | 29500 | 14 | -43.2 | -81.3 | 105 | 12 |
| 2023-08-01T00:00 | 29526 | 14 | -43.2 | -81.3 | 105 | 11 |
| 2023-08-01T00:00 | 29561 | 14 | -43.0 | -81.1 | 104 | 11 |
| 2023-08-01T00:00 | 29594 | 14 | -42.9 | -81.1 | 103 | 11 |
| 2023-08-01T00:00 | 29609 | 14 | -42.7 | -80.9 | 102 | 11 |
| 2023-08-01T00:00 | 29637 | 14 | -42.5 | -80.8 | 101 | 10 |
| 2023-08-01T00:00 | 29663 | 14 | -42.5 | -80.8 | 100 | 10 |
| 2023-08-01T00:00 | 29692 | 13 | -42.4 | -80.7 | 100 | 10 |
| 2023-08-01T00:00 | 29706 | 13 | -42.2 | -80.6 | 100 | 10 |
| 2023-08-01T00:00 | 29741 | 13 | -42.2 | -80.6 | 100 | 10 |
| 2023-08-01T00:00 | 29766 | 13 | -42.1 | -80.5 | 100 | 9 |
| 2023-08-01T00:00 | 29799 | 13 | -42.0 | -80.4 | 100 | 9 |
| 2023-08-01T00:00 | 29805 | 13 | -42.0 | -80.4 | 100 | 9 |
| 2023-08-01T00:00 | 29843 | 13 | -41.8 | -80.3 | 100 | 9 |
| 2023-08-01T00:00 | 29879 | 13 | -41.7 | -80.2 | 102 | 8 |
| 2023-08-01T00:00 | 29899 | 13 | -41.7 | -80.2 | 106 | 8 |
| 2023-08-01T00:00 | 29933 | 13 | -41.6 | -80.1 | 109 | 8 |
| 2023-08-01T00:00 | 29942 | 13 | -41.6 | -80.1 | 112 | 8 |
| 2023-08-01T00:00 | 29984 | 13 | -41.4 | -80.0 | 113 | 9 |
| 2023-08-01T00:00 | 29996 | 13 | -41.4 | -80.0 | 112 | 9 |
| 2023-08-01T00:00 | 30026 | 13 | -41.3 | -79.9 | 110 | 9 |
| 2023-08-01T00:00 | 30055 | 13 | -41.2 | -79.9 | 107 | 9 |
| 2023-08-01T00:00 | 30071 | 13 | -41.2 | -79.9 | 105 | 9 |
| 2023-08-01T00:00 | 30125 | 13 | -41.1 | -79.8 | 104 | 10 |
| 2023-08-01T00:00 | 30136 | 13 | -40.9 | -79.7 | 104 | 10 |
| 2023-08-01T00:00 | 30168 | 13 | -40.8 | -79.6 | 104 | 10 |
| 2023-08-01T00:00 | 30192 | 13 | -40.5 | -79.4 | 104 | 10 |
| 2023-08-01T00:00 | 30218 | 12 | -40.4 | -79.3 | 104 | 10 |
| 2023-08-01T00:00 | 30244 | 12 | -40.2 | -79.2 | 103 | 9 |
| 2023-08-01T00:00 | 30275 | 12 | -40.0 | -79.0 | 102 | 9 |
| 2023-08-01T00:00 | 30284 | 12 | -39.9 | -79.0 | 101 | 8 |
| 2023-08-01T00:00 | 30320 | 12 | -39.7 | -78.8 | 99 | 8 |
| 2023-08-01T00:00 | 30348 | 12 | -39.7 | -78.8 | 96 | 8 |
| 2023-08-01T00:00 | 30367 | 12 | -39.7 | -78.8 | 94 | 9 |
| 2023-08-01T00:00 | 30406 | 12 | -39.6 | -78.8 | 92 | 9 |
| 2023-08-01T00:00 | 30426 | 12 | -39.5 | -78.7 | 90 | 10 |
| 2023-08-01T00:00 | 30453 | 12 | -39.3 | -78.5 | 90 | 11 |
| 2023-08-01T00:00 | 30486 | 12 | -39.2 | -78.5 | 91 | 12 |
| 2023-08-01T00:00 | 30503 | 12 | -39.1 | -78.4 | 92 | 13 |
| 2023-08-01T00:00 | 30532 | 12 | -39.1 | -78.4 | 94 | 14 |
| 2023-08-01T00:00 | 30544 | 12 | -39.2 | -78.5 | 96 | 15 |
| 2023-08-01T00:00 | 30562 | 12 | -39.1 | -78.4 | 99 | 16 |
| 2023-08-01T00:00 | 30605 | 12 | -39.2 | -78.5 | 100 | 16 |
| 2023-08-01T00:00 | 30626 | 12 | -39.2 | -78.5 | 102 | 16 |
| 2023-08-01T00:00 | 30652 | 12 | -39.1 | -78.4 | 103 | 16 |
| 2023-08-01T00:00 | 30672 | 12 | -39.0 | -78.3 | 103 | 16 |
| 2023-08-01T00:00 | 30706 | 12 | -39.0 | -78.3 | 104 | 15 |
| 2023-08-01T00:00 | 30728 | 12 | -39.0 | -78.3 | 104 | 14 |
| 2023-08-01T00:00 | 30757 | 12 | -39.0 | -78.3 | 104 | 14 |
| 2023-08-01T00:00 | 30776 | 12 | -39.0 | -78.3 | 103 | 13 |
| 2023-08-01T00:00 | 30814 | 11 | -38.9 | -78.3 | 101 | 13 |
| 2023-08-01T00:00 | 30828 | 11 | -39.0 | -78.3 | 100 | 12 |
| 2023-08-01T00:00 | 30846 | 11 | -38.9 | -78.3 | 98 | 12 |
| 2023-08-01T00:00 | 30882 | 11 | -38.8 | -78.2 | 97 | 12 |
| 2023-08-01T00:00 | 30895 | 11 | -38.5 | -78.0 | 97 | 12 |
| 2023-08-01T00:00 | 30936 | 11 | -38.2 | -77.8 | 96 | 11 |
| 2023-08-01T00:00 | 30937 | 11 | -38.1 | -77.7 | 95 | 11 |
| 2023-08-01T00:00 | 30960 | 11 | -38.1 | -77.7 | 94 | 11 |
| 2023-08-01T00:00 | 30998 | 11 | -38.2 | -77.8 | 92 | 10 |
| 2023-08-01T00:00 | 31015 | 11 | -38.2 | -77.8 | 91 | 10 |
| 2023-08-01T00:00 | 31049 | 11 | -38.0 | -77.6 | 90 | 10 |
| 2023-08-01T00:00 | 31070 | 11 | -38.0 | -77.6 | 90 | 10 |
| 2023-08-01T00:00 | 31082 | 11 | -37.9 | -77.6 | 91 | 10 |
| 2023-08-01T00:00 | 31115 | 11 | -37.8 | -77.5 | 91 | 10 |
| 2023-08-01T00:00 | 31124 | 11 | -37.8 | -77.5 | 91 | 10 |
| 2023-08-01T00:00 | 31144 | 11 | -37.7 | -77.4 | 91 | 10 |
| 2023-08-01T00:00 | 31179 | 11 | -37.7 | -77.4 | 90 | 10 |
| 2023-08-01T00:00 | 31196 | 11 | -37.8 | -77.5 | 90 | 10 |
| 2023-08-01T00:00 | 31226 | 11 | -37.8 | -77.5 | 89 | 10 |
| 2023-08-01T00:00 | 31247 | 11 | -37.8 | -77.5 | 87 | 10 |
| 2023-08-01T00:00 | 31281 | 11 | -37.8 | -77.5 | 86 | 10 |
| 2023-08-01T00:00 | 31303 | 11 | -37.9 | -77.6 | 84 | 11 |
| 2023-08-01T00:00 | 31332 | 11 | -37.9 | -77.6 | 82 | 11 |
| 2023-08-01T00:00 | 31364 | 11 | -37.9 | -77.6 | 81 | 11 |
| 2023-08-01T00:00 | 31370 | 11 | -37.9 | -77.6 | 82 | 12 |
| 2023-08-01T00:00 | 31391 | 11 | -37.8 | -77.5 | 83 | 12 |
| 2023-08-01T00:00 | 31426 | 10 | -37.7 | -77.4 | 86 | 12 |
| 2023-08-01T00:00 | 31462 | 10 | -37.6 | -77.4 | 89 | 13 |
| 2023-08-01T00:00 | 31478 | 10 | -37.6 | -77.4 | 92 | 13 |
| 2023-08-01T00:00 | 31493 | 10 | -37.6 | -77.4 | 94 | 13 |
| 2023-08-01T00:00 | 31533 | 10 | -37.7 | -77.4 | 95 | 13 |
| 2023-08-01T00:00 | 31546 | 10 | -37.6 | -77.4 | 95 | 14 |
| 2023-08-01T00:00 | 31571 | 10 | -37.5 | -77.3 | 94 | 14 |
| 2023-08-01T00:00 | 31597 | 10 | -37.4 | -77.2 | 92 | 14 |
| 2023-08-01T00:00 | 31630 | 10 | -37.3 | -77.2 | 91 | 14 |
| 2023-08-01T00:00 | 31651 | 10 | -37.3 | -77.2 | 90 | 15 |
| 2023-08-01T00:00 | 31674 | 10 | -37.1 | -77.0 | 89 | 15 |
| 2023-08-01T00:00 | 31694 | 10 | -36.9 | -76.9 | 89 | 15 |
| 2023-08-01T00:00 | 31747 | 10 | -36.7 | -76.7 | 90 | 15 |
| 2023-08-01T00:00 | 31751 | 10 | -36.3 | -76.5 | 91 | 15 |
| 2023-08-01T00:00 | 31779 | 10 | -36.1 | -76.3 | 91 | 15 |
| 2023-08-01T00:00 | 31797 | 10 | -36.1 | -76.3 | 92 | 16 |
| 2023-08-01T00:00 | 31825 | 10 | -36.1 | -76.3 | 92 | 16 |
| 2023-08-01T00:00 | 31881 | 10 | -36.1 | -76.3 | 92 | 16 |
| 2023-08-01T00:00 | 31891 | 10 | -36.0 | -76.3 | 91 | 16 |
| 2023-08-01T00:00 | 31919 | 10 | -35.7 | -76.1 | 91 | 16 |
| 2023-08-01T00:00 | 31940 | 10 | -35.4 | -75.8 | 91 | 16 |
| 2023-08-01T00:00 | 31946 | 10 | -35.4 | -75.8 | 91 | 15 |
| 2023-08-01T00:00 | 31991 | 10 | -35.2 | -75.7 | 92 | 15 |
| 2023-08-01T00:00 | 32034 | 10 | -35.2 | -75.7 | 94 | 14 |
| 2023-08-01T00:00 | 32052 | 10 | -35.0 | -75.6 | 95 | 14 |
| 2023-08-01T00:00 | 32061 | 10 | -35.0 | -75.6 | 97 | 14 |
| 2023-08-01T00:00 | 32084 | 10 | -35.0 | -75.6 | 99 | 13 |
| 2023-08-01T00:00 | 32119 | 9 | -35.1 | -75.6 | 101 | 12 |
| 2023-08-01T00:00 | 32150 | 9 | -35.2 | -75.7 | 103 | 12 |
| 2023-08-01T00:00 | 32176 | 9 | -35.2 | -75.7 | 104 | 11 |
| 2023-08-01T00:00 | 32200 | 9 | -35.2 | -75.7 | 106 | 10 |
| 2023-08-01T00:00 | 32230 | 9 | -35.1 | -75.6 | 108 | 9 |
| 2023-08-01T00:00 | 32255 | 9 | -35.0 | -75.6 | 109 | 8 |
| 2023-08-01T00:00 | 32270 | 9 | -35.1 | -75.6 | 109 | 8 |
| 2023-08-01T00:00 | 32310 | 9 | -35.2 | -75.7 | 108 | 7 |
| 2023-08-01T00:00 | 32361 | 9 | -35.1 | -75.6 | 106 | 7 |
| 2023-08-01T00:00 | 32379 | 9 | -35.2 | -75.7 | 102 | 7 |
| 2023-08-01T00:00 | 32388 | 9 | -35.2 | -75.7 | 97 | 7 |
| 2023-08-01T00:00 | 32428 | 9 | -35.1 | -75.6 | 93 | 7 |
| 2023-08-01T00:00 | 32468 | 9 | -34.9 | -75.5 | 90 | 8 |
| 2023-08-01T00:00 | 32499 | 9 | -34.9 | -75.5 | 91 | 8 |
| 2023-08-01T00:00 | 32521 | 9 | -34.9 | -75.5 | 93 | 8 |
| 2023-08-01T00:00 | 32537 | 9 | -34.9 | -75.5 | 95 | 7 |
| 2023-08-01T00:00 | 32576 | 9 | -35.0 | -75.6 | 97 | 7 |
| 2023-08-01T00:00 | 32621 | 9 | -35.2 | -75.7 | 98 | 6 |
| 2023-08-01T00:00 | 32677 | 9 | -35.3 | -75.8 | 100 | 6 |
| 2023-08-01T00:00 | 32691 | 9 | -35.3 | -75.8 | 101 | 6 |
| 2023-08-01T00:00 | 32699 | 9 | -35.3 | -75.8 | 102 | 6 |
| 2023-08-01T00:00 | 32753 | 9 | -35.2 | -75.7 | 104 | 6 |
| 2023-08-01T00:00 | 32780 | 9 | -35.2 | -75.7 | 106 | 7 |
| 2023-08-01T00:00 | 32786 | 9 | -35.3 | -75.8 | 106 | 7 |
| 2023-08-01T00:00 | 32823 | 9 | -35.4 | -75.8 | 106 | 8 |
| 2023-08-01T00:00 | 32857 | 9 | -35.4 | -75.8 | 105 | 9 |
| 2023-08-01T00:00 | 32872 | 9 | -35.5 | -75.9 | 103 | 9 |
| 2023-08-01T00:00 | 32884 | 8 | -35.4 | -75.8 | 101 | 10 |
| 2023-08-01T00:00 | 32949 | 8 | -35.5 | -75.9 | 100 | 10 |
| 2023-08-01T00:00 | 32996 | 8 | -35.4 | -75.8 | 98 | 11 |
| 2023-08-01T00:00 | 33006 | 8 | -35.5 | -75.9 | 97 | 11 |
| 2023-08-01T00:00 | 33037 | 8 | -35.6 | -76.0 | 96 | 12 |
| 2023-08-01T00:00 | 33075 | 8 | -35.7 | -76.1 | 96 | 12 |
| 2023-08-01T00:00 | 33094 | 8 | -35.7 | -76.1 | 95 | 13 |
| 2023-08-01T00:00 | 33123 | 8 | -35.8 | -76.1 | 95 | 13 |
| 2023-08-01T00:00 | 33176 | 8 | -35.8 | -76.1 | 95 | 13 |
| 2023-08-01T00:00 | 33190 | 8 | -35.8 | -76.1 | 95 | 14 |
| 2023-08-01T00:00 | 33220 | 8 | -35.8 | -76.1 | 96 | 14 |
| 2023-08-01T00:00 | 33240 | 8 | -35.8 | -76.1 | 98 | 14 |
| 2023-08-01T00:00 | 33291 | 8 | -35.9 | -76.2 | 100 | 14 |
| 2023-08-01T00:00 | 33300 | 8 | -36.0 | -76.3 | 102 | 15 |
| 2023-08-01T00:00 | 33336 | 8 | -36.1 | -76.3 | 103 | 14 |
| 2023-08-01T00:00 | 33381 | 8 | -36.2 | -76.4 | 105 | 14 |
| 2023-08-01T00:00 | 33412 | 8 | -36.3 | -76.5 | 105 | 14 |
| 2023-08-01T00:00 | 33418 | 8 | -36.3 | -76.5 | 105 | 13 |
| 2023-08-01T00:00 | 33450 | 8 | -36.3 | -76.5 | 103 | 12 |
| 2023-08-01T00:00 | 33503 | 8 | -36.3 | -76.5 | 101 | 11 |
| 2023-08-01T00:00 | 33536 | 8 | -36.2 | -76.4 | 96 | 9 |
| 2023-08-01T00:00 | 33578 | 8 | -35.7 | -76.1 | 93 | 9 |
| 2023-08-01T00:00 | 33589 | 8 | -35.4 | -75.8 | 91 | 9 |
| 2023-08-01T00:00 | 33607 | 8 | -35.1 | -75.6 | 90 | 8 |
| 2023-08-01T00:00 | 33628 | 8 | -34.8 | -75.4 | 89 | 8 |
| 2023-08-01T00:00 | 33679 | 8 | -34.6 | -75.3 | 88 | 8 |
| 2023-08-01T00:00 | 33686 | 8 | -34.4 | -75.2 | 86 | 7 |
| 2023-08-01T00:00 | 33739 | 8 | -34.4 | -75.2 | 82 | 7 |
| 2023-08-01T00:00 | 33750 | 8 | -34.4 | -75.2 | 78 | 8 |
| 2023-08-01T00:00 | 33769 | 7 | -34.3 | -75.1 | 74 | 8 |
| 2023-08-01T00:00 | 33781 | 7 | -34.0 | -74.9 | 70 | 9 |
| 2023-08-01T00:00 | 33820 | 7 | -33.9 | -74.8 | 68 | 10 |
| 2023-08-01T00:00 | 33854 | 7 | -33.8 | -74.7 | 63 | 11 |
| 2023-08-01T00:00 | 33875 | 7 | -33.5 | -74.5 | 61 | 11 |
| 2023-08-01T00:00 | 33898 | 7 | -33.2 | -74.3 | 60 | 11 |
| 2023-08-01T00:00 | 33905 | 7 | -33.1 | -74.3 | 59 | 11 |
| 2023-08-01T00:00 | 33929 | 7 | -32.9 | -74.1 | 59 | 11 |
| 2023-08-01T00:00 | 33964 | 7 | -32.8 | -74.1 | 59 | 11 |
| 2023-08-01T00:00 | 34008 | 7 | -32.8 | -74.1 | 61 | 11 |
| 2023-08-01T00:00 | 34013 | 7 | -32.9 | -74.1 | 62 | 10 |
| 2023-08-01T00:00 | 34019 | 7 | -32.9 | -74.1 | 63 | 10 |
| 2023-08-01T00:00 | 34094 | 7 | -33.0 | -74.2 | 64 | 11 |
| 2023-08-01T00:00 | 34097 | 7 | -33.2 | -74.3 | 64 | 11 |
| 2023-08-01T00:00 | 34141 | 7 | -33.2 | -74.3 | 65 | 12 |
| 2023-08-01T00:00 | 34191 | 7 | -32.7 | -74.0 | 66 | 13 |
| 2023-08-01T00:00 | 34217 | 7 | -32.3 | -73.7 | 66 | 14 |
| 2023-08-01T00:00 | 34252 | 7 | -32.3 | -73.7 | 65 | 14 |
| 2023-08-01T00:00 | 34265 | 7 | -32.4 | -73.8 | 65 | 15 |
| 2023-08-01T00:00 | 34289 | 7 | -32.4 | -73.8 | 66 | 15 |
| 2023-08-01T00:00 | 34295 | 7 | -32.5 | -73.8 | 66 | 16 |
| 2023-08-01T00:00 | 34348 | 7 | -32.4 | -73.8 | 68 | 16 |
| 2023-08-01T00:00 | 34370 | 7 | -32.4 | -73.8 | 69 | 17 |
| 2023-08-01T00:00 | 34373 | 7 | -32.3 | -73.7 | 70 | 17 |
| 2023-08-01T00:00 | 34387 | 7 | -32.2 | -73.6 | 72 | 17 |
| 2023-08-01T00:00 | 34443 | 7 | -31.9 | -73.4 | 73 | 18 |
| 2023-08-01T00:00 | 34455 | 7 | -32.2 | -73.6 | 75 | 18 |
| 2023-08-01T00:00 | 34464 | 7 | -32.6 | -73.9 | 76 | 18 |
| 2023-08-01T00:00 | 34503 | 7 | -32.3 | -73.7 | 77 | 18 |
| 2023-08-01T00:00 | 34519 | 7 | -32.4 | -73.8 | 77 | 18 |
| 2023-08-01T00:00 | 34537 | 7 | -32.2 | -73.6 | 77 | 17 |
| 2023-08-01T00:00 | 34570 | 7 | -32.2 | -73.6 | 77 | 16 |
| 2023-08-01T00:00 | 34571 | 7 | -32.2 | -73.6 | 78 | 15 |
| 2023-08-01T00:00 | 34590 | 7 | -32.2 | -73.6 | 79 | 15 |
| 2023-08-01T00:00 | 34621 | 7 | -32.3 | -73.7 | 81 | 14 |
| 2023-08-01T00:00 | 34665 | 7 | -32.7 | -74.0 | 84 | 13 |
| 2023-08-01T00:00 | 34701 | 7 | -32.7 | -74.0 | 85 | 12 |
| 2023-08-01T00:00 | 34733 | 7 | -32.3 | -73.7 | 81 | 11 |
| 2023-08-01T00:00 | 34735 | 7 | -32.1 | -73.6 | 78 | 11 |
| 2023-08-01T00:00 | 34769 | 7 | -31.7 | -73.3 | 70 | 11 |
| 2023-08-01T00:00 | 34811 | 6 | -31.2 | -73.0 | 68 | 11 |
| 2023-08-01T00:00 | 34841 | 6 | -31.1 | -72.9 | 68 | 12 |
| 2023-08-01T00:00 | 34885 | 6 | -31.0 | -72.8 | 69 | 13 |
| 2023-08-01T00:00 | 34896 | 6 | -30.7 | -72.6 | 71 | 15 |
| 2023-08-01T00:00 | 34941 | 6 | -30.5 | -72.5 | 71 | 16 |
| 2023-08-01T00:00 | 34962 | 6 | -30.1 | -72.2 | 74 | 18 |
| 2023-08-01T00:00 | 34987 | 6 | -30.2 | -72.3 | 76 | 19 |
| 2023-08-01T00:00 | 35052 | 6 | -30.2 | -72.3 | 76 | 20 |
| 2023-08-01T00:00 | 35057 | 6 | -30.3 | -72.3 | 78 | 20 |
| 2023-08-01T00:00 | 35077 | 6 | -30.4 | -72.4 | 79 | 20 |
| 2023-08-01T00:00 | 35092 | 6 | -30.4 | -72.4 | 80 | 21 |
| 2023-08-01T00:00 | 35113 | 6 | -30.5 | -72.5 | 82 | 21 |
| 2023-08-01T00:00 | 35117 | 6 | -30.5 | -72.5 | 83 | 21 |
| 2023-08-01T00:00 | 35176 | 6 | -30.5 | -72.5 | 84 | 20 |
| 2023-08-01T06:00 | 112 | 986 | 16.2 | 15.6 | 210 | 3 |
| 2023-08-01T06:00 | 140 | 983 | 16.1 | 15.4 | 194 | 4 |
| 2023-08-01T06:00 | 169 | 979 | 16.0 | 15.1 | 195 | 6 |
| 2023-08-01T06:00 | 199 | 976 | 15.7 | 15.0 | 198 | 7 |
| 2023-08-01T06:00 | 226 | 973 | 15.5 | 14.9 | 202 | 9 |
| 2023-08-01T06:00 | 258 | 969 | 15.2 | 15.0 | 206 | 10 |
| 2023-08-01T06:00 | 285 | 966 | 15.4 | 14.7 | 210 | 10 |
| 2023-08-01T06:00 | 306 | 963 | 15.2 | 14.6 | 213 | 11 |
| 2023-08-01T06:00 | 335 | 961 | 14.9 | 14.5 | 216 | 12 |
| 2023-08-01T06:00 | 360 | 958 | 14.8 | 14.5 | 218 | 13 |
| 2023-08-01T06:00 | 388 | 955 | 14.6 | 14.4 | 220 | 13 |
| 2023-08-01T06:00 | 412 | 952 | 14.6 | 14.2 | 221 | 14 |
| 2023-08-01T06:00 | 436 | 949 | 14.4 | 14.0 | 223 | 14 |
| 2023-08-01T06:00 | 462 | 946 | 14.2 | 14.0 | 226 | 15 |
| 2023-08-01T06:00 | 487 | 943 | 14.1 | 14.0 | 228 | 15 |
| 2023-08-01T06:00 | 513 | 940 | 13.9 | 13.8 | 230 | 16 |
| 2023-08-01T06:00 | 541 | 937 | 13.8 | 13.8 | 232 | 16 |
| 2023-08-01T06:00 | 564 | 935 | 13.7 | 13.6 | 235 | 17 |
| 2023-08-01T06:00 | 589 | 932 | 13.6 | 13.5 | 237 | 17 |
| 2023-08-01T06:00 | 613 | 929 | 13.5 | 13.4 | 240 | 17 |
| 2023-08-01T06:00 | 639 | 927 | 13.4 | 13.3 | 242 | 18 |
| 2023-08-01T06:00 | 665 | 924 | 13.6 | 13.1 | 245 | 18 |
| 2023-08-01T06:00 | 688 | 921 | 13.4 | 13.0 | 247 | 18 |
| 2023-08-01T06:00 | 720 | 918 | 13.2 | 13.0 | 249 | 18 |
| 2023-08-01T06:00 | 747 | 915 | 13.0 | 12.9 | 250 | 18 |
| 2023-08-01T06:00 | 773 | 912 | 12.9 | 12.9 | 251 | 18 |
| 2023-08-01T06:00 | 802 | 909 | 12.7 | 12.6 | 252 | 17 |
| 2023-08-01T06:00 | 829 | 906 | 12.6 | 12.5 | 252 | 16 |
| 2023-08-01T06:00 | 853 | 903 | 12.5 | 12.5 | 252 | 16 |
| 2023-08-01T06:00 | 876 | 901 | 12.4 | 12.3 | 251 | 15 |
| 2023-08-01T06:00 | 900 | 898 | 12.2 | 12.2 | 251 | 14 |
| 2023-08-01T06:00 | 922 | 896 | 12.1 | 12.1 | 250 | 13 |
| 2023-08-01T06:00 | 947 | 893 | 11.9 | 11.9 | 249 | 13 |
| 2023-08-01T06:00 | 971 | 891 | 11.9 | 11.8 | 248 | 12 |
| 2023-08-01T06:00 | 990 | 889 | 11.9 | 11.4 | 246 | 12 |
| 2023-08-01T06:00 | 1011 | 886 | 11.9 | 11.2 | 245 | 11 |
| 2023-08-01T06:00 | 1034 | 884 | 11.8 | 11.1 | 244 | 11 |
| 2023-08-01T06:00 | 1055 | 882 | 11.6 | 10.7 | 243 | 11 |
| 2023-08-01T06:00 | 1076 | 880 | 11.7 | 10.5 | 242 | 11 |
| 2023-08-01T06:00 | 1101 | 877 | 11.5 | 10.4 | 241 | 11 |
| 2023-08-01T06:00 | 1123 | 875 | 11.4 | 10.3 | 241 | 12 |
| 2023-08-01T06:00 | 1148 | 872 | 11.2 | 10.2 | 241 | 12 |
| 2023-08-01T06:00 | 1171 | 870 | 11.1 | 10.1 | 241 | 12 |
| 2023-08-01T06:00 | 1193 | 867 | 10.9 | 10.0 | 241 | 12 |
| 2023-08-01T06:00 | 1216 | 865 | 10.8 | 9.8 | 241 | 13 |
| 2023-08-01T06:00 | 1236 | 863 | 10.7 | 9.7 | 241 | 13 |
| 2023-08-01T06:00 | 1259 | 861 | 10.6 | 9.7 | 242 | 14 |
| 2023-08-01T06:00 | 1286 | 858 | 10.4 | 9.5 | 243 | 14 |
| 2023-08-01T06:00 | 1312 | 855 | 10.2 | 9.6 | 245 | 14 |
| 2023-08-01T06:00 | 1335 | 853 | 9.9 | 9.5 | 245 | 14 |
| 2023-08-01T06:00 | 1359 | 850 | 9.8 | 9.3 | 245 | 14 |
| 2023-08-01T06:00 | 1381 | 848 | 9.7 | 9.0 | 244 | 13 |
| 2023-08-01T06:00 | 1401 | 846 | 9.6 | 8.9 | 242 | 13 |
| 2023-08-01T06:00 | 1421 | 844 | 9.5 | 8.9 | 241 | 13 |
| 2023-08-01T06:00 | 1448 | 841 | 9.4 | 8.8 | 240 | 12 |
| 2023-08-01T06:00 | 1472 | 839 | 9.2 | 8.7 | 239 | 12 |
| 2023-08-01T06:00 | 1494 | 837 | 9.0 | 8.6 | 239 | 12 |
| 2023-08-01T06:00 | 1517 | 834 | 8.9 | 8.6 | 238 | 12 |
| 2023-08-01T06:00 | 1539 | 832 | 8.7 | 8.5 | 238 | 12 |
| 2023-08-01T06:00 | 1562 | 830 | 8.6 | 8.3 | 238 | 12 |
| 2023-08-01T06:00 | 1582 | 828 | 8.5 | 8.2 | 238 | 13 |
| 2023-08-01T06:00 | 1602 | 826 | 8.4 | 8.2 | 238 | 13 |
| 2023-08-01T06:00 | 1624 | 823 | 8.3 | 8.1 | 238 | 13 |
| 2023-08-01T06:00 | 1650 | 821 | 8.2 | 7.8 | 237 | 13 |
| 2023-08-01T06:00 | 1669 | 819 | 8.3 | 7.6 | 237 | 13 |
| 2023-08-01T06:00 | 1699 | 816 | 8.2 | 7.4 | 237 | 13 |
| 2023-08-01T06:00 | 1723 | 814 | 8.0 | 7.3 | 238 | 13 |
| 2023-08-01T06:00 | 1743 | 812 | 8.0 | 7.2 | 239 | 13 |
| 2023-08-01T06:00 | 1767 | 809 | 7.9 | 7.1 | 239 | 13 |
| 2023-08-01T06:00 | 1796 | 807 | 7.7 | 7.1 | 238 | 12 |
| 2023-08-01T06:00 | 1826 | 804 | 7.4 | 6.9 | 237 | 12 |
| 2023-08-01T06:00 | 1847 | 802 | 7.3 | 7.1 | 236 | 12 |
| 2023-08-01T06:00 | 1872 | 799 | 7.1 | 7.1 | 237 | 12 |
| 2023-08-01T06:00 | 1895 | 797 | 6.9 | 6.9 | 238 | 12 |
| 2023-08-01T06:00 | 1918 | 795 | 6.7 | 6.7 | 239 | 12 |
| 2023-08-01T06:00 | 1943 | 792 | 6.6 | 6.6 | 240 | 12 |
| 2023-08-01T06:00 | 1968 | 790 | 6.5 | 6.5 | 241 | 12 |
| 2023-08-01T06:00 | 1987 | 788 | 6.7 | 6.3 | 241 | 11 |
| 2023-08-01T06:00 | 2010 | 786 | 6.5 | 6.2 | 241 | 11 |
| 2023-08-01T06:00 | 2040 | 783 | 6.7 | 5.9 | 243 | 12 |
| 2023-08-01T06:00 | 2075 | 780 | 6.5 | 5.5 | 244 | 12 |
| 2023-08-01T06:00 | 2104 | 777 | 6.5 | 5.4 | 246 | 13 |
| 2023-08-01T06:00 | 2132 | 774 | 6.3 | 5.1 | 247 | 13 |
| 2023-08-01T06:00 | 2157 | 772 | 6.2 | 5.1 | 248 | 14 |
| 2023-08-01T06:00 | 2175 | 770 | 6.1 | 5.1 | 247 | 14 |
| 2023-08-01T06:00 | 2197 | 768 | 5.9 | 5.0 | 246 | 14 |
| 2023-08-01T06:00 | 2226 | 766 | 5.7 | 4.9 | 245 | 14 |
| 2023-08-01T06:00 | 2252 | 763 | 5.6 | 4.7 | 245 | 14 |
| 2023-08-01T06:00 | 2282 | 761 | 5.4 | 4.6 | 244 | 13 |
| 2023-08-01T06:00 | 2306 | 758 | 5.2 | 4.5 | 244 | 14 |
| 2023-08-01T06:00 | 2333 | 756 | 5.2 | 4.1 | 245 | 14 |
| 2023-08-01T06:00 | 2357 | 753 | 5.1 | 3.3 | 245 | 14 |
| 2023-08-01T06:00 | 2381 | 751 | 5.1 | 3.3 | 245 | 14 |
| 2023-08-01T06:00 | 2405 | 749 | 4.9 | 3.2 | 245 | 14 |
| 2023-08-01T06:00 | 2433 | 746 | 5.0 | 2.4 | 245 | 14 |
| 2023-08-01T06:00 | 2460 | 744 | 4.7 | 2.4 | 246 | 13 |
| 2023-08-01T06:00 | 2486 | 742 | 4.6 | 2.3 | 246 | 13 |
| 2023-08-01T06:00 | 2511 | 739 | 4.5 | 2.0 | 247 | 13 |
| 2023-08-01T06:00 | 2532 | 737 | 4.5 | 2.1 | 249 | 13 |
| 2023-08-01T06:00 | 2557 | 735 | 4.3 | 1.9 | 249 | 14 |
| 2023-08-01T06:00 | 2578 | 733 | 4.2 | 2.0 | 249 | 15 |
| 2023-08-01T06:00 | 2605 | 731 | 4.2 | 2.0 | 248 | 15 |
| 2023-08-01T06:00 | 2629 | 729 | 4.0 | 2.2 | 246 | 15 |
| 2023-08-01T06:00 | 2655 | 726 | 3.8 | 2.1 | 244 | 15 |
| 2023-08-01T06:00 | 2681 | 724 | 3.7 | 2.0 | 243 | 15 |
| 2023-08-01T06:00 | 2703 | 722 | 3.6 | 1.8 | 242 | 15 |
| 2023-08-01T06:00 | 2723 | 720 | 3.4 | 1.7 | 242 | 14 |
| 2023-08-01T06:00 | 2750 | 718 | 3.2 | 1.8 | 243 | 14 |
| 2023-08-01T06:00 | 2775 | 716 | 3.0 | 1.7 | 245 | 14 |
| 2023-08-01T06:00 | 2797 | 714 | 2.8 | 1.6 | 246 | 14 |
| 2023-08-01T06:00 | 2817 | 712 | 2.6 | 1.6 | 247 | 15 |
| 2023-08-01T06:00 | 2844 | 710 | 2.4 | 1.5 | 248 | 15 |
| 2023-08-01T06:00 | 2866 | 708 | 2.2 | 1.4 | 248 | 16 |
| 2023-08-01T06:00 | 2888 | 706 | 2.1 | 1.4 | 247 | 16 |
| 2023-08-01T06:00 | 2910 | 704 | 1.9 | 1.3 | 247 | 17 |
| 2023-08-01T06:00 | 2934 | 702 | 1.8 | 1.0 | 246 | 17 |
| 2023-08-01T06:00 | 2953 | 700 | 1.7 | 0.8 | 245 | 17 |
| 2023-08-01T06:00 | 2973 | 698 | 1.6 | 0.7 | 244 | 17 |
| 2023-08-01T06:00 | 2999 | 696 | 1.6 | 0.4 | 243 | 17 |
| 2023-08-01T06:00 | 3026 | 694 | 1.5 | 0.2 | 242 | 17 |
| 2023-08-01T06:00 | 3055 | 691 | 1.3 | -0.1 | 242 | 17 |
| 2023-08-01T06:00 | 3077 | 689 | 1.2 | -0.1 | 242 | 17 |
| 2023-08-01T06:00 | 3108 | 687 | 1.0 | -0.6 | 241 | 17 |
| 2023-08-01T06:00 | 3131 | 685 | 0.9 | -0.5 | 241 | 17 |
| 2023-08-01T06:00 | 3168 | 682 | 0.8 | -0.6 | 241 | 17 |
| 2023-08-01T06:00 | 3198 | 679 | 0.7 | -1.2 | 241 | 16 |
| 2023-08-01T06:00 | 3221 | 677 | 0.5 | -1.1 | 242 | 16 |
| 2023-08-01T06:00 | 3244 | 675 | 0.4 | -1.3 | 242 | 16 |
| 2023-08-01T06:00 | 3276 | 673 | 0.4 | -1.7 | 243 | 15 |
| 2023-08-01T06:00 | 3302 | 671 | 0.3 | -1.6 | 242 | 15 |
| 2023-08-01T06:00 | 3330 | 668 | 0.3 | -1.6 | 241 | 15 |
| 2023-08-01T06:00 | 3356 | 666 | 0.0 | -1.7 | 240 | 15 |
| 2023-08-01T06:00 | 3381 | 664 | -0.2 | -1.7 | 238 | 15 |
| 2023-08-01T06:00 | 3405 | 662 | -0.4 | -1.7 | 238 | 15 |
| 2023-08-01T06:00 | 3426 | 660 | -0.6 | -1.8 | 237 | 15 |
| 2023-08-01T06:00 | 3447 | 658 | -0.8 | -1.8 | 237 | 15 |
| 2023-08-01T06:00 | 3473 | 656 | -1.0 | -1.8 | 237 | 15 |
| 2023-08-01T06:00 | 3503 | 654 | -1.3 | -2.0 | 237 | 15 |
| 2023-08-01T06:00 | 3531 | 652 | -1.4 | -2.1 | 238 | 15 |
| 2023-08-01T06:00 | 3553 | 650 | -1.4 | -2.4 | 239 | 15 |
| 2023-08-01T06:00 | 3580 | 648 | -1.6 | -2.6 | 241 | 15 |
| 2023-08-01T06:00 | 3610 | 645 | -1.9 | -2.8 | 243 | 15 |
| 2023-08-01T06:00 | 3639 | 643 | -2.0 | -3.4 | 245 | 15 |
| 2023-08-01T06:00 | 3666 | 641 | -2.1 | -3.9 | 247 | 15 |
| 2023-08-01T06:00 | 3690 | 639 | -2.2 | -4.0 | 248 | 15 |
| 2023-08-01T06:00 | 3716 | 637 | -2.4 | -4.1 | 248 | 15 |
| 2023-08-01T06:00 | 3743 | 635 | -2.5 | -4.7 | 248 | 14 |
| 2023-08-01T06:00 | 3766 | 633 | -2.5 | -5.0 | 246 | 14 |
| 2023-08-01T06:00 | 3790 | 631 | -2.7 | -5.1 | 244 | 14 |
| 2023-08-01T06:00 | 3816 | 629 | -2.9 | -5.7 | 242 | 14 |
| 2023-08-01T06:00 | 3842 | 627 | -3.1 | -5.8 | 240 | 14 |
| 2023-08-01T06:00 | 3870 | 624 | -3.3 | -6.5 | 238 | 14 |
| 2023-08-01T06:00 | 3899 | 622 | -3.3 | -7.7 | 237 | 13 |
| 2023-08-01T06:00 | 3926 | 620 | -3.2 | -8.3 | 236 | 12 |
| 2023-08-01T06:00 | 3951 | 618 | -3.4 | -8.4 | 236 | 12 |
| 2023-08-01T06:00 | 3976 | 616 | -3.7 | -8.5 | 236 | 11 |
| 2023-08-01T06:00 | 3998 | 614 | -3.8 | -8.8 | 236 | 11 |
| 2023-08-01T06:00 | 4027 | 612 | -4.1 | -8.9 | 236 | 11 |
| 2023-08-01T06:00 | 4048 | 610 | -4.3 | -9.0 | 237 | 11 |
| 2023-08-01T06:00 | 4070 | 609 | -4.5 | -8.9 | 238 | 11 |
| 2023-08-01T06:00 | 4094 | 607 | -4.8 | -9.2 | 239 | 12 |
| 2023-08-01T06:00 | 4118 | 605 | -5.0 | -9.2 | 241 | 12 |
| 2023-08-01T06:00 | 4143 | 603 | -5.3 | -9.3 | 242 | 12 |
| 2023-08-01T06:00 | 4171 | 601 | -5.4 | -9.2 | 242 | 12 |
| 2023-08-01T06:00 | 4196 | 599 | -5.6 | -9.4 | 242 | 12 |
| 2023-08-01T06:00 | 4227 | 597 | -5.9 | -9.3 | 242 | 11 |
| 2023-08-01T06:00 | 4252 | 595 | -6.1 | -9.5 | 241 | 11 |
| 2023-08-01T06:00 | 4278 | 593 | -6.4 | -9.5 | 240 | 10 |
| 2023-08-01T06:00 | 4308 | 591 | -6.7 | -9.6 | 240 | 10 |
| 2023-08-01T06:00 | 4338 | 588 | -7.0 | -9.7 | 240 | 10 |
| 2023-08-01T06:00 | 4360 | 587 | -7.2 | -9.8 | 241 | 10 |
| 2023-08-01T06:00 | 4385 | 585 | -7.4 | -9.8 | 243 | 11 |
| 2023-08-01T06:00 | 4410 | 583 | -7.7 | -10.0 | 244 | 11 |
| 2023-08-01T06:00 | 4434 | 581 | -7.9 | -10.1 | 244 | 11 |
| 2023-08-01T06:00 | 4463 | 579 | -8.0 | -10.2 | 244 | 12 |
| 2023-08-01T06:00 | 4491 | 577 | -8.1 | -10.2 | 243 | 12 |
| 2023-08-01T06:00 | 4515 | 575 | -8.3 | -10.3 | 240 | 13 |
| 2023-08-01T06:00 | 4546 | 573 | -8.1 | -10.0 | 237 | 14 |
| 2023-08-01T06:00 | 4573 | 571 | -8.2 | -9.9 | 234 | 15 |
| 2023-08-01T06:00 | 4600 | 569 | -8.4 | -9.8 | 231 | 17 |
| 2023-08-01T06:00 | 4623 | 567 | -8.2 | -9.4 | 230 | 18 |
| 2023-08-01T06:00 | 4646 | 565 | -8.4 | -9.5 | 229 | 18 |
| 2023-08-01T06:00 | 4677 | 563 | -8.6 | -9.4 | 229 | 19 |
| 2023-08-01T06:00 | 4702 | 561 | -8.6 | -9.1 | 230 | 19 |
| 2023-08-01T06:00 | 4729 | 559 | -8.7 | -9.0 | 231 | 19 |
| 2023-08-01T06:00 | 4758 | 558 | -8.9 | -8.9 | 232 | 19 |
| 2023-08-01T06:00 | 4782 | 556 | -9.0 | -9.0 | 233 | 19 |
| 2023-08-01T06:00 | 4812 | 554 | -9.0 | -9.0 | 232 | 19 |
| 2023-08-01T06:00 | 4838 | 552 | -9.2 | -9.2 | 231 | 19 |
| 2023-08-01T06:00 | 4867 | 550 | -9.3 | -9.3 | 230 | 20 |
| 2023-08-01T06:00 | 4896 | 548 | -9.4 | -9.4 | 227 | 20 |
| 2023-08-01T06:00 | 4920 | 546 | -9.5 | -9.5 | 226 | 21 |
| 2023-08-01T06:00 | 4951 | 544 | -9.7 | -9.7 | 225 | 21 |
| 2023-08-01T06:00 | 4979 | 542 | -9.8 | -9.8 | 225 | 21 |
| 2023-08-01T06:00 | 5005 | 540 | -9.9 | -9.9 | 226 | 22 |
| 2023-08-01T06:00 | 5031 | 538 | -10.0 | -10.0 | 227 | 22 |
| 2023-08-01T06:00 | 5059 | 536 | -10.1 | -10.1 | 228 | 22 |
| 2023-08-01T06:00 | 5087 | 534 | -10.3 | -10.3 | 228 | 21 |
| 2023-08-01T06:00 | 5111 | 533 | -10.5 | -10.5 | 229 | 21 |
| 2023-08-01T06:00 | 5136 | 531 | -10.6 | -10.6 | 229 | 21 |
| 2023-08-01T06:00 | 5164 | 529 | -10.9 | -10.9 | 230 | 21 |
| 2023-08-01T06:00 | 5192 | 527 | -11.1 | -11.1 | 231 | 21 |
| 2023-08-01T06:00 | 5221 | 525 | -11.3 | -11.3 | 232 | 21 |
| 2023-08-01T06:00 | 5250 | 523 | -11.4 | -11.4 | 233 | 22 |
| 2023-08-01T06:00 | 5282 | 521 | -11.5 | -11.7 | 234 | 22 |
| 2023-08-01T06:00 | 5308 | 519 | -11.6 | -11.8 | 234 | 22 |
| 2023-08-01T06:00 | 5335 | 517 | -11.7 | -11.9 | 234 | 22 |
| 2023-08-01T06:00 | 5364 | 515 | -11.9 | -12.2 | 234 | 22 |
| 2023-08-01T06:00 | 5388 | 514 | -12.0 | -12.5 | 233 | 22 |
| 2023-08-01T06:00 | 5419 | 512 | -12.2 | -12.8 | 233 | 22 |
| 2023-08-01T06:00 | 5440 | 510 | -12.3 | -13.0 | 233 | 22 |
| 2023-08-01T06:00 | 5468 | 508 | -12.4 | -13.1 | 233 | 22 |
| 2023-08-01T06:00 | 5494 | 507 | -12.5 | -13.4 | 233 | 23 |
| 2023-08-01T06:00 | 5520 | 505 | -12.6 | -13.4 | 233 | 23 |
| 2023-08-01T06:00 | 5548 | 503 | -12.8 | -13.8 | 232 | 23 |
| 2023-08-01T06:00 | 5576 | 501 | -12.9 | -13.9 | 232 | 23 |
| 2023-08-01T06:00 | 5603 | 499 | -13.1 | -14.1 | 231 | 23 |
| 2023-08-01T06:00 | 5635 | 497 | -13.3 | -14.2 | 231 | 23 |
| 2023-08-01T06:00 | 5664 | 495 | -13.5 | -14.3 | 231 | 23 |
| 2023-08-01T06:00 | 5691 | 494 | -13.6 | -14.3 | 231 | 23 |
| 2023-08-01T06:00 | 5719 | 492 | -13.8 | -14.5 | 231 | 23 |
| 2023-08-01T06:00 | 5746 | 490 | -13.9 | -14.7 | 231 | 24 |
| 2023-08-01T06:00 | 5767 | 489 | -14.0 | -14.9 | 230 | 24 |
| 2023-08-01T06:00 | 5798 | 487 | -14.1 | -15.1 | 230 | 24 |
| 2023-08-01T06:00 | 5823 | 485 | -14.2 | -15.4 | 230 | 24 |
| 2023-08-01T06:00 | 5846 | 484 | -14.3 | -15.5 | 230 | 24 |
| 2023-08-01T06:00 | 5876 | 482 | -14.5 | -15.6 | 230 | 24 |
| 2023-08-01T06:00 | 5902 | 480 | -14.6 | -16.0 | 230 | 24 |
| 2023-08-01T06:00 | 5933 | 478 | -14.8 | -16.2 | 231 | 24 |
| 2023-08-01T06:00 | 5958 | 477 | -14.9 | -16.2 | 232 | 25 |
| 2023-08-01T06:00 | 5991 | 475 | -15.1 | -16.5 | 232 | 25 |
| 2023-08-01T06:00 | 6019 | 473 | -15.3 | -16.8 | 232 | 25 |
| 2023-08-01T06:00 | 6044 | 471 | -15.4 | -16.8 | 232 | 26 |
| 2023-08-01T06:00 | 6066 | 470 | -15.6 | -17.2 | 231 | 26 |
| 2023-08-01T06:00 | 6089 | 468 | -15.6 | -17.2 | 231 | 26 |
| 2023-08-01T06:00 | 6117 | 467 | -15.8 | -17.5 | 230 | 26 |
| 2023-08-01T06:00 | 6147 | 465 | -16.0 | -17.9 | 230 | 26 |
| 2023-08-01T06:00 | 6172 | 463 | -16.2 | -18.0 | 230 | 26 |
| 2023-08-01T06:00 | 6202 | 461 | -16.4 | -18.1 | 231 | 26 |
| 2023-08-01T06:00 | 6226 | 460 | -16.6 | -18.4 | 231 | 26 |
| 2023-08-01T06:00 | 6248 | 459 | -16.7 | -18.4 | 231 | 25 |
| 2023-08-01T06:00 | 6270 | 457 | -16.9 | -18.7 | 231 | 25 |
| 2023-08-01T06:00 | 6295 | 456 | -17.1 | -18.8 | 232 | 25 |
| 2023-08-01T06:00 | 6321 | 454 | -17.2 | -19.0 | 232 | 25 |
| 2023-08-01T06:00 | 6343 | 453 | -17.3 | -19.2 | 232 | 25 |
| 2023-08-01T06:00 | 6368 | 451 | -17.5 | -19.3 | 232 | 26 |
| 2023-08-01T06:00 | 6395 | 450 | -17.7 | -19.5 | 233 | 26 |
| 2023-08-01T06:00 | 6424 | 448 | -17.8 | -19.9 | 233 | 26 |
| 2023-08-01T06:00 | 6444 | 447 | -17.9 | -20.2 | 233 | 26 |
| 2023-08-01T06:00 | 6469 | 445 | -18.0 | -20.2 | 233 | 26 |
| 2023-08-01T06:00 | 6493 | 444 | -18.2 | -20.3 | 233 | 26 |
| 2023-08-01T06:00 | 6519 | 442 | -18.3 | -20.5 | 233 | 26 |
| 2023-08-01T06:00 | 6548 | 441 | -18.5 | -20.9 | 233 | 25 |
| 2023-08-01T06:00 | 6572 | 439 | -18.7 | -21.0 | 232 | 25 |
| 2023-08-01T06:00 | 6602 | 437 | -19.0 | -21.2 | 231 | 25 |
| 2023-08-01T06:00 | 6632 | 436 | -19.1 | -21.4 | 231 | 25 |
| 2023-08-01T06:00 | 6657 | 434 | -19.3 | -21.7 | 230 | 25 |
| 2023-08-01T06:00 | 6679 | 433 | -19.5 | -21.7 | 230 | 25 |
| 2023-08-01T06:00 | 6701 | 432 | -19.6 | -21.7 | 229 | 25 |
| 2023-08-01T06:00 | 6724 | 430 | -19.7 | -21.7 | 229 | 25 |
| 2023-08-01T06:00 | 6746 | 429 | -19.9 | -21.8 | 229 | 25 |
| 2023-08-01T06:00 | 6769 | 428 | -20.0 | -21.9 | 230 | 26 |
| 2023-08-01T06:00 | 6796 | 426 | -20.1 | -22.1 | 230 | 26 |
| 2023-08-01T06:00 | 6826 | 424 | -20.3 | -22.3 | 230 | 26 |
| 2023-08-01T06:00 | 6855 | 423 | -20.6 | -22.7 | 231 | 27 |
| 2023-08-01T06:00 | 6882 | 421 | -20.7 | -23.0 | 231 | 28 |
| 2023-08-01T06:00 | 6903 | 420 | -20.8 | -22.9 | 231 | 28 |
| 2023-08-01T06:00 | 6929 | 419 | -20.9 | -22.9 | 231 | 29 |
| 2023-08-01T06:00 | 6950 | 417 | -21.1 | -23.0 | 232 | 29 |
| 2023-08-01T06:00 | 6979 | 416 | -21.2 | -23.4 | 232 | 29 |
| 2023-08-01T06:00 | 7009 | 414 | -21.5 | -23.6 | 232 | 30 |
| 2023-08-01T06:00 | 7034 | 413 | -21.6 | -23.6 | 232 | 30 |
| 2023-08-01T06:00 | 7060 | 411 | -21.8 | -23.6 | 232 | 30 |
| 2023-08-01T06:00 | 7089 | 410 | -22.0 | -23.9 | 232 | 29 |
| 2023-08-01T06:00 | 7112 | 408 | -22.2 | -24.2 | 231 | 29 |
| 2023-08-01T06:00 | 7133 | 407 | -22.3 | -24.2 | 231 | 29 |
| 2023-08-01T06:00 | 7160 | 406 | -22.5 | -24.2 | 231 | 29 |
| 2023-08-01T06:00 | 7191 | 404 | -22.7 | -24.5 | 231 | 29 |
| 2023-08-01T06:00 | 7214 | 403 | -22.9 | -24.7 | 231 | 30 |
| 2023-08-01T06:00 | 7239 | 401 | -23.1 | -24.8 | 231 | 30 |
| 2023-08-01T06:00 | 7262 | 400 | -23.3 | -25.0 | 232 | 30 |
| 2023-08-01T06:00 | 7289 | 399 | -23.5 | -25.2 | 232 | 31 |
| 2023-08-01T06:00 | 7316 | 397 | -23.7 | -25.3 | 233 | 31 |
| 2023-08-01T06:00 | 7342 | 396 | -23.9 | -25.4 | 233 | 31 |
| 2023-08-01T06:00 | 7368 | 394 | -24.2 | -25.5 | 233 | 31 |
| 2023-08-01T06:00 | 7398 | 393 | -24.4 | -25.6 | 234 | 31 |
| 2023-08-01T06:00 | 7430 | 391 | -24.7 | -26.2 | 234 | 31 |
| 2023-08-01T06:00 | 7466 | 389 | -24.9 | -26.7 | 234 | 31 |
| 2023-08-01T06:00 | 7490 | 388 | -25.1 | -26.7 | 233 | 31 |
| 2023-08-01T06:00 | 7515 | 386 | -25.3 | -26.8 | 233 | 31 |
| 2023-08-01T06:00 | 7541 | 385 | -25.5 | -26.8 | 233 | 31 |
| 2023-08-01T06:00 | 7567 | 384 | -25.7 | 233 | 31 | |
| 2023-08-01T06:00 | 7595 | 382 | -25.9 | -27.5 | 233 | 31 |
| 2023-08-01T06:00 | 7622 | 381 | -26.1 | -28.1 | 233 | 31 |
| 2023-08-01T06:00 | 7647 | 379 | -26.3 | -28.2 | 233 | 31 |
| 2023-08-01T06:00 | 7672 | 378 | -26.5 | -28.3 | 233 | 31 |
| 2023-08-01T06:00 | 7702 | 377 | -26.7 | -28.4 | 233 | 31 |
| 2023-08-01T06:00 | 7730 | 375 | -26.8 | -28.4 | 233 | 32 |
| 2023-08-01T06:00 | 7756 | 374 | -27.0 | -28.8 | 233 | 32 |
| 2023-08-01T06:00 | 7780 | 372 | -27.2 | -28.8 | 233 | 32 |
| 2023-08-01T06:00 | 7814 | 371 | -27.5 | -29.0 | 233 | 32 |
| 2023-08-01T06:00 | 7844 | 369 | -27.7 | -29.2 | 233 | 32 |
| 2023-08-01T06:00 | 7873 | 368 | -28.0 | -29.4 | 233 | 32 |
| 2023-08-01T06:00 | 7907 | 366 | -28.3 | -29.5 | 234 | 32 |
| 2023-08-01T06:00 | 7945 | 364 | -28.6 | -29.8 | 234 | 32 |
| 2023-08-01T06:00 | 7976 | 362 | -28.8 | -30.0 | 235 | 31 |
| 2023-08-01T06:00 | 8002 | 361 | -29.0 | -30.4 | 236 | 31 |
| 2023-08-01T06:00 | 8029 | 360 | -29.2 | -30.8 | 236 | 31 |
| 2023-08-01T06:00 | 8062 | 358 | -29.5 | -31.5 | 237 | 32 |
| 2023-08-01T06:00 | 8090 | 357 | -29.6 | -32.3 | 237 | 32 |
| 2023-08-01T06:00 | 8120 | 355 | -29.9 | -32.3 | 237 | 32 |
| 2023-08-01T06:00 | 8152 | 354 | -30.2 | -32.5 | 237 | 32 |
| 2023-08-01T06:00 | 8191 | 352 | -30.5 | -32.7 | 237 | 32 |
| 2023-08-01T06:00 | 8217 | 350 | -30.7 | -33.2 | 237 | 32 |
| 2023-08-01T06:00 | 8244 | 349 | -30.9 | -33.6 | 238 | 32 |
| 2023-08-01T06:00 | 8279 | 347 | -31.1 | -34.1 | 239 | 32 |
| 2023-08-01T06:00 | 8307 | 346 | -31.3 | -34.6 | 240 | 32 |
| 2023-08-01T06:00 | 8339 | 344 | -31.4 | -34.7 | 241 | 32 |
| 2023-08-01T06:00 | 8379 | 343 | -31.5 | -35.2 | 241 | 32 |
| 2023-08-01T06:00 | 8405 | 341 | -31.5 | -35.8 | 242 | 33 |
| 2023-08-01T06:00 | 8434 | 340 | -31.7 | -36.2 | 242 | 33 |
| 2023-08-01T06:00 | 8461 | 339 | -31.9 | -37.7 | 242 | 34 |
| 2023-08-01T06:00 | 8485 | 337 | -31.9 | -38.8 | 242 | 34 |
| 2023-08-01T06:00 | 8515 | 336 | -32.1 | -38.6 | 242 | 34 |
| 2023-08-01T06:00 | 8541 | 335 | -32.3 | -39.5 | 242 | 34 |
| 2023-08-01T06:00 | 8563 | 334 | -32.5 | -39.9 | 242 | 34 |
| 2023-08-01T06:00 | 8587 | 333 | -32.5 | -39.8 | 242 | 34 |
| 2023-08-01T06:00 | 8613 | 331 | -32.7 | -39.9 | 241 | 34 |
| 2023-08-01T06:00 | 8636 | 330 | -32.8 | -40.4 | 241 | 34 |
| 2023-08-01T06:00 | 8661 | 329 | -33.0 | -41.2 | 241 | 34 |
| 2023-08-01T06:00 | 8692 | 328 | -33.1 | -42.3 | 240 | 34 |
| 2023-08-01T06:00 | 8718 | 326 | -33.3 | -42.8 | 240 | 34 |
| 2023-08-01T06:00 | 8746 | 325 | -33.5 | -43.1 | 240 | 34 |
| 2023-08-01T06:00 | 8779 | 324 | -33.8 | -44.2 | 240 | 34 |
| 2023-08-01T06:00 | 8814 | 322 | -34.1 | -44.5 | 240 | 34 |
| 2023-08-01T06:00 | 8838 | 321 | -34.3 | 240 | 34 | |
| 2023-08-01T06:00 | 8861 | 320 | -34.5 | -45.5 | 240 | 35 |
| 2023-08-01T06:00 | 8885 | 319 | -34.7 | -46.1 | 240 | 35 |
| 2023-08-01T06:00 | 8906 | 318 | -34.9 | -46.1 | 239 | 35 |
| 2023-08-01T06:00 | 8929 | 317 | -35.1 | -46.2 | 239 | 35 |
| 2023-08-01T06:00 | 8960 | 315 | -35.4 | -47.4 | 239 | 35 |
| 2023-08-01T06:00 | 8986 | 314 | -35.5 | -48.6 | 239 | 36 |
| 2023-08-01T06:00 | 9017 | 313 | -35.8 | -49.1 | 239 | 36 |
| 2023-08-01T06:00 | 9047 | 311 | -36.0 | -49.7 | 239 | 36 |
| 2023-08-01T06:00 | 9084 | 310 | -36.3 | -50.0 | 239 | 35 |
| 2023-08-01T06:00 | 9114 | 308 | -36.6 | -50.2 | 239 | 35 |
| 2023-08-01T06:00 | 9138 | 307 | -36.8 | -50.3 | 239 | 35 |
| 2023-08-01T06:00 | 9163 | 306 | -37.1 | -50.3 | 239 | 35 |
| 2023-08-01T06:00 | 9194 | 305 | -37.3 | -51.1 | 238 | 35 |
| 2023-08-01T06:00 | 9222 | 304 | -37.5 | -51.4 | 238 | 35 |
| 2023-08-01T06:00 | 9246 | 303 | -37.7 | 237 | 35 | |
| 2023-08-01T06:00 | 9270 | 301 | -37.9 | -51.2 | 237 | 35 |
| 2023-08-01T06:00 | 9301 | 300 | -38.2 | -51.6 | 236 | 35 |
| 2023-08-01T06:00 | 9335 | 299 | -38.5 | -51.8 | 236 | 34 |
| 2023-08-01T06:00 | 9367 | 297 | -38.8 | -52.0 | 236 | 34 |
| 2023-08-01T06:00 | 9395 | 296 | -39.0 | -52.1 | 235 | 34 |
| 2023-08-01T06:00 | 9422 | 295 | -39.3 | -52.4 | 236 | 34 |
| 2023-08-01T06:00 | 9447 | 294 | -39.5 | -52.5 | 236 | 34 |
| 2023-08-01T06:00 | 9472 | 293 | -39.7 | -52.1 | 236 | 34 |
| 2023-08-01T06:00 | 9503 | 291 | -39.9 | -52.8 | 236 | 34 |
| 2023-08-01T06:00 | 9530 | 290 | -40.1 | -53.7 | 236 | 34 |
| 2023-08-01T06:00 | 9554 | 289 | -40.4 | -53.9 | 236 | 34 |
| 2023-08-01T06:00 | 9579 | 288 | -40.6 | -53.7 | 235 | 35 |
| 2023-08-01T06:00 | 9609 | 287 | -40.9 | -53.8 | 235 | 35 |
| 2023-08-01T06:00 | 9637 | 286 | -41.2 | -54.2 | 235 | 34 |
| 2023-08-01T06:00 | 9658 | 285 | -41.4 | -54.4 | 235 | 34 |
| 2023-08-01T06:00 | 9678 | 284 | -41.6 | -54.5 | 236 | 34 |
| 2023-08-01T06:00 | 9702 | 283 | -41.8 | -54.4 | 236 | 34 |
| 2023-08-01T06:00 | 9721 | 282 | -42.0 | -54.4 | 237 | 34 |
| 2023-08-01T06:00 | 9753 | 281 | -42.3 | -54.7 | 237 | 34 |
| 2023-08-01T06:00 | 9775 | 280 | -42.5 | -54.9 | 237 | 34 |
| 2023-08-01T06:00 | 9804 | 279 | -42.7 | -55.0 | 237 | 34 |
| 2023-08-01T06:00 | 9833 | 278 | -43.0 | -54.9 | 237 | 34 |
| 2023-08-01T06:00 | 9861 | 277 | -43.2 | -54.9 | 237 | 34 |
| 2023-08-01T06:00 | 9881 | 276 | -43.4 | -55.1 | 237 | 35 |
| 2023-08-01T06:00 | 9904 | 275 | -43.6 | -55.0 | 237 | 34 |
| 2023-08-01T06:00 | 9934 | 273 | -44.0 | -54.9 | 238 | 34 |
| 2023-08-01T06:00 | 9963 | 272 | -44.2 | -55.0 | 239 | 34 |
| 2023-08-01T06:00 | 9995 | 271 | -44.5 | -55.2 | 240 | 34 |
| 2023-08-01T06:00 | 10017 | 270 | -44.8 | -55.4 | 240 | 34 |
| 2023-08-01T06:00 | 10046 | 269 | -45.0 | -55.4 | 239 | 34 |
| 2023-08-01T06:00 | 10079 | 268 | -45.4 | -55.4 | 239 | 34 |
| 2023-08-01T06:00 | 10115 | 266 | -45.7 | -55.7 | 238 | 34 |
| 2023-08-01T06:00 | 10138 | 265 | -45.9 | -56.2 | 238 | 35 |
| 2023-08-01T06:00 | 10164 | 264 | -46.0 | -56.5 | 238 | 35 |
| 2023-08-01T06:00 | 10194 | 263 | -46.3 | -56.8 | 237 | 35 |
| 2023-08-01T06:00 | 10218 | 262 | -46.4 | -57.1 | 238 | 36 |
| 2023-08-01T06:00 | 10237 | 261 | -46.6 | -57.2 | 238 | 36 |
| 2023-08-01T06:00 | 10258 | 260 | -46.7 | -57.1 | 238 | 36 |
| 2023-08-01T06:00 | 10278 | 260 | -46.9 | -57.0 | 238 | 36 |
| 2023-08-01T06:00 | 10299 | 259 | -47.1 | -56.9 | 239 | 36 |
| 2023-08-01T06:00 | 10326 | 258 | -47.4 | -57.0 | 239 | 36 |
| 2023-08-01T06:00 | 10346 | 257 | -47.5 | -57.0 | 239 | 36 |
| 2023-08-01T06:00 | 10368 | 256 | -47.7 | -56.9 | 239 | 36 |
| 2023-08-01T06:00 | 10391 | 255 | -47.8 | -57.1 | 239 | 37 |
| 2023-08-01T06:00 | 10410 | 255 | -48.0 | -57.4 | 239 | 37 |
| 2023-08-01T06:00 | 10432 | 254 | -48.2 | -57.4 | 238 | 37 |
| 2023-08-01T06:00 | 10452 | 253 | -48.3 | -57.3 | 238 | 37 |
| 2023-08-01T06:00 | 10476 | 252 | -48.6 | -57.3 | 238 | 37 |
| 2023-08-01T06:00 | 10496 | 251 | -48.7 | -57.3 | 238 | 37 |
| 2023-08-01T06:00 | 10518 | 250 | -48.9 | -57.4 | 238 | 37 |
| 2023-08-01T06:00 | 10540 | 250 | -49.0 | -57.0 | 238 | 37 |
| 2023-08-01T06:00 | 10565 | 249 | -49.3 | -57.0 | 238 | 37 |
| 2023-08-01T06:00 | 10586 | 248 | -49.4 | -57.1 | 238 | 37 |
| 2023-08-01T06:00 | 10610 | 247 | -49.7 | -57.2 | 238 | 37 |
| 2023-08-01T06:00 | 10638 | 246 | -49.9 | -57.0 | 238 | 37 |
| 2023-08-01T06:00 | 10660 | 245 | -50.1 | -56.9 | 239 | 37 |
| 2023-08-01T06:00 | 10682 | 244 | -50.4 | -57.2 | 238 | 37 |
| 2023-08-01T06:00 | 10705 | 243 | -50.5 | -57.5 | 238 | 37 |
| 2023-08-01T06:00 | 10727 | 243 | -50.7 | -57.4 | 238 | 37 |
| 2023-08-01T06:00 | 10752 | 242 | -50.9 | -57.3 | 238 | 37 |
| 2023-08-01T06:00 | 10776 | 241 | -51.1 | -57.3 | 238 | 37 |
| 2023-08-01T06:00 | 10800 | 240 | -51.4 | -57.4 | 238 | 37 |
| 2023-08-01T06:00 | 10820 | 239 | -51.5 | -57.3 | 238 | 38 |
| 2023-08-01T06:00 | 10849 | 238 | -51.7 | -57.2 | 238 | 38 |
| 2023-08-01T06:00 | 10883 | 237 | -52.0 | -57.1 | 238 | 38 |
| 2023-08-01T06:00 | 10911 | 236 | -52.2 | -57.2 | 238 | 38 |
| 2023-08-01T06:00 | 10935 | 235 | -52.5 | -57.4 | 239 | 38 |
| 2023-08-01T06:00 | 10960 | 234 | -52.7 | -57.3 | 239 | 38 |
| 2023-08-01T06:00 | 10984 | 233 | -52.9 | 239 | 38 | |
| 2023-08-01T06:00 | 11014 | 232 | -53.1 | 239 | 38 | |
| 2023-08-01T06:00 | 11051 | 231 | -53.3 | -58.2 | 240 | 38 |
| 2023-08-01T06:00 | 11080 | 230 | -53.4 | -58.6 | 241 | 38 |
| 2023-08-01T06:00 | 11105 | 229 | -53.6 | -58.7 | 242 | 39 |
| 2023-08-01T06:00 | 11127 | 228 | -53.8 | -58.6 | 243 | 39 |
| 2023-08-01T06:00 | 11149 | 227 | -54.0 | -58.7 | 243 | 39 |
| 2023-08-01T06:00 | 11175 | 226 | -54.0 | -59.3 | 243 | 38 |
| 2023-08-01T06:00 | 11198 | 225 | -54.1 | -61.0 | 243 | 38 |
| 2023-08-01T06:00 | 11225 | 225 | -54.1 | -63.5 | 242 | 37 |
| 2023-08-01T06:00 | 11250 | 224 | -54.1 | -65.9 | 242 | 37 |
| 2023-08-01T06:00 | 11276 | 223 | -54.2 | -67.2 | 241 | 36 |
| 2023-08-01T06:00 | 11299 | 222 | -54.4 | -67.3 | 240 | 36 |
| 2023-08-01T06:00 | 11329 | 221 | -54.7 | -67.1 | 239 | 36 |
| 2023-08-01T06:00 | 11363 | 220 | -54.9 | -66.8 | 239 | 36 |
| 2023-08-01T06:00 | 11397 | 219 | -55.2 | -66.7 | 239 | 36 |
| 2023-08-01T06:00 | 11441 | 217 | -55.6 | -66.9 | 239 | 35 |
| 2023-08-01T06:00 | 11467 | 216 | -55.8 | -67.3 | 240 | 35 |
| 2023-08-01T06:00 | 11495 | 215 | -55.6 | -67.7 | 242 | 34 |
| 2023-08-01T06:00 | 11529 | 214 | -55.6 | -68.4 | 243 | 34 |
| 2023-08-01T06:00 | 11554 | 213 | -55.4 | -68.5 | 244 | 33 |
| 2023-08-01T06:00 | 11583 | 212 | -55.5 | -68.7 | 244 | 32 |
| 2023-08-01T06:00 | 11607 | 212 | -55.1 | -68.6 | 244 | 32 |
| 2023-08-01T06:00 | 11632 | 211 | -54.7 | -68.6 | 244 | 31 |
| 2023-08-01T06:00 | 11659 | 210 | -54.8 | -68.7 | 244 | 30 |
| 2023-08-01T06:00 | 11693 | 209 | -54.8 | -68.7 | 244 | 30 |
| 2023-08-01T06:00 | 11719 | 208 | -54.9 | -68.8 | 244 | 30 |
| 2023-08-01T06:00 | 11747 | 207 | -55.1 | -68.8 | 245 | 30 |
| 2023-08-01T06:00 | 11776 | 206 | -55.4 | -68.8 | 245 | 29 |
| 2023-08-01T06:00 | 11806 | 205 | -55.7 | -68.8 | 246 | 29 |
| 2023-08-01T06:00 | 11836 | 204 | -56.0 | -68.8 | 246 | 29 |
| 2023-08-01T06:00 | 11871 | 203 | -56.3 | -68.8 | 245 | 29 |
| 2023-08-01T06:00 | 11896 | 202 | -56.5 | -68.9 | 245 | 28 |
| 2023-08-01T06:00 | 11920 | 201 | -56.8 | -69.2 | 243 | 28 |
| 2023-08-01T06:00 | 11943 | 201 | -56.6 | -69.4 | 242 | 28 |
| 2023-08-01T06:00 | 11964 | 200 | -56.4 | -69.7 | 242 | 28 |
| 2023-08-01T06:00 | 11988 | 199 | -56.4 | -69.9 | 241 | 27 |
| 2023-08-01T06:00 | 12009 | 199 | -56.5 | -70.1 | 240 | 27 |
| 2023-08-01T06:00 | 12030 | 198 | -56.6 | -70.3 | 240 | 27 |
| 2023-08-01T06:00 | 12053 | 197 | -56.7 | -70.4 | 239 | 27 |
| 2023-08-01T06:00 | 12076 | 196 | -56.8 | -70.6 | 239 | 27 |
| 2023-08-01T06:00 | 12098 | 196 | -56.9 | -70.8 | 238 | 27 |
| 2023-08-01T06:00 | 12122 | 195 | -57.0 | -70.9 | 238 | 27 |
| 2023-08-01T06:00 | 12144 | 194 | -57.1 | -71.1 | 237 | 27 |
| 2023-08-01T06:00 | 12165 | 194 | -57.3 | -71.3 | 237 | 28 |
| 2023-08-01T06:00 | 12188 | 193 | -57.4 | -71.5 | 237 | 28 |
| 2023-08-01T06:00 | 12211 | 192 | -57.4 | -71.8 | 237 | 27 |
| 2023-08-01T06:00 | 12235 | 192 | -57.2 | -72.6 | 238 | 27 |
| 2023-08-01T06:00 | 12265 | 191 | -56.7 | -73.7 | 238 | 26 |
| 2023-08-01T06:00 | 12302 | 190 | -55.5 | -74.8 | 239 | 26 |
| 2023-08-01T06:00 | 12325 | 189 | -54.7 | -76.0 | 239 | 25 |
| 2023-08-01T06:00 | 12348 | 188 | -54.6 | -76.9 | 240 | 25 |
| 2023-08-01T06:00 | 12373 | 188 | -54.3 | -77.1 | 240 | 26 |
| 2023-08-01T06:00 | 12392 | 187 | -54.2 | -77.4 | 241 | 26 |
| 2023-08-01T06:00 | 12421 | 186 | -53.9 | -77.3 | 241 | 26 |
| 2023-08-01T06:00 | 12446 | 185 | -53.8 | -77.8 | 242 | 26 |
| 2023-08-01T06:00 | 12469 | 185 | -53.6 | -78.1 | 242 | 26 |
| 2023-08-01T06:00 | 12494 | 184 | -53.1 | -78.6 | 242 | 26 |
| 2023-08-01T06:00 | 12519 | 183 | -52.2 | -78.6 | 242 | 25 |
| 2023-08-01T06:00 | 12542 | 183 | -51.9 | -78.9 | 242 | 25 |
| 2023-08-01T06:00 | 12569 | 182 | -51.9 | -78.9 | 242 | 24 |
| 2023-08-01T06:00 | 12593 | 181 | -52.2 | -79.2 | 242 | 24 |
| 2023-08-01T06:00 | 12615 | 181 | -52.3 | -79.2 | 243 | 24 |
| 2023-08-01T06:00 | 12641 | 180 | -52.2 | -79.2 | 243 | 24 |
| 2023-08-01T06:00 | 12662 | 179 | -52.1 | -79.4 | 244 | 24 |
| 2023-08-01T06:00 | 12683 | 179 | -51.9 | -79.2 | 244 | 24 |
| 2023-08-01T06:00 | 12704 | 178 | -52.0 | -79.3 | 244 | 24 |
| 2023-08-01T06:00 | 12728 | 177 | -52.1 | -79.4 | 244 | 24 |
| 2023-08-01T06:00 | 12751 | 177 | -52.3 | -79.2 | 243 | 24 |
| 2023-08-01T06:00 | 12771 | 176 | -52.3 | -79.2 | 243 | 25 |
| 2023-08-01T06:00 | 12795 | 176 | -52.4 | -79.3 | 243 | 25 |
| 2023-08-01T06:00 | 12815 | 175 | -52.5 | -79.1 | 243 | 26 |
| 2023-08-01T06:00 | 12837 | 174 | -52.5 | -79.1 | 244 | 26 |
| 2023-08-01T06:00 | 12861 | 174 | -52.3 | -79.2 | 245 | 25 |
| 2023-08-01T06:00 | 12884 | 173 | -51.8 | -79.2 | 247 | 25 |
| 2023-08-01T06:00 | 12906 | 173 | -51.4 | -79.2 | 248 | 25 |
| 2023-08-01T06:00 | 12928 | 172 | -51.1 | -79.6 | 250 | 24 |
| 2023-08-01T06:00 | 12949 | 172 | -50.7 | -79.7 | 251 | 24 |
| 2023-08-01T06:00 | 12969 | 171 | -50.4 | -79.8 | 251 | 23 |
| 2023-08-01T06:00 | 12994 | 170 | -50.1 | -80.0 | 252 | 23 |
| 2023-08-01T06:00 | 13016 | 170 | -49.9 | -79.9 | 253 | 22 |
| 2023-08-01T06:00 | 13037 | 169 | -49.9 | -80.3 | 254 | 21 |
| 2023-08-01T06:00 | 13065 | 169 | -50.0 | -80.4 | 254 | 20 |
| 2023-08-01T06:00 | 13088 | 168 | -49.8 | -80.3 | 254 | 19 |
| 2023-08-01T06:00 | 13114 | 167 | -49.3 | -79.9 | 254 | 18 |
| 2023-08-01T06:00 | 13142 | 167 | -49.4 | -80.0 | 253 | 18 |
| 2023-08-01T06:00 | 13170 | 166 | -49.6 | -80.1 | 252 | 17 |
| 2023-08-01T06:00 | 13193 | 165 | -49.8 | -80.3 | 250 | 17 |
| 2023-08-01T06:00 | 13217 | 165 | -49.8 | -80.3 | 248 | 16 |
| 2023-08-01T06:00 | 13240 | 164 | -50.1 | -80.0 | 247 | 16 |
| 2023-08-01T06:00 | 13262 | 163 | -50.3 | -80.2 | 245 | 16 |
| 2023-08-01T06:00 | 13287 | 163 | -50.4 | -80.3 | 244 | 17 |
| 2023-08-01T06:00 | 13307 | 162 | -50.5 | -80.3 | 242 | 17 |
| 2023-08-01T06:00 | 13330 | 162 | -50.7 | -80.5 | 241 | 17 |
| 2023-08-01T06:00 | 13350 | 161 | -50.8 | -80.6 | 241 | 18 |
| 2023-08-01T06:00 | 13371 | 161 | -50.8 | -80.6 | 240 | 18 |
| 2023-08-01T06:00 | 13393 | 160 | -50.9 | -80.6 | 240 | 19 |
| 2023-08-01T06:00 | 13415 | 160 | -51.0 | -80.7 | 240 | 19 |
| 2023-08-01T06:00 | 13436 | 159 | -51.2 | -80.9 | 241 | 20 |
| 2023-08-01T06:00 | 13460 | 159 | -51.2 | -80.9 | 243 | 20 |
| 2023-08-01T06:00 | 13481 | 158 | -50.9 | -81.1 | 244 | 20 |
| 2023-08-01T06:00 | 13503 | 158 | -50.7 | -80.9 | 246 | 20 |
| 2023-08-01T06:00 | 13524 | 157 | -50.6 | -80.9 | 247 | 20 |
| 2023-08-01T06:00 | 13544 | 157 | -50.0 | -80.4 | 248 | 20 |
| 2023-08-01T06:00 | 13568 | 156 | -49.5 | -80.0 | 249 | 20 |
| 2023-08-01T06:00 | 13589 | 155 | -49.4 | -80.0 | 248 | 19 |
| 2023-08-01T06:00 | 13612 | 155 | -49.2 | -79.8 | 248 | 19 |
| 2023-08-01T06:00 | 13634 | 154 | -49.1 | -80.2 | 247 | 19 |
| 2023-08-01T06:00 | 13657 | 154 | -48.9 | -80.1 | 247 | 18 |
| 2023-08-01T06:00 | 13678 | 153 | -48.7 | -79.9 | 247 | 19 |
| 2023-08-01T06:00 | 13701 | 153 | -48.6 | -80.4 | 248 | 19 |
| 2023-08-01T06:00 | 13723 | 152 | -48.4 | -80.2 | 249 | 19 |
| 2023-08-01T06:00 | 13744 | 152 | -48.4 | -80.2 | 251 | 19 |
| 2023-08-01T06:00 | 13768 | 151 | -48.5 | -80.3 | 253 | 19 |
| 2023-08-01T06:00 | 13790 | 151 | -48.5 | -80.3 | 254 | 19 |
| 2023-08-01T06:00 | 13811 | 150 | -48.6 | -80.4 | 256 | 19 |
| 2023-08-01T06:00 | 13838 | 150 | -48.5 | -80.3 | 257 | 18 |
| 2023-08-01T06:00 | 13862 | 149 | -48.3 | -80.2 | 257 | 17 |
| 2023-08-01T06:00 | 13887 | 149 | -48.0 | -79.9 | 257 | 17 |
| 2023-08-01T06:00 | 13914 | 148 | -48.0 | -79.9 | 256 | 16 |
| 2023-08-01T06:00 | 13941 | 147 | -48.2 | -80.1 | 254 | 15 |
| 2023-08-01T06:00 | 13975 | 147 | -48.4 | -80.2 | 252 | 15 |
| 2023-08-01T06:00 | 14007 | 146 | -48.7 | -80.5 | 249 | 14 |
| 2023-08-01T06:00 | 14036 | 145 | -48.7 | -80.5 | 247 | 14 |
| 2023-08-01T06:00 | 14057 | 145 | -48.4 | -80.2 | 245 | 14 |
| 2023-08-01T06:00 | 14080 | 144 | -47.9 | -79.9 | 245 | 14 |
| 2023-08-01T06:00 | 14104 | 144 | -48.0 | -79.9 | 246 | 14 |
| 2023-08-01T06:00 | 14127 | 143 | -48.2 | -80.1 | 247 | 14 |
| 2023-08-01T06:00 | 14147 | 143 | -48.4 | -79.7 | 249 | 14 |
| 2023-08-01T06:00 | 14172 | 142 | -48.5 | -79.8 | 251 | 14 |
| 2023-08-01T06:00 | 14198 | 142 | -48.6 | -79.9 | 254 | 14 |
| 2023-08-01T06:00 | 14220 | 141 | -48.6 | -79.9 | 256 | 14 |
| 2023-08-01T06:00 | 14242 | 141 | -48.8 | -80.0 | 258 | 14 |
| 2023-08-01T06:00 | 14265 | 140 | -49.0 | -80.2 | 259 | 13 |
| 2023-08-01T06:00 | 14287 | 140 | -48.9 | -80.1 | 260 | 13 |
| 2023-08-01T06:00 | 14310 | 139 | -48.7 | -80.5 | 259 | 12 |
| 2023-08-01T06:00 | 14334 | 139 | -48.7 | -80.5 | 258 | 12 |
| 2023-08-01T06:00 | 14354 | 138 | -48.6 | -80.4 | 256 | 11 |
| 2023-08-01T06:00 | 14378 | 138 | -48.7 | -80.5 | 254 | 11 |
| 2023-08-01T06:00 | 14400 | 137 | -48.7 | -80.5 | 252 | 11 |
| 2023-08-01T06:00 | 14424 | 137 | -48.9 | -80.6 | 250 | 11 |
| 2023-08-01T06:00 | 14446 | 136 | -49.0 | -80.7 | 248 | 11 |
| 2023-08-01T06:00 | 14469 | 136 | -49.1 | -80.2 | 246 | 11 |
| 2023-08-01T06:00 | 14493 | 136 | -49.3 | -80.4 | 245 | 12 |
| 2023-08-01T06:00 | 14513 | 135 | -49.4 | -80.5 | 244 | 12 |
Only the first 2000 rows were shown. To view the complete dataset, download it as tab-delimited text. You can still view the full matrix in your browser, but be aware that this may crash the browser due to the huge size.
